Darstellungsparameter: Aktuell verwendete Einstellungen:
Skalierung der Graphiken ... ?
xyx+y,   Skalierungsfaktor:      Skalierung: Modus: x, Faktor: 1
Darstellungszeitraum ... ?
Vom - - bis: - -   Zeitraum: 04.05.2020 - 10.05.2020
Min/Max/Avg-Anzeige ... ?
Zeige MMA aktuell
Zeige MMA Monat
Zeige MMA alles
Zeige --A aktuell
Zeige --A Monat
Zeige --A alles
Keine MMA-Anzeige
MMA:
Average (ber die Originaldaten)
MMA-Basis: 04.05.2020 - 10.05.2020
Quicknavigation für Darstellung... ?
Tage:      1T, 2T, 3T, 5T -1T -2T -3T -5T +1T +2T +3T +5T
Wochen: 1W, 2W, 3W -1W -2W -3W +1W +2W +3W
Monate: 1M, 3M, 6M -1M -3M -6M +1M +3M +6M
Jahre:    1J, 3J, 5J, 10J -1J -3J -5J -10J +1J +3J +5J +10J
Nutze für die Darstellung ... ?
Originaldaten oder Mittelwerte auf ...
Stundenbasis Tagesbasis Wochenbasis
Monatsbasis Jahresbasis      Datenbasis: Original-Daten
Darstellen als:
Statistik (Auto) Statistik J:M      Darstellung:
Zur Graphik,    zurück zur Übersicht aller Sensoren.
 
Tabellarische Datenbersicht: ?
 
Sensor: Nr:Datum:Temp:Abs-Feuchte:Windchill:Wind:
Aussen-T/F 1 04-05-2020 00:00:00 11.4 C 8.01 g/m*3 11.4 C 0 km/h
2 04-05-2020 00:05:00 11.4 C 8.21 g/m*3 11.4 C 0 km/h
3 04-05-2020 00:10:00 11.4 C 8.21 g/m*3 11.4 C 0 km/h
4 04-05-2020 00:15:00 11.4 C 8.31 g/m*3 11.4 C 0 km/h
5 04-05-2020 00:20:00 11.4 C 8.31 g/m*3 11.4 C 0 km/h
6 04-05-2020 00:25:00 11.3 C 8.36 g/m*3 11.3 C 0 km/h
7 04-05-2020 00:30:00 11.3 C 8.36 g/m*3 11.3 C 0 km/h
8 04-05-2020 00:35:00 11.3 C 8.36 g/m*3 11.3 C 0 km/h
9 04-05-2020 00:40:00 11.3 C 8.36 g/m*3 11.3 C 0 km/h
10 04-05-2020 00:45:00 11.2 C 8.41 g/m*3 11.2 C 0 km/h
11 04-05-2020 00:50:00 11.2 C 8.41 g/m*3 11.2 C 0 km/h
12 04-05-2020 00:55:00 11.2 C 8.31 g/m*3 11.2 C 0 km/h
13 04-05-2020 01:00:00 11.2 C 8.41 g/m*3 11.2 C 0 km/h
14 04-05-2020 01:05:00 11.2 C 8.31 g/m*3 11.2 C 0 km/h
15 04-05-2020 01:10:00 11.1 C 8.26 g/m*3 11.1 C 0 km/h
16 04-05-2020 01:15:00 11.1 C 8.26 g/m*3 11.1 C 0 km/h
17 04-05-2020 01:20:00 11 C 8.21 g/m*3 11 C 0 km/h
18 04-05-2020 01:25:00 11 C 8.21 g/m*3 11 C 4.8 km/h
19 04-05-2020 01:30:00 10.9 C 8.16 g/m*3 10.9 C 1.6 km/h
20 04-05-2020 01:35:00 11 C 8.11 g/m*3 11 C 0 km/h
21 04-05-2020 01:40:00 11 C 8.11 g/m*3 11 C 0 km/h
22 04-05-2020 01:45:00 11.1 C 8.06 g/m*3 11.1 C 0 km/h
23 04-05-2020 01:50:00 11.1 C 8.06 g/m*3 11.1 C 0 km/h
24 04-05-2020 01:55:00 11.2 C 8.21 g/m*3 11.2 C 0 km/h
25 04-05-2020 02:00:00 11.2 C 8.31 g/m*3 11.2 C 0 km/h
Sensor: Nr:Datum:Temp:Abs-Feuchte:Windchill:Wind:
Aussen-T/F 26 04-05-2020 02:05:00 11.2 C 8.41 g/m*3 11.2 C 0 km/h
27 04-05-2020 02:10:00 11.2 C 8.41 g/m*3 11.2 C 0 km/h
28 04-05-2020 02:15:00 11.1 C 8.36 g/m*3 11.1 C 0 km/h
29 04-05-2020 02:20:00 11.1 C 8.36 g/m*3 11.1 C 0 km/h
30 04-05-2020 02:25:00 11 C 8.21 g/m*3 11 C 0 km/h
31 04-05-2020 02:30:00 11 C 8.31 g/m*3 11 C 0 km/h
32 04-05-2020 02:35:00 11 C 8.41 g/m*3 11 C 0 km/h
33 04-05-2020 02:40:00 10.9 C 8.26 g/m*3 10.9 C 0 km/h
34 04-05-2020 02:45:00 10.9 C 8.36 g/m*3 10.9 C 0 km/h
35 04-05-2020 02:50:00 10.9 C 8.36 g/m*3 10.9 C 0 km/h
36 04-05-2020 02:55:00 10.8 C 8.2 g/m*3 10.8 C 0 km/h
37 04-05-2020 03:00:00 10.7 C 8.05 g/m*3 10.7 C 4.8 km/h
38 04-05-2020 03:05:00 10.5 C 8.05 g/m*3 10.5 C 0 km/h
39 04-05-2020 03:10:00 10.4 C 8.1 g/m*3 10.4 C 0 km/h
40 04-05-2020 03:15:00 10.3 C 8.04 g/m*3 10.3 C 1.6 km/h
41 04-05-2020 03:20:00 10.2 C 7.99 g/m*3 10.2 C 1.6 km/h
42 04-05-2020 03:25:00 10 C 7.89 g/m*3 10 C 0 km/h
43 04-05-2020 03:30:00 9.9 C 7.84 g/m*3 9.9 C 0 km/h
44 04-05-2020 03:35:00 9.8 C 7.89 g/m*3 9.8 C 0 km/h
45 04-05-2020 03:40:00 9.7 C 7.74 g/m*3 9.7 C 0 km/h
46 04-05-2020 03:45:00 9.6 C 7.69 g/m*3 9.6 C 0 km/h
47 04-05-2020 03:50:00 9.5 C 7.74 g/m*3 9.5 C 0 km/h
48 04-05-2020 03:55:00 9.4 C 7.6 g/m*3 9.4 C 0 km/h
49 04-05-2020 04:00:00 9.3 C 7.64 g/m*3 9.3 C 0 km/h
50 04-05-2020 04:05:00 9.3 C 7.73 g/m*3 9.3 C 0 km/h
Sensor: Nr:Datum:Temp:Abs-Feuchte:Windchill:Wind:
Aussen-T/F 51 04-05-2020 04:10:00 9.3 C 7.73 g/m*3 9.3 C 0 km/h
52 04-05-2020 04:15:00 9.2 C 7.68 g/m*3 9.2 C 0 km/h
53 04-05-2020 04:20:00 9.2 C 7.77 g/m*3 9.2 C 0 km/h
54 04-05-2020 04:25:00 9.2 C 7.77 g/m*3 9.2 C 0 km/h
55 04-05-2020 04:30:00 9.2 C 7.77 g/m*3 9.2 C 0 km/h
56 04-05-2020 04:35:00 9.2 C 7.86 g/m*3 9.2 C 0 km/h
57 04-05-2020 04:40:00 9.3 C 7.91 g/m*3 9.3 C 0 km/h
58 04-05-2020 04:45:00 9.3 C 7.91 g/m*3 9.3 C 0 km/h
59 04-05-2020 04:50:00 9.4 C 7.96 g/m*3 9.4 C 0 km/h
60 04-05-2020 04:55:00 9.5 C 8.1 g/m*3 9.5 C 0 km/h
61 04-05-2020 05:00:00 9.5 C 8.01 g/m*3 9.5 C 0 km/h
62 04-05-2020 05:05:00 9.6 C 8.06 g/m*3 9.6 C 0 km/h
63 04-05-2020 05:10:00 9.6 C 8.15 g/m*3 9.6 C 0 km/h
64 04-05-2020 05:15:00 9.7 C 8.11 g/m*3 9.7 C 0 km/h
65 04-05-2020 05:20:00 9.7 C 8.11 g/m*3 9.7 C 0 km/h
66 04-05-2020 05:25:00 9.7 C 8.11 g/m*3 9.7 C 0 km/h
67 04-05-2020 05:30:00 9.8 C 8.16 g/m*3 9.8 C 0 km/h
68 04-05-2020 05:35:00 9.8 C 8.16 g/m*3 9.8 C 0 km/h
69 04-05-2020 05:40:00 9.8 C 8.16 g/m*3 9.8 C 0 km/h
70 04-05-2020 05:45:00 9.8 C 8.16 g/m*3 9.8 C 0 km/h
71 04-05-2020 05:50:00 9.8 C 8.16 g/m*3 9.8 C 0 km/h
72 04-05-2020 05:55:00 9.8 C 8.16 g/m*3 9.8 C 0 km/h
73 04-05-2020 06:00:00 9.8 C 8.26 g/m*3 9.8 C 0 km/h
74 04-05-2020 06:05:00 9.8 C 8.16 g/m*3 9.8 C 0 km/h
75 04-05-2020 06:10:00 9.8 C 8.26 g/m*3 9.8 C 0 km/h
Sensor: Nr:Datum:Temp:Abs-Feuchte:Windchill:Wind:
Aussen-T/F 76 04-05-2020 06:15:00 9.9 C 8.31 g/m*3 9.9 C 0 km/h
77 04-05-2020 06:20:00 9.9 C 8.31 g/m*3 9.9 C 0 km/h
78 04-05-2020 06:25:00 9.9 C 8.31 g/m*3 9.9 C 0 km/h
79 04-05-2020 06:30:00 9.9 C 8.31 g/m*3 9.9 C 0 km/h
80 04-05-2020 06:35:00 9.9 C 8.31 g/m*3 9.9 C 0 km/h
81 04-05-2020 06:40:00 9.9 C 8.31 g/m*3 9.9 C 0 km/h
82 04-05-2020 06:45:00 9.9 C 8.31 g/m*3 9.9 C 0 km/h
83 04-05-2020 06:50:00 9.9 C 8.31 g/m*3 9.9 C 0 km/h
84 04-05-2020 06:55:00 9.9 C 8.4 g/m*3 9.9 C 0 km/h
85 04-05-2020 07:00:00 9.9 C 8.4 g/m*3 9.9 C 0 km/h
86 04-05-2020 07:05:00 9.9 C 8.4 g/m*3 9.9 C 0 km/h
87 04-05-2020 07:10:00 10 C 8.46 g/m*3 10 C 0 km/h
88 04-05-2020 07:15:00 10.1 C 8.51 g/m*3 10.1 C 0 km/h
89 04-05-2020 07:20:00 10.1 C 8.51 g/m*3 10.1 C 0 km/h
90 04-05-2020 07:25:00 10.2 C 8.66 g/m*3 10.2 C 0 km/h
91 04-05-2020 07:30:00 10.3 C 8.71 g/m*3 10.3 C 1.6 km/h
92 04-05-2020 07:35:00 10.7 C 8.74 g/m*3 9.81 C 8.1 km/h
93 04-05-2020 07:40:00 10.9 C 8.75 g/m*3 10.9 C 4.8 km/h
94 04-05-2020 07:45:00 11.1 C 8.76 g/m*3 11.1 C 3.2 km/h
95 04-05-2020 07:50:00 11.3 C 8.77 g/m*3 11.3 C 4.8 km/h
96 04-05-2020 07:55:00 11.4 C 8.93 g/m*3 11.4 C 0 km/h
97 04-05-2020 08:00:00 11.5 C 8.99 g/m*3 11.5 C 0 km/h
98 04-05-2020 08:05:00 11.6 C 9.15 g/m*3 11.6 C 6.4 km/h
99 04-05-2020 08:10:00 11.6 C 9.15 g/m*3 11.6 C 8.1 km/h
100 04-05-2020 08:15:00 11.6 C 9.25 g/m*3 11.6 C 0 km/h
Sensor: Nr:Datum:Temp:Abs-Feuchte:Windchill:Wind:
Aussen-T/F 101 04-05-2020 08:20:00 11.5 C 9.3 g/m*3 11.5 C 1.6 km/h
102 04-05-2020 08:25:00 11.5 C 9.3 g/m*3 11.5 C 1.6 km/h
103 04-05-2020 08:30:00 11.5 C 9.4 g/m*3 11.5 C 3.2 km/h
104 04-05-2020 08:35:00 11.6 C 9.56 g/m*3 11.6 C 1.6 km/h
105 04-05-2020 08:40:00 11.6 C 9.56 g/m*3 11.6 C 3.2 km/h
106 04-05-2020 08:45:00 11.7 C 9.62 g/m*3 11.7 C 3.2 km/h
107 04-05-2020 08:50:00 11.7 C 9.62 g/m*3 11.7 C 6.4 km/h
108 04-05-2020 08:55:00 11.7 C 9.62 g/m*3 11.7 C 3.2 km/h
109 04-05-2020 09:00:00 11.7 C 9.62 g/m*3 11.7 C 0 km/h
110 04-05-2020 09:05:00 11.6 C 9.56 g/m*3 11.6 C 0 km/h
111 04-05-2020 09:10:00 11.7 C 9.62 g/m*3 11.7 C 0 km/h
112 04-05-2020 09:15:00 11.7 C 9.73 g/m*3 11.7 C 0 km/h
113 04-05-2020 09:20:00 11.8 C 9.79 g/m*3 11.8 C 0 km/h
114 04-05-2020 09:25:00 11.8 C 9.79 g/m*3 11.8 C 0 km/h
115 04-05-2020 09:30:00 11.9 C 9.85 g/m*3 11.9 C 1.6 km/h
116 04-05-2020 09:35:00 11.9 C 9.85 g/m*3 11.9 C 1.6 km/h
117 04-05-2020 09:40:00 12 C 9.91 g/m*3 12 C 1.6 km/h
118 04-05-2020 09:45:00 12 C 9.91 g/m*3 12 C 3.2 km/h
119 04-05-2020 09:50:00 12.1 C 9.97 g/m*3 12.1 C 4.8 km/h
120 04-05-2020 09:55:00 12.2 C 10.04 g/m*3 12.2 C 4.8 km/h
121 04-05-2020 10:00:00 12.4 C 10.05 g/m*3 12.4 C 4.8 km/h
122 04-05-2020 10:05:00 12.6 C 10.18 g/m*3 12.6 C 6.4 km/h
123 04-05-2020 10:10:00 12.7 C 10.24 g/m*3 12.7 C 3.2 km/h
124 04-05-2020 10:15:00 12.9 C 10.26 g/m*3 12.9 C 4.8 km/h
125 04-05-2020 10:20:00 12.9 C 10.14 g/m*3 12.9 C 8.1 km/h
Sensor: Nr:Datum:Temp:Abs-Feuchte:Windchill:Wind:
Aussen-T/F 126 04-05-2020 10:25:00 13.1 C 10.27 g/m*3 13.1 C 6.4 km/h
127 04-05-2020 10:30:00 13.3 C 10.51 g/m*3 13.3 C 8.1 km/h
128 04-05-2020 10:35:00 13.5 C 10.41 g/m*3 13.5 C 8.1 km/h
129 04-05-2020 10:40:00 13.7 C 10.54 g/m*3 13.7 C 8.1 km/h
130 04-05-2020 10:45:00 13.7 C 10.54 g/m*3 13.7 C 8.1 km/h
131 04-05-2020 10:50:00 13.8 C 10.48 g/m*3 13.8 C 4.8 km/h
132 04-05-2020 10:55:00 13.9 C 10.67 g/m*3 13.9 C 6.4 km/h
133 04-05-2020 11:00:00 13.9 C 10.55 g/m*3 13.9 C 3.2 km/h
134 04-05-2020 11:05:00 13.8 C 10.48 g/m*3 13.8 C 6.4 km/h
135 04-05-2020 11:10:00 13.8 C 10.6 g/m*3 13.8 C 1.6 km/h
136 04-05-2020 11:15:00 13.7 C 10.54 g/m*3 13.7 C 3.2 km/h
137 04-05-2020 11:20:00 13.6 C 10.47 g/m*3 13.6 C 6.4 km/h
138 04-05-2020 11:25:00 13.4 C 10.46 g/m*3 13.4 C 9.7 km/h
139 04-05-2020 11:30:00 13.2 C 10.22 g/m*3 13.2 C 9.7 km/h
140 04-05-2020 11:35:00 12.9 C 10.14 g/m*3 12.9 C 4.8 km/h
141 04-05-2020 11:40:00 12.8 C 10.08 g/m*3 12.8 C 8.1 km/h
142 04-05-2020 11:45:00 12.7 C 10.13 g/m*3 12.7 C 6.4 km/h
143 04-05-2020 11:50:00 12.6 C 10.07 g/m*3 12.6 C 8.1 km/h
144 04-05-2020 11:55:00 12.4 C 9.94 g/m*3 12.4 C 9.7 km/h
145 04-05-2020 12:00:00 12.3 C 9.99 g/m*3 12.3 C 3.2 km/h
146 04-05-2020 12:05:00 12.3 C 9.99 g/m*3 12.3 C 4.8 km/h
147 04-05-2020 12:10:00 12.3 C 9.99 g/m*3 12.3 C 4.8 km/h
148 04-05-2020 12:15:00 12.3 C 9.99 g/m*3 12.3 C 11.3 km/h
149 04-05-2020 12:20:00 12.4 C 10.05 g/m*3 12.4 C 11.3 km/h
150 04-05-2020 12:25:00 12.6 C 10.29 g/m*3 12.6 C 11.3 km/h
Sensor: Nr:Datum:Temp:Abs-Feuchte:Windchill:Wind:
Aussen-T/F 151 04-05-2020 12:30:00 12.8 C 10.42 g/m*3 12.8 C 9.7 km/h
152 04-05-2020 12:35:00 12.9 C 10.37 g/m*3 12.9 C 12.9 km/h
153 04-05-2020 12:40:00 12.9 C 10.26 g/m*3 12.9 C 8.1 km/h
154 04-05-2020 12:45:00 13 C 10.32 g/m*3 13 C 12.9 km/h
155 04-05-2020 12:50:00 12.9 C 10.26 g/m*3 12.9 C 11.3 km/h
156 04-05-2020 12:55:00 13.1 C 10.38 g/m*3 13.1 C 6.4 km/h
157 04-05-2020 13:00:00 13.3 C 10.63 g/m*3 13.3 C 9.7 km/h
158 04-05-2020 13:05:00 13.4 C 10.58 g/m*3 13.4 C 8.1 km/h
159 04-05-2020 13:10:00 13.4 C 10.35 g/m*3 13.4 C 6.4 km/h
160 04-05-2020 13:15:00 13.4 C 10.23 g/m*3 13.4 C 1.6 km/h
161 04-05-2020 13:20:00 13.7 C 10.42 g/m*3 13.7 C 12.9 km/h
162 04-05-2020 13:25:00 13.9 C 10.19 g/m*3 13.9 C 8.1 km/h
163 04-05-2020 13:30:00 14.1 C 10.19 g/m*3 14.1 C 8.1 km/h
164 04-05-2020 13:35:00 14.3 C 10.32 g/m*3 14.3 C 8.1 km/h
165 04-05-2020 13:40:00 14.6 C 10.51 g/m*3 14.6 C 6.4 km/h
166 04-05-2020 13:45:00 14.7 C 10.32 g/m*3 14.7 C 11.3 km/h
167 04-05-2020 13:50:00 14.7 C 10.2 g/m*3 14.7 C 6.4 km/h
168 04-05-2020 13:55:00 14.6 C 10.26 g/m*3 14.6 C 6.4 km/h
169 04-05-2020 14:00:00 14.6 C 10.39 g/m*3 14.6 C 8.1 km/h
170 04-05-2020 14:05:00 14.5 C 10.07 g/m*3 14.5 C 11.3 km/h
171 04-05-2020 14:10:00 14.5 C 10.07 g/m*3 14.5 C 9.7 km/h
172 04-05-2020 14:15:00 14.6 C 10.26 g/m*3 14.6 C 12.9 km/h
173 04-05-2020 14:20:00 14.8 C 10.39 g/m*3 14.8 C 16.1 km/h
174 04-05-2020 14:25:00 14.9 C 10.32 g/m*3 14.9 C 16.1 km/h
175 04-05-2020 14:30:00 15 C 10.39 g/m*3 15 C 9.7 km/h
Sensor: Nr:Datum:Temp:Abs-Feuchte:Windchill:Wind:
Aussen-T/F 176 04-05-2020 14:35:00 15.1 C 10.45 g/m*3 15.1 C 11.3 km/h
177 04-05-2020 14:40:00 14.9 C 10.2 g/m*3 14.9 C 14.5 km/h
178 04-05-2020 14:45:00 14.7 C 9.95 g/m*3 14.7 C 14.5 km/h
179 04-05-2020 14:50:00 14.6 C 10.01 g/m*3 14.6 C 11.3 km/h
180 04-05-2020 14:55:00 14.5 C 10.07 g/m*3 14.5 C 9.7 km/h
181 04-05-2020 15:00:00 14.4 C 10.01 g/m*3 14.4 C 9.7 km/h
182 04-05-2020 15:05:00 14.3 C 10.07 g/m*3 14.3 C 9.7 km/h
183 04-05-2020 15:10:00 14.3 C 10.07 g/m*3 14.3 C 11.3 km/h
184 04-05-2020 15:15:00 14.3 C 10.07 g/m*3 14.3 C 6.4 km/h
185 04-05-2020 15:20:00 14.3 C 10.07 g/m*3 14.3 C 8.1 km/h
186 04-05-2020 15:25:00 14.4 C 9.89 g/m*3 14.4 C 8.1 km/h
187 04-05-2020 15:30:00 14.3 C 9.71 g/m*3 14.3 C 8.1 km/h
188 04-05-2020 15:35:00 14.2 C 9.65 g/m*3 14.2 C 8.1 km/h
189 04-05-2020 15:40:00 14.2 C 9.65 g/m*3 14.2 C 9.7 km/h
190 04-05-2020 15:45:00 14.3 C 9.58 g/m*3 14.3 C 6.4 km/h
191 04-05-2020 15:50:00 14.4 C 9.64 g/m*3 14.4 C 9.7 km/h
192 04-05-2020 15:55:00 14.6 C 9.76 g/m*3 14.6 C 11.3 km/h
193 04-05-2020 16:00:00 14.7 C 9.82 g/m*3 14.7 C 9.7 km/h
194 04-05-2020 16:05:00 14.7 C 9.44 g/m*3 14.7 C 11.3 km/h
195 04-05-2020 16:10:00 14.7 C 9.32 g/m*3 14.7 C 12.9 km/h
196 04-05-2020 16:15:00 14.8 C 9.5 g/m*3 14.8 C 11.3 km/h
197 04-05-2020 16:20:00 14.8 C 9.37 g/m*3 14.8 C 9.7 km/h
198 04-05-2020 16:25:00 14.7 C 9.32 g/m*3 14.7 C 11.3 km/h
199 04-05-2020 16:30:00 14.4 C 8.9 g/m*3 14.4 C 12.9 km/h
200 04-05-2020 16:35:00 14.3 C 8.97 g/m*3 14.3 C 12.9 km/h
Sensor: Nr:Datum:Temp:Abs-Feuchte:Windchill:Wind:
Aussen-T/F 201 04-05-2020 16:40:00 14.4 C 9.27 g/m*3 14.4 C 9.7 km/h
202 04-05-2020 16:45:00 14.4 C 9.15 g/m*3 14.4 C 9.7 km/h
203 04-05-2020 16:50:00 14.6 C 9.13 g/m*3 14.6 C 14.5 km/h
204 04-05-2020 16:55:00 14.6 C 9.13 g/m*3 14.6 C 11.3 km/h
205 04-05-2020 17:00:00 14.5 C 8.95 g/m*3 14.5 C 12.9 km/h
206 04-05-2020 17:05:00 14.4 C 9.02 g/m*3 14.4 C 16.1 km/h
207 04-05-2020 17:10:00 14.4 C 8.9 g/m*3 14.4 C 12.9 km/h
208 04-05-2020 17:15:00 14.3 C 8.97 g/m*3 14.3 C 12.9 km/h
209 04-05-2020 17:20:00 14.3 C 9.09 g/m*3 14.3 C 11.3 km/h
210 04-05-2020 17:25:00 14.3 C 8.97 g/m*3 14.3 C 6.4 km/h
211 04-05-2020 17:30:00 14.3 C 8.85 g/m*3 14.3 C 6.4 km/h
212 04-05-2020 17:35:00 14.3 C 8.97 g/m*3 14.3 C 11.3 km/h
213 04-05-2020 17:40:00 14.2 C 8.55 g/m*3 14.2 C 12.9 km/h
214 04-05-2020 17:45:00 14.2 C 8.67 g/m*3 14.2 C 11.3 km/h
215 04-05-2020 17:50:00 14.2 C 8.79 g/m*3 14.2 C 9.7 km/h
216 04-05-2020 17:55:00 14.2 C 8.67 g/m*3 14.2 C 11.3 km/h
217 04-05-2020 18:00:00 14.2 C 8.55 g/m*3 14.2 C 6.4 km/h
218 04-05-2020 18:05:00 14.3 C 8.6 g/m*3 14.3 C 9.7 km/h
219 04-05-2020 18:10:00 14.3 C 8.6 g/m*3 14.3 C 6.4 km/h
220 04-05-2020 18:15:00 14.3 C 8.6 g/m*3 14.3 C 4.8 km/h
221 04-05-2020 18:20:00 14.2 C 8.43 g/m*3 14.2 C 3.2 km/h
222 04-05-2020 18:25:00 14.1 C 8.62 g/m*3 14.1 C 4.8 km/h
223 04-05-2020 18:30:00 14 C 8.44 g/m*3 14 C 6.4 km/h
224 04-05-2020 18:35:00 14 C 8.93 g/m*3 14 C 1.6 km/h
225 04-05-2020 18:40:00 13.9 C 8.51 g/m*3 13.9 C 6.4 km/h
Sensor: Nr:Datum:Temp:Abs-Feuchte:Windchill:Wind:
Aussen-T/F 226 04-05-2020 18:45:00 13.8 C 8.34 g/m*3 13.8 C 4.8 km/h
227 04-05-2020 18:50:00 13.8 C 8.34 g/m*3 13.8 C 6.4 km/h
228 04-05-2020 18:55:00 13.8 C 8.34 g/m*3 13.8 C 4.8 km/h
229 04-05-2020 19:00:00 13.8 C 8.34 g/m*3 13.8 C 3.2 km/h
230 04-05-2020 19:05:00 13.8 C 9.06 g/m*3 13.8 C 0 km/h
231 04-05-2020 19:10:00 13.8 C 8.94 g/m*3 13.8 C 0 km/h
232 04-05-2020 19:15:00 13.7 C 9 g/m*3 13.7 C 0 km/h
233 04-05-2020 19:20:00 13.6 C 8.94 g/m*3 13.6 C 0 km/h
234 04-05-2020 19:25:00 13.4 C 8.6 g/m*3 13.4 C 3.2 km/h
235 04-05-2020 19:30:00 13.3 C 8.78 g/m*3 13.3 C 1.6 km/h
236 04-05-2020 19:35:00 13.3 C 9.24 g/m*3 13.3 C 0 km/h
237 04-05-2020 19:40:00 13.3 C 9.36 g/m*3 13.3 C 0 km/h
238 04-05-2020 19:45:00 13.2 C 9.19 g/m*3 13.2 C 0 km/h
239 04-05-2020 19:50:00 13.1 C 9.36 g/m*3 13.1 C 0 km/h
240 04-05-2020 19:55:00 13.1 C 9.47 g/m*3 13.1 C 0 km/h
241 04-05-2020 20:00:00 13.1 C 9.36 g/m*3 13.1 C 0 km/h
242 04-05-2020 20:05:00 13 C 9.3 g/m*3 13 C 0 km/h
243 04-05-2020 20:10:00 13 C 9.3 g/m*3 13 C 0 km/h
244 04-05-2020 20:15:00 12.9 C 9.35 g/m*3 12.9 C 0 km/h
245 04-05-2020 20:20:00 12.9 C 9.47 g/m*3 12.9 C 0 km/h
246 04-05-2020 20:25:00 12.8 C 9.41 g/m*3 12.8 C 0 km/h
247 04-05-2020 20:30:00 12.6 C 9.18 g/m*3 12.6 C 0 km/h
248 04-05-2020 20:35:00 12.4 C 9.07 g/m*3 12.4 C 0 km/h
249 04-05-2020 20:40:00 12.2 C 8.52 g/m*3 12.2 C 6.4 km/h
250 04-05-2020 20:45:00 12.2 C 8.52 g/m*3 12.2 C 4.8 km/h
Sensor: Nr:Datum:Temp:Abs-Feuchte:Windchill:Wind:
Aussen-T/F 251 04-05-2020 20:50:00 12.2 C 8.74 g/m*3 12.2 C 4.8 km/h
252 04-05-2020 20:55:00 12.1 C 8.69 g/m*3 12.1 C 4.8 km/h
253 04-05-2020 21:00:00 11.9 C 8.47 g/m*3 11.9 C 1.6 km/h
254 04-05-2020 21:05:00 11.7 C 8.37 g/m*3 11.7 C 0 km/h
255 04-05-2020 21:10:00 11.4 C 8.21 g/m*3 11.4 C 1.6 km/h
256 04-05-2020 21:15:00 11.1 C 7.96 g/m*3 11.1 C 1.6 km/h
257 04-05-2020 21:20:00 10.8 C 7.81 g/m*3 10.8 C 0 km/h
258 04-05-2020 21:25:00 10.6 C 7.71 g/m*3 10.6 C 0 km/h
259 04-05-2020 21:30:00 10.3 C 7.57 g/m*3 10.3 C 1.6 km/h
260 04-05-2020 21:35:00 10.1 C 7.56 g/m*3 10.1 C 0 km/h
261 04-05-2020 21:40:00 9.9 C 7.38 g/m*3 9.9 C 1.6 km/h
262 04-05-2020 21:45:00 9.7 C 7.47 g/m*3 9.7 C 1.6 km/h
263 04-05-2020 21:50:00 9.6 C 7.42 g/m*3 9.6 C 0 km/h
264 04-05-2020 21:55:00 9.4 C 7.33 g/m*3 9.4 C 3.2 km/h
265 04-05-2020 22:00:00 9.2 C 7.23 g/m*3 9.2 C 4.8 km/h
266 04-05-2020 22:05:00 9.1 C 7.19 g/m*3 9.1 C 3.2 km/h
267 04-05-2020 22:10:00 9 C 7.14 g/m*3 9 C 3.2 km/h
268 04-05-2020 22:15:00 8.9 C 7.18 g/m*3 8.9 C 0 km/h
269 04-05-2020 22:20:00 8.8 C 7.14 g/m*3 8.8 C 0 km/h
270 04-05-2020 22:25:00 8.6 C 7.13 g/m*3 8.6 C 0 km/h
271 04-05-2020 22:30:00 8.5 C 7.17 g/m*3 8.5 C 0 km/h
272 04-05-2020 22:35:00 8.3 C 7.16 g/m*3 8.3 C 0 km/h
273 04-05-2020 22:40:00 8.2 C 7.12 g/m*3 8.2 C 0 km/h
274 04-05-2020 22:45:00 8.1 C 7.16 g/m*3 8.1 C 0 km/h
275 04-05-2020 22:50:00 8 C 7.11 g/m*3 8 C 0 km/h
Sensor: Nr:Datum:Temp:Abs-Feuchte:Windchill:Wind:
Aussen-T/F 276 04-05-2020 22:55:00 7.9 C 7.15 g/m*3 7.9 C 0 km/h
277 04-05-2020 23:00:00 7.8 C 7.1 g/m*3 7.8 C 1.6 km/h
278 04-05-2020 23:05:00 7.6 C 7.01 g/m*3 7.6 C 0 km/h
279 04-05-2020 23:10:00 7.6 C 7.01 g/m*3 7.6 C 1.6 km/h
280 04-05-2020 23:15:00 7.4 C 6.92 g/m*3 7.4 C 3.2 km/h
281 04-05-2020 23:20:00 7.3 C 6.87 g/m*3 7.3 C 3.2 km/h
282 04-05-2020 23:25:00 7.2 C 6.83 g/m*3 7.2 C 3.2 km/h
283 04-05-2020 23:30:00 7.2 C 6.83 g/m*3 7.2 C 3.2 km/h
284 04-05-2020 23:35:00 7.1 C 6.79 g/m*3 7.1 C 3.2 km/h
285 04-05-2020 23:40:00 7.1 C 6.79 g/m*3 7.1 C 3.2 km/h
286 04-05-2020 23:45:00 7 C 6.74 g/m*3 7 C 1.6 km/h
287 04-05-2020 23:50:00 6.9 C 6.77 g/m*3 6.9 C 1.6 km/h
288 04-05-2020 23:55:00 6.9 C 6.77 g/m*3 6.9 C 3.2 km/h
289 05-05-2020 00:00:00 6.8 C 6.73 g/m*3 6.8 C 3.2 km/h
290 05-05-2020 00:05:00 6.7 C 6.69 g/m*3 6.7 C 3.2 km/h
291 05-05-2020 00:10:00 6.7 C 6.69 g/m*3 6.7 C 1.6 km/h
292 05-05-2020 00:15:00 6.6 C 6.64 g/m*3 6.6 C 3.2 km/h
293 05-05-2020 00:20:00 6.5 C 6.67 g/m*3 6.5 C 1.6 km/h
294 05-05-2020 00:25:00 6.4 C 6.63 g/m*3 6.4 C 0 km/h
295 05-05-2020 00:30:00 6.4 C 6.63 g/m*3 6.4 C 0 km/h
296 05-05-2020 00:35:00 6.3 C 6.66 g/m*3 6.3 C 0 km/h
297 05-05-2020 00:40:00 6.2 C 6.62 g/m*3 6.2 C 0 km/h
298 05-05-2020 00:45:00 6.2 C 6.62 g/m*3 6.2 C 1.6 km/h
299 05-05-2020 00:50:00 6.1 C 6.58 g/m*3 6.1 C 1.6 km/h
300 05-05-2020 00:55:00 6 C 6.6 g/m*3 6 C 0 km/h
Sensor: Nr:Datum:Temp:Abs-Feuchte:Windchill:Wind:
Aussen-T/F 301 05-05-2020 01:00:00 6 C 6.6 g/m*3 6 C 0 km/h
302 05-05-2020 01:05:00 5.9 C 6.56 g/m*3 5.9 C 0 km/h
303 05-05-2020 01:10:00 5.8 C 6.52 g/m*3 5.8 C 0 km/h
304 05-05-2020 01:15:00 5.8 C 6.52 g/m*3 5.8 C 0 km/h
305 05-05-2020 01:20:00 5.7 C 6.48 g/m*3 5.7 C 0 km/h
306 05-05-2020 01:25:00 5.7 C 6.48 g/m*3 5.7 C 0 km/h
307 05-05-2020 01:30:00 5.7 C 6.48 g/m*3 5.7 C 0 km/h
308 05-05-2020 01:35:00 5.6 C 6.43 g/m*3 5.6 C 0 km/h
309 05-05-2020 01:40:00 5.5 C 6.39 g/m*3 5.5 C 0 km/h
310 05-05-2020 01:45:00 5.3 C 6.38 g/m*3 5.3 C 0 km/h
311 05-05-2020 01:50:00 5.3 C 6.31 g/m*3 5.3 C 0 km/h
312 05-05-2020 01:55:00 5.2 C 6.33 g/m*3 5.2 C 0 km/h
313 05-05-2020 02:00:00 5.1 C 6.29 g/m*3 5.1 C 0 km/h
314 05-05-2020 02:05:00 5.1 C 6.29 g/m*3 5.1 C 0 km/h
315 05-05-2020 02:10:00 5 C 6.25 g/m*3 5 C 0 km/h
316 05-05-2020 02:15:00 4.9 C 6.28 g/m*3 4.9 C 0 km/h
317 05-05-2020 02:20:00 4.9 C 6.28 g/m*3 4.9 C 0 km/h
318 05-05-2020 02:25:00 4.9 C 6.28 g/m*3 4.9 C 0 km/h
319 05-05-2020 02:30:00 4.9 C 6.28 g/m*3 4.9 C 0 km/h
320 05-05-2020 02:35:00 4.9 C 6.28 g/m*3 4.9 C 0 km/h
321 05-05-2020 02:40:00 4.8 C 6.24 g/m*3 4.8 C 0 km/h
322 05-05-2020 02:45:00 4.8 C 6.24 g/m*3 4.8 C 0 km/h
323 05-05-2020 02:50:00 4.8 C 6.24 g/m*3 4.8 C 0 km/h
324 05-05-2020 02:55:00 4.7 C 6.19 g/m*3 4.7 C 0 km/h
325 05-05-2020 03:00:00 4.7 C 6.19 g/m*3 4.7 C 0 km/h
Sensor: Nr:Datum:Temp:Abs-Feuchte:Windchill:Wind:
Aussen-T/F 326 05-05-2020 03:05:00 4.7 C 6.26 g/m*3 4.7 C 3.2 km/h
327 05-05-2020 03:10:00 4.8 C 6.3 g/m*3 4.8 C 1.6 km/h
328 05-05-2020 03:15:00 4.8 C 6.3 g/m*3 4.8 C 0 km/h
329 05-05-2020 03:20:00 4.8 C 6.3 g/m*3 4.8 C 1.6 km/h
330 05-05-2020 03:25:00 4.8 C 6.3 g/m*3 4.8 C 0 km/h
331 05-05-2020 03:30:00 4.9 C 6.35 g/m*3 4.9 C 0 km/h
332 05-05-2020 03:35:00 4.9 C 6.35 g/m*3 4.9 C 0 km/h
333 05-05-2020 03:40:00 4.9 C 6.35 g/m*3 4.9 C 0 km/h
334 05-05-2020 03:45:00 4.9 C 6.35 g/m*3 4.9 C 0 km/h
335 05-05-2020 03:50:00 4.8 C 6.3 g/m*3 4.8 C 0 km/h
336 05-05-2020 03:55:00 4.8 C 6.3 g/m*3 4.8 C 0 km/h
337 05-05-2020 04:00:00 4.8 C 6.3 g/m*3 4.8 C 0 km/h
338 05-05-2020 04:05:00 4.8 C 6.3 g/m*3 4.8 C 0 km/h
339 05-05-2020 04:10:00 4.7 C 6.26 g/m*3 4.7 C 0 km/h
340 05-05-2020 04:15:00 4.7 C 6.26 g/m*3 4.7 C 0 km/h
341 05-05-2020 04:20:00 4.6 C 6.22 g/m*3 4.6 C 0 km/h
342 05-05-2020 04:25:00 4.6 C 6.22 g/m*3 4.6 C 0 km/h
343 05-05-2020 04:30:00 4.4 C 6.14 g/m*3 4.4 C 0 km/h
344 05-05-2020 04:35:00 4.4 C 6.14 g/m*3 4.4 C 0 km/h
345 05-05-2020 04:40:00 4.3 C 6.1 g/m*3 4.3 C 0 km/h
346 05-05-2020 04:45:00 4.3 C 6.1 g/m*3 4.3 C 0 km/h
347 05-05-2020 04:50:00 4.3 C 6.16 g/m*3 4.3 C 0 km/h
348 05-05-2020 04:55:00 4.3 C 6.16 g/m*3 4.3 C 0 km/h
349 05-05-2020 05:00:00 4.3 C 6.16 g/m*3 4.3 C 0 km/h
350 05-05-2020 05:05:00 4.2 C 6.12 g/m*3 4.2 C 0 km/h
Sensor: Nr:Datum:Temp:Abs-Feuchte:Windchill:Wind:
Aussen-T/F 351 05-05-2020 05:10:00 4.2 C 6.12 g/m*3 4.2 C 0 km/h
352 05-05-2020 05:15:00 4.3 C 6.16 g/m*3 4.3 C 0 km/h
353 05-05-2020 05:20:00 4.3 C 6.16 g/m*3 4.3 C 0 km/h
354 05-05-2020 05:25:00 4.3 C 6.16 g/m*3 4.3 C 0 km/h
355 05-05-2020 05:30:00 4.3 C 6.16 g/m*3 4.3 C 0 km/h
356 05-05-2020 05:35:00 4.2 C 6.12 g/m*3 4.2 C 0 km/h
357 05-05-2020 05:40:00 4.2 C 6.12 g/m*3 4.2 C 0 km/h
358 05-05-2020 05:45:00 4.2 C 6.12 g/m*3 4.2 C 0 km/h
359 05-05-2020 05:50:00 4.1 C 6.08 g/m*3 4.1 C 0 km/h
360 05-05-2020 05:55:00 4.2 C 6.12 g/m*3 4.2 C 0 km/h
361 05-05-2020 06:00:00 4.2 C 6.12 g/m*3 4.2 C 0 km/h
362 05-05-2020 06:05:00 4.2 C 6.12 g/m*3 4.2 C 0 km/h
363 05-05-2020 06:10:00 4.2 C 6.12 g/m*3 4.2 C 0 km/h
364 05-05-2020 06:15:00 4.2 C 6.12 g/m*3 4.2 C 0 km/h
365 05-05-2020 06:20:00 4.2 C 6.12 g/m*3 4.2 C 0 km/h
366 05-05-2020 06:25:00 4.3 C 6.16 g/m*3 4.3 C 0 km/h
367 05-05-2020 06:30:00 4.4 C 6.2 g/m*3 4.4 C 0 km/h
368 05-05-2020 06:35:00 4.4 C 6.2 g/m*3 4.4 C 0 km/h
369 05-05-2020 06:40:00 4.5 C 6.31 g/m*3 4.5 C 0 km/h
370 05-05-2020 06:45:00 4.6 C 6.35 g/m*3 4.6 C 0 km/h
371 05-05-2020 06:50:00 4.7 C 6.39 g/m*3 4.7 C 0 km/h
372 05-05-2020 06:55:00 4.8 C 6.44 g/m*3 4.8 C 0 km/h
373 05-05-2020 07:00:00 4.8 C 6.44 g/m*3 4.8 C 0 km/h
374 05-05-2020 07:05:00 4.9 C 6.48 g/m*3 4.9 C 0 km/h
375 05-05-2020 07:10:00 5 C 6.52 g/m*3 5 C 0 km/h
Sensor: Nr:Datum:Temp:Abs-Feuchte:Windchill:Wind:
Aussen-T/F 376 05-05-2020 07:15:00 5.2 C 6.61 g/m*3 5.2 C 0 km/h
377 05-05-2020 07:20:00 5.2 C 6.61 g/m*3 5.2 C 0 km/h
378 05-05-2020 07:25:00 5.3 C 6.65 g/m*3 5.3 C 0 km/h
379 05-05-2020 07:30:00 5.4 C 6.7 g/m*3 5.4 C 0 km/h
380 05-05-2020 07:35:00 5.5 C 6.74 g/m*3 5.5 C 0 km/h
381 05-05-2020 07:40:00 5.7 C 6.83 g/m*3 5.7 C 0 km/h
382 05-05-2020 07:45:00 5.7 C 6.83 g/m*3 5.7 C 0 km/h
383 05-05-2020 07:50:00 5.9 C 6.92 g/m*3 5.9 C 0 km/h
384 05-05-2020 07:55:00 6 C 6.97 g/m*3 6 C 0 km/h
385 05-05-2020 08:00:00 6.1 C 7.01 g/m*3 6.1 C 0 km/h
386 05-05-2020 08:05:00 6.2 C 7.06 g/m*3 6.2 C 0 km/h
387 05-05-2020 08:10:00 6.2 C 7.06 g/m*3 6.2 C 0 km/h
388 05-05-2020 08:15:00 6.3 C 7.11 g/m*3 6.3 C 0 km/h
389 05-05-2020 08:20:00 6.5 C 7.2 g/m*3 6.5 C 0 km/h
390 05-05-2020 08:25:00 6.6 C 7.25 g/m*3 6.6 C 0 km/h
391 05-05-2020 08:30:00 6.7 C 7.29 g/m*3 6.7 C 0 km/h
392 05-05-2020 08:35:00 6.7 C 7.29 g/m*3 6.7 C 0 km/h
393 05-05-2020 08:40:00 6.7 C 7.22 g/m*3 6.7 C 0 km/h
394 05-05-2020 08:45:00 6.7 C 7.22 g/m*3 6.7 C 4.8 km/h
395 05-05-2020 08:50:00 6.8 C 7.27 g/m*3 6.8 C 1.6 km/h
396 05-05-2020 08:55:00 7 C 7.36 g/m*3 7 C 3.2 km/h
397 05-05-2020 09:00:00 7.1 C 7.33 g/m*3 7.1 C 3.2 km/h
398 05-05-2020 09:05:00 7.2 C 7.3 g/m*3 7.2 C 3.2 km/h
399 05-05-2020 09:10:00 7.4 C 7.32 g/m*3 5.93 C 8.1 km/h
400 05-05-2020 09:15:00 7.6 C 7.25 g/m*3 5.82 C 9.7 km/h
Sensor: Nr:Datum:Temp:Abs-Feuchte:Windchill:Wind:
Aussen-T/F 401 05-05-2020 09:20:00 7.7 C 7.22 g/m*3 6.71 C 6.4 km/h
402 05-05-2020 09:25:00 7.9 C 7.23 g/m*3 7.9 C 4.8 km/h
403 05-05-2020 09:30:00 8 C 7.28 g/m*3 8 C 3.2 km/h
404 05-05-2020 09:35:00 8.2 C 7.29 g/m*3 7.29 C 6.4 km/h
405 05-05-2020 09:40:00 8.2 C 7.2 g/m*3 8.2 C 4.8 km/h
406 05-05-2020 09:45:00 8.3 C 7.25 g/m*3 7.41 C 6.4 km/h
407 05-05-2020 09:50:00 8.6 C 7.3 g/m*3 8.6 C 4.8 km/h
408 05-05-2020 09:55:00 8.7 C 7.26 g/m*3 7.87 C 6.4 km/h
409 05-05-2020 10:00:00 8.9 C 7.27 g/m*3 7.69 C 8.1 km/h
410 05-05-2020 10:05:00 8.9 C 7.1 g/m*3 7.69 C 8.1 km/h
411 05-05-2020 10:10:00 9.1 C 7.1 g/m*3 9.1 C 1.6 km/h
412 05-05-2020 10:15:00 9.2 C 7.14 g/m*3 9.2 C 3.2 km/h
413 05-05-2020 10:20:00 9.4 C 7.05 g/m*3 8.28 C 8.1 km/h
414 05-05-2020 10:25:00 9.6 C 7.05 g/m*3 8.52 C 8.1 km/h
415 05-05-2020 10:30:00 9.8 C 6.96 g/m*3 9.14 C 6.4 km/h
416 05-05-2020 10:35:00 10 C 7.14 g/m*3 8.99 C 8.1 km/h
417 05-05-2020 10:40:00 10.1 C 6.9 g/m*3 10.1 C 4.8 km/h
418 05-05-2020 10:45:00 10.2 C 6.95 g/m*3 10.2 C 4.8 km/h
419 05-05-2020 10:50:00 10.3 C 7.09 g/m*3 10.3 C 3.2 km/h
420 05-05-2020 10:55:00 10.6 C 7.03 g/m*3 10.06 C 6.4 km/h
421 05-05-2020 11:00:00 10.9 C 6.96 g/m*3 9.76 C 9.7 km/h
422 05-05-2020 11:05:00 11.2 C 6.89 g/m*3 11.2 C 11.3 km/h
423 05-05-2020 11:10:00 11.4 C 6.88 g/m*3 11.4 C 9.7 km/h
424 05-05-2020 11:15:00 11.6 C 6.86 g/m*3 11.6 C 8.1 km/h
425 05-05-2020 11:20:00 11.7 C 7.11 g/m*3 11.7 C 6.4 km/h
Sensor: Nr:Datum:Temp:Abs-Feuchte:Windchill:Wind:
Aussen-T/F 426 05-05-2020 11:25:00 11.9 C 6.99 g/m*3 11.9 C 6.4 km/h
427 05-05-2020 11:30:00 12.1 C 6.97 g/m*3 12.1 C 4.8 km/h
428 05-05-2020 11:35:00 12.1 C 7.08 g/m*3 12.1 C 6.4 km/h
429 05-05-2020 11:40:00 12.2 C 7.23 g/m*3 12.2 C 8.1 km/h
430 05-05-2020 11:45:00 12.3 C 7.17 g/m*3 12.3 C 11.3 km/h
431 05-05-2020 11:50:00 12.4 C 7.1 g/m*3 12.4 C 8.1 km/h
432 05-05-2020 11:55:00 12.5 C 7.15 g/m*3 12.5 C 9.7 km/h
433 05-05-2020 12:00:00 12.6 C 6.97 g/m*3 12.6 C 8.1 km/h
434 05-05-2020 12:05:00 12.7 C 7.24 g/m*3 12.7 C 6.4 km/h
435 05-05-2020 12:10:00 12.7 C 7.12 g/m*3 12.7 C 4.8 km/h
436 05-05-2020 12:15:00 12.8 C 7.06 g/m*3 12.8 C 9.7 km/h
437 05-05-2020 12:20:00 13 C 7.14 g/m*3 13 C 11.3 km/h
438 05-05-2020 12:25:00 13.1 C 7.07 g/m*3 13.1 C 6.4 km/h
439 05-05-2020 12:30:00 13 C 7.03 g/m*3 13 C 6.4 km/h
440 05-05-2020 12:35:00 12.8 C 7.06 g/m*3 12.8 C 9.7 km/h
441 05-05-2020 12:40:00 12.8 C 7.17 g/m*3 12.8 C 6.4 km/h
442 05-05-2020 12:45:00 12.8 C 7.06 g/m*3 12.8 C 6.4 km/h
443 05-05-2020 12:50:00 12.8 C 7.17 g/m*3 12.8 C 6.4 km/h
444 05-05-2020 12:55:00 12.8 C 7.17 g/m*3 12.8 C 8.1 km/h
445 05-05-2020 13:00:00 12.9 C 6.88 g/m*3 12.9 C 6.4 km/h
446 05-05-2020 13:05:00 12.9 C 6.76 g/m*3 12.9 C 9.7 km/h
447 05-05-2020 13:10:00 12.9 C 6.99 g/m*3 12.9 C 6.4 km/h
448 05-05-2020 13:15:00 13.1 C 7.07 g/m*3 13.1 C 8.1 km/h
449 05-05-2020 13:20:00 13.1 C 6.85 g/m*3 13.1 C 6.4 km/h
450 05-05-2020 13:25:00 13.2 C 6.89 g/m*3 13.2 C 8.1 km/h
Sensor: Nr:Datum:Temp:Abs-Feuchte:Windchill:Wind:
Aussen-T/F 451 05-05-2020 13:30:00 13.3 C 7.05 g/m*3 13.3 C 6.4 km/h
452 05-05-2020 13:35:00 13.5 C 6.9 g/m*3 13.5 C 6.4 km/h
453 05-05-2020 13:40:00 13.6 C 7.18 g/m*3 13.6 C 3.2 km/h
454 05-05-2020 13:45:00 13.8 C 6.91 g/m*3 13.8 C 6.4 km/h
455 05-05-2020 13:50:00 13.9 C 6.95 g/m*3 13.9 C 9.7 km/h
456 05-05-2020 13:55:00 14.1 C 7.16 g/m*3 14.1 C 8.1 km/h
457 05-05-2020 14:00:00 14.1 C 6.92 g/m*3 14.1 C 11.3 km/h
458 05-05-2020 14:05:00 14 C 7.12 g/m*3 14 C 8.1 km/h
459 05-05-2020 14:10:00 13.8 C 6.67 g/m*3 13.8 C 3.2 km/h
460 05-05-2020 14:15:00 13.7 C 6.51 g/m*3 13.7 C 6.4 km/h
461 05-05-2020 14:20:00 13.7 C 6.39 g/m*3 13.7 C 9.7 km/h
462 05-05-2020 14:25:00 13.8 C 6.43 g/m*3 13.8 C 4.8 km/h
463 05-05-2020 14:30:00 14.1 C 6.67 g/m*3 14.1 C 6.4 km/h
464 05-05-2020 14:35:00 14.1 C 6.31 g/m*3 14.1 C 4.8 km/h
465 05-05-2020 14:40:00 14.2 C 6.47 g/m*3 14.2 C 4.8 km/h
466 05-05-2020 14:45:00 14.2 C 6.47 g/m*3 14.2 C 11.3 km/h
467 05-05-2020 14:50:00 14.6 C 6.26 g/m*3 14.6 C 6.4 km/h
468 05-05-2020 14:55:00 14.8 C 5.7 g/m*3 14.8 C 9.7 km/h
469 05-05-2020 15:00:00 15.2 C 5.97 g/m*3 15.2 C 11.3 km/h
470 05-05-2020 15:05:00 15.5 C 6.21 g/m*3 15.5 C 11.3 km/h
471 05-05-2020 15:10:00 15.8 C 6.19 g/m*3 15.8 C 12.9 km/h
472 05-05-2020 15:15:00 15.9 C 5.69 g/m*3 15.9 C 12.9 km/h
473 05-05-2020 15:20:00 15.8 C 5.92 g/m*3 15.8 C 6.4 km/h
474 05-05-2020 15:25:00 16.1 C 6.03 g/m*3 16.1 C 8.1 km/h
475 05-05-2020 15:30:00 16.3 C 5.69 g/m*3 16.3 C 11.3 km/h
Sensor: Nr:Datum:Temp:Abs-Feuchte:Windchill:Wind:
Aussen-T/F 476 05-05-2020 15:35:00 16.6 C 5.65 g/m*3 16.6 C 12.9 km/h
477 05-05-2020 15:40:00 16.7 C 5.54 g/m*3 16.7 C 16.1 km/h
478 05-05-2020 15:45:00 16.5 C 5.34 g/m*3 16.5 C 11.3 km/h
479 05-05-2020 15:50:00 16.6 C 5.51 g/m*3 16.6 C 9.7 km/h
480 05-05-2020 15:55:00 16.8 C 5.86 g/m*3 16.8 C 12.9 km/h
481 05-05-2020 16:00:00 17.1 C 5.68 g/m*3 17.1 C 8.1 km/h
482 05-05-2020 16:05:00 17.4 C 6.52 g/m*3 17.4 C 6.4 km/h
483 05-05-2020 16:10:00 17.8 C 5.46 g/m*3 17.8 C 11.3 km/h
484 05-05-2020 16:15:00 17.5 C 5.37 g/m*3 17.5 C 16.1 km/h
485 05-05-2020 16:20:00 17.4 C 5.34 g/m*3 17.4 C 14.5 km/h
486 05-05-2020 16:25:00 17.7 C 5.58 g/m*3 17.7 C 6.4 km/h
487 05-05-2020 16:30:00 17.6 C 4.8 g/m*3 17.6 C 11.3 km/h
488 05-05-2020 16:35:00 17.6 C 5.7 g/m*3 17.6 C 6.4 km/h
489 05-05-2020 16:40:00 18 C 5.22 g/m*3 18 C 6.4 km/h
490 05-05-2020 16:45:00 18.1 C 4.94 g/m*3 18.1 C 8.1 km/h
491 05-05-2020 16:50:00 18.2 C 5.13 g/m*3 18.2 C 9.7 km/h
492 05-05-2020 16:55:00 18.2 C 5.13 g/m*3 18.2 C 12.9 km/h
493 05-05-2020 17:00:00 17.8 C 5.01 g/m*3 17.8 C 14.5 km/h
494 05-05-2020 17:05:00 17.7 C 5.13 g/m*3 17.7 C 6.4 km/h
495 05-05-2020 17:10:00 17.9 C 5.04 g/m*3 17.9 C 8.1 km/h
496 05-05-2020 17:15:00 18.1 C 4.79 g/m*3 18.1 C 4.8 km/h
497 05-05-2020 17:20:00 18.3 C 5.16 g/m*3 18.3 C 8.1 km/h
498 05-05-2020 17:25:00 18.3 C 5 g/m*3 18.3 C 9.7 km/h
499 05-05-2020 17:30:00 18.4 C 4.88 g/m*3 18.4 C 11.3 km/h
500 05-05-2020 17:35:00 18.6 C 5.41 g/m*3 18.6 C 11.3 km/h
Sensor: Nr:Datum:Temp:Abs-Feuchte:Windchill:Wind:
Aussen-T/F 501 05-05-2020 17:40:00 18.7 C 4.8 g/m*3 18.7 C 12.9 km/h
502 05-05-2020 17:45:00 18.4 C 4.72 g/m*3 18.4 C 11.3 km/h
503 05-05-2020 17:50:00 18.2 C 5.13 g/m*3 18.2 C 11.3 km/h
504 05-05-2020 17:55:00 18.1 C 4.79 g/m*3 18.1 C 12.9 km/h
505 05-05-2020 18:00:00 18.1 C 4.79 g/m*3 18.1 C 12.9 km/h
506 05-05-2020 18:05:00 17.9 C 4.58 g/m*3 17.9 C 14.5 km/h
507 05-05-2020 18:10:00 17.9 C 4.73 g/m*3 17.9 C 6.4 km/h
508 05-05-2020 18:15:00 18.2 C 4.66 g/m*3 18.2 C 12.9 km/h
509 05-05-2020 18:20:00 18.3 C 4.53 g/m*3 18.3 C 8.1 km/h
510 05-05-2020 18:25:00 18.3 C 4.69 g/m*3 18.3 C 6.4 km/h
511 05-05-2020 18:30:00 18.3 C 4.53 g/m*3 18.3 C 8.1 km/h
512 05-05-2020 18:35:00 18.2 C 4.82 g/m*3 18.2 C 16.1 km/h
513 05-05-2020 18:40:00 18.3 C 4.69 g/m*3 18.3 C 9.7 km/h
514 05-05-2020 18:45:00 18 C 4.61 g/m*3 18 C 9.7 km/h
515 05-05-2020 18:50:00 17.9 C 4.73 g/m*3 17.9 C 8.1 km/h
516 05-05-2020 18:55:00 18 C 4.61 g/m*3 18 C 9.7 km/h
517 05-05-2020 19:00:00 18.1 C 4.79 g/m*3 18.1 C 11.3 km/h
518 05-05-2020 19:05:00 18.2 C 4.66 g/m*3 18.2 C 11.3 km/h
519 05-05-2020 19:10:00 17.8 C 4.4 g/m*3 17.8 C 12.9 km/h
520 05-05-2020 19:15:00 17.4 C 4.45 g/m*3 17.4 C 12.9 km/h
521 05-05-2020 19:20:00 17.2 C 4.39 g/m*3 17.2 C 9.7 km/h
522 05-05-2020 19:25:00 17 C 4.49 g/m*3 17 C 9.7 km/h
523 05-05-2020 19:30:00 16.9 C 4.46 g/m*3 16.9 C 6.4 km/h
524 05-05-2020 19:35:00 16.8 C 4.58 g/m*3 16.8 C 8.1 km/h
525 05-05-2020 19:40:00 16.6 C 4.66 g/m*3 16.6 C 8.1 km/h
Sensor: Nr:Datum:Temp:Abs-Feuchte:Windchill:Wind:
Aussen-T/F 526 05-05-2020 19:45:00 16.4 C 4.33 g/m*3 16.4 C 9.7 km/h
527 05-05-2020 19:50:00 16.3 C 4.44 g/m*3 16.3 C 11.3 km/h
528 05-05-2020 19:55:00 16.2 C 4.41 g/m*3 16.2 C 9.7 km/h
529 05-05-2020 20:00:00 16 C 4.5 g/m*3 16 C 9.7 km/h
530 05-05-2020 20:05:00 15.8 C 4.44 g/m*3 15.8 C 9.7 km/h
531 05-05-2020 20:10:00 15.7 C 4.68 g/m*3 15.7 C 9.7 km/h
532 05-05-2020 20:15:00 15.6 C 4.52 g/m*3 15.6 C 6.4 km/h
533 05-05-2020 20:20:00 15.5 C 4.63 g/m*3 15.5 C 8.1 km/h
534 05-05-2020 20:25:00 15.3 C 4.7 g/m*3 15.3 C 6.4 km/h
535 05-05-2020 20:30:00 15.1 C 4.64 g/m*3 15.1 C 8.1 km/h
536 05-05-2020 20:35:00 14.8 C 4.69 g/m*3 14.8 C 6.4 km/h
537 05-05-2020 20:40:00 14.6 C 5.01 g/m*3 14.6 C 6.4 km/h
538 05-05-2020 20:45:00 14.4 C 5.07 g/m*3 14.4 C 8.1 km/h
539 05-05-2020 20:50:00 14.2 C 5.37 g/m*3 14.2 C 4.8 km/h
540 05-05-2020 20:55:00 13.9 C 5.87 g/m*3 13.9 C 0 km/h
541 05-05-2020 21:00:00 13.4 C 6.04 g/m*3 13.4 C 0 km/h
542 05-05-2020 21:05:00 12.9 C 6.09 g/m*3 12.9 C 1.6 km/h
543 05-05-2020 21:10:00 12.3 C 6.19 g/m*3 12.3 C 3.2 km/h
544 05-05-2020 21:15:00 11.9 C 6.14 g/m*3 11.9 C 3.2 km/h
545 05-05-2020 21:20:00 11.6 C 6.03 g/m*3 11.6 C 4.8 km/h
546 05-05-2020 21:25:00 11.2 C 5.88 g/m*3 11.2 C 0 km/h
547 05-05-2020 21:30:00 10.9 C 5.87 g/m*3 10.41 C 6.4 km/h
548 05-05-2020 21:35:00 10.6 C 5.95 g/m*3 10.6 C 3.2 km/h
549 05-05-2020 21:40:00 10.3 C 5.65 g/m*3 10.3 C 3.2 km/h
550 05-05-2020 21:45:00 10.1 C 5.67 g/m*3 10.1 C 4.8 km/h
Sensor: Nr:Datum:Temp:Abs-Feuchte:Windchill:Wind:
Aussen-T/F 551 05-05-2020 21:50:00 9.9 C 5.51 g/m*3 9.25 C 6.4 km/h
552 05-05-2020 21:55:00 9.8 C 5.57 g/m*3 9.14 C 6.4 km/h
553 05-05-2020 22:00:00 9.7 C 5.72 g/m*3 9.7 C 4.8 km/h
554 05-05-2020 22:05:00 9.6 C 5.68 g/m*3 9.6 C 3.2 km/h
555 05-05-2020 22:10:00 9.4 C 5.97 g/m*3 9.4 C 4.8 km/h
556 05-05-2020 22:15:00 9.3 C 5.84 g/m*3 9.3 C 4.8 km/h
557 05-05-2020 22:20:00 9.2 C 5.71 g/m*3 9.2 C 3.2 km/h
558 05-05-2020 22:25:00 9.2 C 5.8 g/m*3 9.2 C 0 km/h
559 05-05-2020 22:30:00 9.1 C 5.77 g/m*3 9.1 C 4.8 km/h
560 05-05-2020 22:35:00 9 C 5.91 g/m*3 9 C 0 km/h
561 05-05-2020 22:40:00 8.9 C 5.87 g/m*3 8.1 C 6.4 km/h
562 05-05-2020 22:45:00 8.8 C 5.83 g/m*3 8.8 C 1.6 km/h
563 05-05-2020 22:50:00 8.7 C 5.88 g/m*3 8.7 C 4.8 km/h
564 05-05-2020 22:55:00 8.7 C 5.62 g/m*3 8.7 C 4.8 km/h
565 05-05-2020 23:00:00 8.7 C 5.79 g/m*3 8.7 C 0 km/h
566 05-05-2020 23:05:00 8.6 C 5.76 g/m*3 8.6 C 1.6 km/h
567 05-05-2020 23:10:00 8.5 C 5.72 g/m*3 8.5 C 1.6 km/h
568 05-05-2020 23:15:00 8.4 C 5.68 g/m*3 8.4 C 0 km/h
569 05-05-2020 23:20:00 8.3 C 5.65 g/m*3 8.3 C 1.6 km/h
570 05-05-2020 23:25:00 8.2 C 5.61 g/m*3 8.2 C 1.6 km/h
571 05-05-2020 23:30:00 8.1 C 5.57 g/m*3 8.1 C 3.2 km/h
572 05-05-2020 23:35:00 8 C 5.62 g/m*3 8 C 1.6 km/h
573 05-05-2020 23:40:00 7.9 C 5.67 g/m*3 7.9 C 4.8 km/h
574 05-05-2020 23:45:00 7.8 C 5.63 g/m*3 6.83 C 6.4 km/h
575 05-05-2020 23:50:00 7.7 C 5.51 g/m*3 7.7 C 4.8 km/h
Sensor: Nr:Datum:Temp:Abs-Feuchte:Windchill:Wind:
Aussen-T/F 576 05-05-2020 23:55:00 7.6 C 5.56 g/m*3 7.6 C 3.2 km/h
577 06-05-2020 00:00:00 7.6 C 5.64 g/m*3 7.6 C 3.2 km/h
578 06-05-2020 00:05:00 7.5 C 5.6 g/m*3 7.5 C 3.2 km/h
579 06-05-2020 00:10:00 7.4 C 5.57 g/m*3 7.4 C 4.8 km/h
580 06-05-2020 00:15:00 7.4 C 5.57 g/m*3 7.4 C 1.6 km/h
581 06-05-2020 00:20:00 7.3 C 5.61 g/m*3 7.3 C 1.6 km/h
582 06-05-2020 00:25:00 7.3 C 5.53 g/m*3 7.3 C 0 km/h
583 06-05-2020 00:30:00 7.2 C 5.65 g/m*3 7.2 C 0 km/h
584 06-05-2020 00:35:00 7.2 C 5.65 g/m*3 7.2 C 0 km/h
585 06-05-2020 00:40:00 7.1 C 5.69 g/m*3 7.1 C 3.2 km/h
586 06-05-2020 00:45:00 7 C 5.66 g/m*3 7 C 4.8 km/h
587 06-05-2020 00:50:00 6.9 C 5.7 g/m*3 6.9 C 3.2 km/h
588 06-05-2020 00:55:00 6.8 C 5.66 g/m*3 6.8 C 0 km/h
589 06-05-2020 01:00:00 6.7 C 5.62 g/m*3 6.7 C 3.2 km/h
590 06-05-2020 01:05:00 6.5 C 5.55 g/m*3 6.5 C 4.8 km/h
591 06-05-2020 01:10:00 6.4 C 5.59 g/m*3 6.4 C 4.8 km/h
592 06-05-2020 01:15:00 6.3 C 5.63 g/m*3 6.3 C 0 km/h
593 06-05-2020 01:20:00 6.1 C 5.55 g/m*3 6.1 C 0 km/h
594 06-05-2020 01:25:00 5.9 C 5.48 g/m*3 5.9 C 3.2 km/h
595 06-05-2020 01:30:00 5.8 C 5.52 g/m*3 5.8 C 0 km/h
596 06-05-2020 01:35:00 5.7 C 5.55 g/m*3 5.7 C 0 km/h
597 06-05-2020 01:40:00 5.6 C 5.51 g/m*3 5.6 C 0 km/h
598 06-05-2020 01:45:00 5.4 C 5.51 g/m*3 5.4 C 0 km/h
599 06-05-2020 01:50:00 5.3 C 5.54 g/m*3 5.3 C 0 km/h
600 06-05-2020 01:55:00 5.2 C 5.51 g/m*3 5.2 C 0 km/h
Sensor: Nr:Datum:Temp:Abs-Feuchte:Windchill:Wind:
Aussen-T/F 601 06-05-2020 02:00:00 5 C 5.44 g/m*3 5 C 0 km/h
602 06-05-2020 02:05:00 4.9 C 5.47 g/m*3 4.9 C 0 km/h
603 06-05-2020 02:10:00 4.8 C 5.43 g/m*3 4.8 C 0 km/h
604 06-05-2020 02:15:00 4.7 C 5.46 g/m*3 4.7 C 0 km/h
605 06-05-2020 02:20:00 4.6 C 5.49 g/m*3 4.6 C 0 km/h
606 06-05-2020 02:25:00 4.5 C 5.46 g/m*3 4.5 C 0 km/h
607 06-05-2020 02:30:00 4.4 C 5.42 g/m*3 4.4 C 0 km/h
608 06-05-2020 02:35:00 4.4 C 5.42 g/m*3 4.4 C 0 km/h
609 06-05-2020 02:40:00 4.3 C 5.38 g/m*3 4.3 C 0 km/h
610 06-05-2020 02:45:00 4.3 C 5.45 g/m*3 4.3 C 0 km/h
611 06-05-2020 02:50:00 4.2 C 5.41 g/m*3 4.2 C 0 km/h
612 06-05-2020 02:55:00 4.1 C 5.38 g/m*3 4.1 C 0 km/h
613 06-05-2020 03:00:00 4 C 5.4 g/m*3 4 C 0 km/h
614 06-05-2020 03:05:00 3.9 C 5.37 g/m*3 3.9 C 0 km/h
615 06-05-2020 03:10:00 3.8 C 5.33 g/m*3 3.8 C 0 km/h
616 06-05-2020 03:15:00 3.7 C 5.3 g/m*3 3.7 C 0 km/h
617 06-05-2020 03:20:00 3.6 C 5.26 g/m*3 3.6 C 0 km/h
618 06-05-2020 03:25:00 3.6 C 5.32 g/m*3 3.6 C 0 km/h
619 06-05-2020 03:30:00 3.5 C 5.29 g/m*3 3.5 C 0 km/h
620 06-05-2020 03:35:00 3.4 C 5.25 g/m*3 3.4 C 0 km/h
621 06-05-2020 03:40:00 3.3 C 5.22 g/m*3 3.3 C 0 km/h
622 06-05-2020 03:45:00 3.3 C 5.28 g/m*3 3.3 C 0 km/h
623 06-05-2020 03:50:00 3.3 C 5.28 g/m*3 3.3 C 0 km/h
624 06-05-2020 03:55:00 3.2 C 5.3 g/m*3 3.2 C 0 km/h
625 06-05-2020 04:00:00 3.2 C 5.24 g/m*3 3.2 C 0 km/h
Sensor: Nr:Datum:Temp:Abs-Feuchte:Windchill:Wind:
Aussen-T/F 626 06-05-2020 04:05:00 3.2 C 5.24 g/m*3 3.2 C 0 km/h
627 06-05-2020 04:10:00 3.1 C 5.27 g/m*3 3.1 C 0 km/h
628 06-05-2020 04:15:00 3.1 C 5.27 g/m*3 3.1 C 0 km/h
629 06-05-2020 04:20:00 3.1 C 5.27 g/m*3 3.1 C 0 km/h
630 06-05-2020 04:25:00 3.1 C 5.27 g/m*3 3.1 C 0 km/h
631 06-05-2020 04:30:00 3.1 C 5.33 g/m*3 3.1 C 0 km/h
632 06-05-2020 04:35:00 2.9 C 5.2 g/m*3 2.9 C 0 km/h
633 06-05-2020 04:40:00 2.9 C 5.26 g/m*3 2.9 C 0 km/h
634 06-05-2020 04:45:00 2.9 C 5.26 g/m*3 2.9 C 0 km/h
635 06-05-2020 04:50:00 2.8 C 5.22 g/m*3 2.8 C 0 km/h
636 06-05-2020 04:55:00 2.8 C 5.22 g/m*3 2.8 C 0 km/h
637 06-05-2020 05:00:00 2.8 C 5.28 g/m*3 2.8 C 1.6 km/h
638 06-05-2020 05:05:00 2.8 C 5.28 g/m*3 2.8 C 0 km/h
639 06-05-2020 05:10:00 2.7 C 5.24 g/m*3 2.7 C 0 km/h
640 06-05-2020 05:15:00 2.7 C 5.24 g/m*3 2.7 C 0 km/h
641 06-05-2020 05:20:00 2.6 C 5.21 g/m*3 2.6 C 0 km/h
642 06-05-2020 05:25:00 2.6 C 5.21 g/m*3 2.6 C 0 km/h
643 06-05-2020 05:30:00 2.6 C 5.21 g/m*3 2.6 C 0 km/h
644 06-05-2020 05:35:00 2.5 C 5.17 g/m*3 2.5 C 0 km/h
645 06-05-2020 05:40:00 2.5 C 5.17 g/m*3 2.5 C 0 km/h
646 06-05-2020 05:45:00 2.4 C 5.14 g/m*3 2.4 C 0 km/h
647 06-05-2020 05:50:00 2.3 C 5.1 g/m*3 2.3 C 0 km/h
648 06-05-2020 05:55:00 2.2 C 5.07 g/m*3 2.2 C 0 km/h
649 06-05-2020 06:00:00 2.2 C 5.13 g/m*3 2.2 C 0 km/h
650 06-05-2020 06:05:00 2.1 C 5.09 g/m*3 2.1 C 0 km/h
Sensor: Nr:Datum:Temp:Abs-Feuchte:Windchill:Wind:
Aussen-T/F 651 06-05-2020 06:10:00 2.2 C 5.13 g/m*3 2.2 C 0 km/h
652 06-05-2020 06:15:00 2.1 C 5.09 g/m*3 2.1 C 0 km/h
653 06-05-2020 06:20:00 2.1 C 5.09 g/m*3 2.1 C 0 km/h
654 06-05-2020 06:25:00 2.1 C 5.15 g/m*3 2.1 C 0 km/h
655 06-05-2020 06:30:00 2 C 5.11 g/m*3 2 C 0 km/h
656 06-05-2020 06:35:00 2 C 5.11 g/m*3 2 C 0 km/h
657 06-05-2020 06:40:00 2.1 C 5.15 g/m*3 2.1 C 0 km/h
658 06-05-2020 06:45:00 2.1 C 5.15 g/m*3 2.1 C 0 km/h
659 06-05-2020 06:50:00 2.1 C 5.15 g/m*3 2.1 C 0 km/h
660 06-05-2020 06:55:00 2.1 C 5.15 g/m*3 2.1 C 0 km/h
661 06-05-2020 07:00:00 2.2 C 5.18 g/m*3 2.2 C 0 km/h
662 06-05-2020 07:05:00 2.2 C 5.24 g/m*3 2.2 C 0 km/h
663 06-05-2020 07:10:00 2.2 C 5.24 g/m*3 2.2 C 0 km/h
664 06-05-2020 07:15:00 2.3 C 5.27 g/m*3 2.3 C 0 km/h
665 06-05-2020 07:20:00 2.3 C 5.27 g/m*3 2.3 C 0 km/h
666 06-05-2020 07:25:00 2.4 C 5.31 g/m*3 2.4 C 0 km/h
667 06-05-2020 07:30:00 2.4 C 5.31 g/m*3 2.4 C 1.6 km/h
668 06-05-2020 07:35:00 2.5 C 5.35 g/m*3 2.5 C 0 km/h
669 06-05-2020 07:40:00 2.6 C 5.38 g/m*3 2.6 C 0 km/h
670 06-05-2020 07:45:00 2.6 C 5.38 g/m*3 2.6 C 0 km/h
671 06-05-2020 07:50:00 2.7 C 5.42 g/m*3 2.7 C 0 km/h
672 06-05-2020 07:55:00 2.8 C 5.46 g/m*3 2.8 C 1.6 km/h
673 06-05-2020 08:00:00 2.9 C 5.55 g/m*3 2.9 C 0 km/h
674 06-05-2020 08:05:00 2.9 C 5.55 g/m*3 2.9 C 0 km/h
675 06-05-2020 08:10:00 3.1 C 5.63 g/m*3 3.1 C 0 km/h
Sensor: Nr:Datum:Temp:Abs-Feuchte:Windchill:Wind:
Aussen-T/F 676 06-05-2020 08:15:00 3.2 C 5.66 g/m*3 3.2 C 1.6 km/h
677 06-05-2020 08:20:00 3.2 C 5.66 g/m*3 3.2 C 0 km/h
678 06-05-2020 08:25:00 3.3 C 5.7 g/m*3 3.3 C 0 km/h
679 06-05-2020 08:30:00 3.4 C 5.74 g/m*3 3.4 C 0 km/h
680 06-05-2020 08:35:00 3.7 C 5.86 g/m*3 3.7 C 0 km/h
681 06-05-2020 08:40:00 3.8 C 5.9 g/m*3 3.8 C 0 km/h
682 06-05-2020 08:45:00 4 C 5.98 g/m*3 4 C 0 km/h
683 06-05-2020 08:50:00 4.2 C 6.06 g/m*3 4.2 C 0 km/h
684 06-05-2020 08:55:00 4.4 C 6.14 g/m*3 4.4 C 0 km/h
685 06-05-2020 09:00:00 4.6 C 6.22 g/m*3 4.6 C 1.6 km/h
686 06-05-2020 09:05:00 4.8 C 6.3 g/m*3 4.8 C 1.6 km/h
687 06-05-2020 09:10:00 5.1 C 6.43 g/m*3 5.1 C 0 km/h
688 06-05-2020 09:15:00 5.3 C 6.52 g/m*3 5.3 C 0 km/h
689 06-05-2020 09:20:00 5.4 C 6.49 g/m*3 5.4 C 1.6 km/h
690 06-05-2020 09:25:00 5.7 C 6.62 g/m*3 5.7 C 0 km/h
691 06-05-2020 09:30:00 5.9 C 6.63 g/m*3 5.9 C 0 km/h
692 06-05-2020 09:35:00 6.1 C 6.72 g/m*3 6.1 C 1.6 km/h
693 06-05-2020 09:40:00 6.3 C 6.74 g/m*3 6.3 C 0 km/h
694 06-05-2020 09:45:00 6.4 C 6.78 g/m*3 6.4 C 0 km/h
695 06-05-2020 09:50:00 6.6 C 6.87 g/m*3 6.6 C 0 km/h
696 06-05-2020 09:55:00 6.8 C 6.88 g/m*3 6.8 C 0 km/h
697 06-05-2020 10:00:00 7 C 6.97 g/m*3 7 C 0 km/h
698 06-05-2020 10:05:00 7.2 C 6.99 g/m*3 7.2 C 0 km/h
699 06-05-2020 10:10:00 7.4 C 7 g/m*3 7.4 C 1.6 km/h
700 06-05-2020 10:15:00 7.7 C 6.81 g/m*3 7.7 C 3.2 km/h
Sensor: Nr:Datum:Temp:Abs-Feuchte:Windchill:Wind:
Aussen-T/F 701 06-05-2020 10:20:00 8 C 6.61 g/m*3 8 C 1.6 km/h
702 06-05-2020 10:25:00 8.6 C 6.27 g/m*3 7.34 C 8.1 km/h
703 06-05-2020 10:30:00 9.7 C 5.99 g/m*3 8.33 C 9.7 km/h
704 06-05-2020 10:35:00 10.6 C 6.54 g/m*3 8.92 C 12.9 km/h
705 06-05-2020 10:40:00 11.2 C 5.37 g/m*3 11.2 C 12.9 km/h
706 06-05-2020 10:45:00 11.7 C 5.54 g/m*3 11.7 C 14.5 km/h
707 06-05-2020 10:50:00 11.9 C 5.4 g/m*3 11.9 C 11.3 km/h
708 06-05-2020 10:55:00 12.2 C 5.83 g/m*3 12.2 C 17.7 km/h
709 06-05-2020 11:00:00 12.2 C 5.07 g/m*3 12.2 C 8.1 km/h
710 06-05-2020 11:05:00 12.3 C 5.21 g/m*3 12.3 C 4.8 km/h
711 06-05-2020 11:10:00 12.5 C 4.84 g/m*3 12.5 C 16.1 km/h
712 06-05-2020 11:15:00 12.7 C 4.79 g/m*3 12.7 C 9.7 km/h
713 06-05-2020 11:20:00 12.8 C 4.93 g/m*3 12.8 C 4.8 km/h
714 06-05-2020 11:25:00 12.9 C 4.96 g/m*3 12.9 C 8.1 km/h
715 06-05-2020 11:30:00 13 C 5.1 g/m*3 13 C 6.4 km/h
716 06-05-2020 11:35:00 13.2 C 4.71 g/m*3 13.2 C 8.1 km/h
717 06-05-2020 11:40:00 13.2 C 4.71 g/m*3 13.2 C 8.1 km/h
718 06-05-2020 11:45:00 13.2 C 4.82 g/m*3 13.2 C 14.5 km/h
719 06-05-2020 11:50:00 13.3 C 4.74 g/m*3 13.3 C 16.1 km/h
720 06-05-2020 11:55:00 13.4 C 4.42 g/m*3 13.4 C 12.9 km/h
721 06-05-2020 12:00:00 13.5 C 4.44 g/m*3 13.5 C 6.4 km/h
722 06-05-2020 12:05:00 13.6 C 4.71 g/m*3 13.6 C 4.8 km/h
723 06-05-2020 12:10:00 13.4 C 4.65 g/m*3 13.4 C 9.7 km/h
724 06-05-2020 12:15:00 13.5 C 4.56 g/m*3 13.5 C 6.4 km/h
725 06-05-2020 12:20:00 13.6 C 4.59 g/m*3 13.6 C 6.4 km/h
Sensor: Nr:Datum:Temp:Abs-Feuchte:Windchill:Wind:
Aussen-T/F 726 06-05-2020 12:25:00 13.7 C 4.62 g/m*3 13.7 C 6.4 km/h
727 06-05-2020 12:30:00 13.8 C 4.77 g/m*3 13.8 C 11.3 km/h
728 06-05-2020 12:35:00 13.9 C 4.56 g/m*3 13.9 C 14.5 km/h
729 06-05-2020 12:40:00 14 C 4.7 g/m*3 14 C 16.1 km/h
730 06-05-2020 12:45:00 13.9 C 4.8 g/m*3 13.9 C 8.1 km/h
731 06-05-2020 12:50:00 14 C 4.82 g/m*3 14 C 9.7 km/h
732 06-05-2020 12:55:00 14.1 C 4.73 g/m*3 14.1 C 9.7 km/h
733 06-05-2020 13:00:00 14.1 C 4.73 g/m*3 14.1 C 11.3 km/h
734 06-05-2020 13:05:00 14.2 C 4.76 g/m*3 14.2 C 12.9 km/h
735 06-05-2020 13:10:00 14.2 C 4.76 g/m*3 14.2 C 6.4 km/h
736 06-05-2020 13:15:00 14.3 C 4.91 g/m*3 14.3 C 12.9 km/h
737 06-05-2020 13:20:00 14.5 C 4.85 g/m*3 14.5 C 9.7 km/h
738 06-05-2020 13:25:00 14.7 C 5.16 g/m*3 14.7 C 9.7 km/h
739 06-05-2020 13:30:00 14.7 C 4.91 g/m*3 14.7 C 12.9 km/h
740 06-05-2020 13:35:00 14.7 C 5.04 g/m*3 14.7 C 8.1 km/h
741 06-05-2020 13:40:00 14.8 C 5.07 g/m*3 14.8 C 6.4 km/h
742 06-05-2020 13:45:00 14.8 C 5.19 g/m*3 14.8 C 8.1 km/h
743 06-05-2020 13:50:00 15 C 5.13 g/m*3 15 C 9.7 km/h
744 06-05-2020 13:55:00 15.2 C 5.19 g/m*3 15.2 C 16.1 km/h
745 06-05-2020 14:00:00 15.2 C 5.32 g/m*3 15.2 C 8.1 km/h
746 06-05-2020 14:05:00 15.4 C 5.26 g/m*3 15.4 C 11.3 km/h
747 06-05-2020 14:10:00 15.5 C 5.16 g/m*3 15.5 C 8.1 km/h
748 06-05-2020 14:15:00 15.6 C 4.65 g/m*3 15.6 C 14.5 km/h
749 06-05-2020 14:20:00 15.6 C 4.65 g/m*3 15.6 C 12.9 km/h
750 06-05-2020 14:25:00 15.7 C 4.82 g/m*3 15.7 C 9.7 km/h
Sensor: Nr:Datum:Temp:Abs-Feuchte:Windchill:Wind:
Aussen-T/F 751 06-05-2020 14:30:00 15.7 C 4.42 g/m*3 15.7 C 12.9 km/h
752 06-05-2020 14:35:00 15.8 C 4.31 g/m*3 15.8 C 6.4 km/h
753 06-05-2020 14:40:00 15.9 C 4.74 g/m*3 15.9 C 12.9 km/h
754 06-05-2020 14:45:00 16.2 C 4.83 g/m*3 16.2 C 14.5 km/h
755 06-05-2020 14:50:00 16.4 C 4.89 g/m*3 16.4 C 12.9 km/h
756 06-05-2020 14:55:00 16.7 C 4.69 g/m*3 16.7 C 9.7 km/h
757 06-05-2020 15:00:00 16.7 C 4.97 g/m*3 16.7 C 14.5 km/h
758 06-05-2020 15:05:00 16.9 C 4.75 g/m*3 16.9 C 12.9 km/h
759 06-05-2020 15:10:00 16.9 C 4.6 g/m*3 16.9 C 9.7 km/h
760 06-05-2020 15:15:00 17 C 5.21 g/m*3 17 C 8.1 km/h
761 06-05-2020 15:20:00 17.1 C 4.8 g/m*3 17.1 C 11.3 km/h
762 06-05-2020 15:25:00 17.1 C 4.66 g/m*3 17.1 C 11.3 km/h
763 06-05-2020 15:30:00 17.1 C 4.8 g/m*3 17.1 C 4.8 km/h
764 06-05-2020 15:35:00 17.5 C 4.47 g/m*3 17.5 C 16.1 km/h
765 06-05-2020 15:40:00 17.6 C 4.95 g/m*3 17.6 C 8.1 km/h
766 06-05-2020 15:45:00 17.8 C 4.71 g/m*3 17.8 C 12.9 km/h
767 06-05-2020 15:50:00 17.9 C 4.89 g/m*3 17.9 C 14.5 km/h
768 06-05-2020 15:55:00 18.2 C 4.97 g/m*3 18.2 C 9.7 km/h
769 06-05-2020 16:00:00 18.4 C 4.88 g/m*3 18.4 C 17.7 km/h
770 06-05-2020 16:05:00 18.3 C 5 g/m*3 18.3 C 14.5 km/h
771 06-05-2020 16:10:00 18.4 C 5.19 g/m*3 18.4 C 12.9 km/h
772 06-05-2020 16:15:00 18.8 C 4.99 g/m*3 18.8 C 3.2 km/h
773 06-05-2020 16:20:00 19.3 C 5.14 g/m*3 19.3 C 3.2 km/h
774 06-05-2020 16:25:00 19.3 C 4.98 g/m*3 19.3 C 14.5 km/h
775 06-05-2020 16:30:00 19.1 C 5.08 g/m*3 19.1 C 9.7 km/h
Sensor: Nr:Datum:Temp:Abs-Feuchte:Windchill:Wind:
Aussen-T/F 776 06-05-2020 16:35:00 19.2 C 4.95 g/m*3 19.2 C 11.3 km/h
777 06-05-2020 16:40:00 19.1 C 4.75 g/m*3 19.1 C 9.7 km/h
778 06-05-2020 16:45:00 19.1 C 4.92 g/m*3 19.1 C 9.7 km/h
779 06-05-2020 16:50:00 19 C 4.89 g/m*3 19 C 11.3 km/h
780 06-05-2020 16:55:00 18.9 C 4.86 g/m*3 18.9 C 6.4 km/h
781 06-05-2020 17:00:00 19.2 C 5.11 g/m*3 19.2 C 9.7 km/h
782 06-05-2020 17:05:00 19.4 C 5.01 g/m*3 19.4 C 11.3 km/h
783 06-05-2020 17:10:00 19.6 C 5.23 g/m*3 19.6 C 6.4 km/h
784 06-05-2020 17:15:00 19.8 C 5.47 g/m*3 19.8 C 6.4 km/h
785 06-05-2020 17:20:00 19.8 C 5.12 g/m*3 19.8 C 6.4 km/h
786 06-05-2020 17:25:00 19.8 C 5.12 g/m*3 19.8 C 4.8 km/h
787 06-05-2020 17:30:00 19.9 C 4.98 g/m*3 19.9 C 8.1 km/h
788 06-05-2020 17:35:00 19.7 C 5.43 g/m*3 19.7 C 8.1 km/h
789 06-05-2020 17:40:00 19.7 C 4.92 g/m*3 19.7 C 9.7 km/h
790 06-05-2020 17:45:00 19.7 C 5.26 g/m*3 19.7 C 3.2 km/h
791 06-05-2020 17:50:00 19.9 C 5.15 g/m*3 19.9 C 4.8 km/h
792 06-05-2020 17:55:00 19.9 C 5.15 g/m*3 19.9 C 6.4 km/h
793 06-05-2020 18:00:00 20.1 C 5.21 g/m*3 20.1 C 6.4 km/h
794 06-05-2020 18:05:00 20.2 C 5.77 g/m*3 20.2 C 4.8 km/h
795 06-05-2020 18:10:00 20.3 C 5.28 g/m*3 20.3 C 8.1 km/h
796 06-05-2020 18:15:00 20.1 C 5.39 g/m*3 20.1 C 6.4 km/h
797 06-05-2020 18:20:00 20.2 C 5.42 g/m*3 20.2 C 6.4 km/h
798 06-05-2020 18:25:00 20.3 C 5.1 g/m*3 20.3 C 6.4 km/h
799 06-05-2020 18:30:00 20.2 C 5.07 g/m*3 20.2 C 6.4 km/h
800 06-05-2020 18:35:00 20.2 C 5.25 g/m*3 20.2 C 6.4 km/h
Sensor: Nr:Datum:Temp:Abs-Feuchte:Windchill:Wind:
Aussen-T/F 801 06-05-2020 18:40:00 20.3 C 5.28 g/m*3 20.3 C 4.8 km/h
802 06-05-2020 18:45:00 20.4 C 5.13 g/m*3 20.4 C 4.8 km/h
803 06-05-2020 18:50:00 20.3 C 5.1 g/m*3 20.3 C 6.4 km/h
804 06-05-2020 18:55:00 20.2 C 5.25 g/m*3 20.2 C 8.1 km/h
805 06-05-2020 19:00:00 19.9 C 5.15 g/m*3 19.9 C 6.4 km/h
806 06-05-2020 19:05:00 19.8 C 5.12 g/m*3 19.8 C 6.4 km/h
807 06-05-2020 19:10:00 19.8 C 5.12 g/m*3 19.8 C 8.1 km/h
808 06-05-2020 19:15:00 19.6 C 5.4 g/m*3 19.6 C 6.4 km/h
809 06-05-2020 19:20:00 19.4 C 5.51 g/m*3 19.4 C 8.1 km/h
810 06-05-2020 19:25:00 19.1 C 5.08 g/m*3 19.1 C 4.8 km/h
811 06-05-2020 19:30:00 18.9 C 5.35 g/m*3 18.9 C 3.2 km/h
812 06-05-2020 19:35:00 18.8 C 5.48 g/m*3 18.8 C 3.2 km/h
813 06-05-2020 19:40:00 18.7 C 5.12 g/m*3 18.7 C 3.2 km/h
814 06-05-2020 19:45:00 18.6 C 5.25 g/m*3 18.6 C 4.8 km/h
815 06-05-2020 19:50:00 18.5 C 5.38 g/m*3 18.5 C 3.2 km/h
816 06-05-2020 19:55:00 18.4 C 6.92 g/m*3 18.4 C 1.6 km/h
817 06-05-2020 20:00:00 18.3 C 6.1 g/m*3 18.3 C 1.6 km/h
818 06-05-2020 20:05:00 18.2 C 6.06 g/m*3 18.2 C 1.6 km/h
819 06-05-2020 20:10:00 18.1 C 7.26 g/m*3 18.1 C 3.2 km/h
820 06-05-2020 20:15:00 17.8 C 7.29 g/m*3 17.8 C 4.8 km/h
821 06-05-2020 20:20:00 17.2 C 7.18 g/m*3 17.2 C 4.8 km/h
822 06-05-2020 20:25:00 16.7 C 7.25 g/m*3 16.7 C 4.8 km/h
823 06-05-2020 20:30:00 16.1 C 7.13 g/m*3 16.1 C 4.8 km/h
824 06-05-2020 20:35:00 15.4 C 6.83 g/m*3 15.4 C 6.4 km/h
825 06-05-2020 20:40:00 14.8 C 6.84 g/m*3 14.8 C 6.4 km/h
Sensor: Nr:Datum:Temp:Abs-Feuchte:Windchill:Wind:
Aussen-T/F 826 06-05-2020 20:45:00 14.3 C 6.76 g/m*3 14.3 C 8.1 km/h
827 06-05-2020 20:50:00 13.9 C 6.83 g/m*3 13.9 C 8.1 km/h
828 06-05-2020 20:55:00 13.6 C 6.59 g/m*3 13.6 C 8.1 km/h
829 06-05-2020 21:00:00 13.3 C 6.47 g/m*3 13.3 C 8.1 km/h
830 06-05-2020 21:05:00 13 C 6.24 g/m*3 13 C 8.1 km/h
831 06-05-2020 21:10:00 12.8 C 6.27 g/m*3 12.8 C 8.1 km/h
832 06-05-2020 21:15:00 12.6 C 6.53 g/m*3 12.6 C 8.1 km/h
833 06-05-2020 21:20:00 12.4 C 6.56 g/m*3 12.4 C 8.1 km/h
834 06-05-2020 21:25:00 12.2 C 6.58 g/m*3 12.2 C 8.1 km/h
835 06-05-2020 21:30:00 12 C 6.61 g/m*3 12 C 6.4 km/h
836 06-05-2020 21:35:00 11.8 C 6.84 g/m*3 11.8 C 3.2 km/h
837 06-05-2020 21:40:00 11.6 C 6.86 g/m*3 11.6 C 0 km/h
838 06-05-2020 21:45:00 11.3 C 6.83 g/m*3 11.3 C 3.2 km/h
839 06-05-2020 21:50:00 10.9 C 6.66 g/m*3 10.9 C 1.6 km/h
840 06-05-2020 21:55:00 10.7 C 6.48 g/m*3 10.7 C 3.2 km/h
841 06-05-2020 22:00:00 10.6 C 6.73 g/m*3 10.6 C 3.2 km/h
842 06-05-2020 22:05:00 10.3 C 6.61 g/m*3 10.3 C 3.2 km/h
843 06-05-2020 22:10:00 10.1 C 6.62 g/m*3 10.1 C 4.8 km/h
844 06-05-2020 22:15:00 9.9 C 6.54 g/m*3 9.9 C 3.2 km/h
845 06-05-2020 22:20:00 9.8 C 6.59 g/m*3 9.8 C 0 km/h
846 06-05-2020 22:25:00 9.7 C 6.45 g/m*3 9.02 C 6.4 km/h
847 06-05-2020 22:30:00 9.7 C 6.55 g/m*3 9.7 C 1.6 km/h
848 06-05-2020 22:35:00 9.6 C 6.6 g/m*3 9.6 C 0 km/h
849 06-05-2020 22:40:00 9.4 C 6.51 g/m*3 9.4 C 0 km/h
850 06-05-2020 22:45:00 9.2 C 6.43 g/m*3 9.2 C 0 km/h
Sensor: Nr:Datum:Temp:Abs-Feuchte:Windchill:Wind:
Aussen-T/F 851 06-05-2020 22:50:00 9.1 C 6.48 g/m*3 9.1 C 0 km/h
852 06-05-2020 22:55:00 9 C 6.44 g/m*3 9 C 0 km/h
853 06-05-2020 23:00:00 8.8 C 6.35 g/m*3 8.8 C 0 km/h
854 06-05-2020 23:05:00 8.7 C 6.4 g/m*3 8.7 C 0 km/h
855 06-05-2020 23:10:00 8.6 C 6.44 g/m*3 8.6 C 0 km/h
856 06-05-2020 23:15:00 8.4 C 6.36 g/m*3 8.4 C 0 km/h
857 06-05-2020 23:20:00 8.2 C 6.36 g/m*3 8.2 C 0 km/h
858 06-05-2020 23:25:00 8.1 C 6.41 g/m*3 8.1 C 0 km/h
859 06-05-2020 23:30:00 7.9 C 6.32 g/m*3 7.9 C 0 km/h
860 06-05-2020 23:35:00 7.8 C 6.37 g/m*3 7.8 C 0 km/h
861 06-05-2020 23:40:00 7.7 C 6.32 g/m*3 7.7 C 0 km/h
862 06-05-2020 23:45:00 7.6 C 6.28 g/m*3 7.6 C 0 km/h
863 06-05-2020 23:50:00 7.4 C 6.2 g/m*3 7.4 C 0 km/h
864 06-05-2020 23:55:00 7.3 C 6.16 g/m*3 7.3 C 0 km/h
865 07-05-2020 00:00:00 7.2 C 6.2 g/m*3 7.2 C 0 km/h
866 07-05-2020 00:05:00 7.2 C 6.2 g/m*3 7.2 C 0 km/h
867 07-05-2020 00:10:00 7.1 C 6.16 g/m*3 7.1 C 0 km/h
868 07-05-2020 00:15:00 7 C 6.2 g/m*3 7 C 0 km/h
869 07-05-2020 00:20:00 6.9 C 6.16 g/m*3 6.9 C 0 km/h
870 07-05-2020 00:25:00 6.8 C 6.12 g/m*3 6.8 C 0 km/h
871 07-05-2020 00:30:00 6.8 C 6.19 g/m*3 6.8 C 0 km/h
872 07-05-2020 00:35:00 6.7 C 6.15 g/m*3 6.7 C 0 km/h
873 07-05-2020 00:40:00 6.7 C 6.15 g/m*3 6.7 C 0 km/h
874 07-05-2020 00:45:00 6.6 C 6.11 g/m*3 6.6 C 3.2 km/h
875 07-05-2020 00:50:00 6.6 C 6.11 g/m*3 6.6 C 3.2 km/h
Sensor: Nr:Datum:Temp:Abs-Feuchte:Windchill:Wind:
Aussen-T/F 876 07-05-2020 00:55:00 6.7 C 6.15 g/m*3 6.7 C 0 km/h
877 07-05-2020 01:00:00 6.7 C 6.23 g/m*3 6.7 C 1.6 km/h
878 07-05-2020 01:05:00 6.7 C 6.23 g/m*3 6.7 C 0 km/h
879 07-05-2020 01:10:00 6.6 C 6.19 g/m*3 6.6 C 0 km/h
880 07-05-2020 01:15:00 6.6 C 6.19 g/m*3 6.6 C 3.2 km/h
881 07-05-2020 01:20:00 6.6 C 6.19 g/m*3 6.6 C 0 km/h
882 07-05-2020 01:25:00 6.5 C 6.15 g/m*3 6.5 C 0 km/h
883 07-05-2020 01:30:00 6.4 C 6.11 g/m*3 6.4 C 0 km/h
884 07-05-2020 01:35:00 6.3 C 6.07 g/m*3 6.3 C 0 km/h
885 07-05-2020 01:40:00 6.3 C 6.14 g/m*3 6.3 C 3.2 km/h
886 07-05-2020 01:45:00 6.2 C 6.1 g/m*3 6.2 C 0 km/h
887 07-05-2020 01:50:00 6.1 C 6.06 g/m*3 6.1 C 0 km/h
888 07-05-2020 01:55:00 6.1 C 6.06 g/m*3 6.1 C 0 km/h
889 07-05-2020 02:00:00 5.9 C 5.98 g/m*3 5.9 C 0 km/h
890 07-05-2020 02:05:00 5.8 C 6.02 g/m*3 5.8 C 0 km/h
891 07-05-2020 02:10:00 5.8 C 6.02 g/m*3 5.8 C 0 km/h
892 07-05-2020 02:15:00 5.8 C 6.09 g/m*3 5.8 C 0 km/h
893 07-05-2020 02:20:00 5.7 C 6.05 g/m*3 5.7 C 0 km/h
894 07-05-2020 02:25:00 5.6 C 6.01 g/m*3 5.6 C 0 km/h
895 07-05-2020 02:30:00 5.6 C 6.01 g/m*3 5.6 C 0 km/h
896 07-05-2020 02:35:00 5.4 C 5.93 g/m*3 5.4 C 0 km/h
897 07-05-2020 02:40:00 5.3 C 5.96 g/m*3 5.3 C 0 km/h
898 07-05-2020 02:45:00 5.3 C 5.96 g/m*3 5.3 C 0 km/h
899 07-05-2020 02:50:00 5.2 C 5.92 g/m*3 5.2 C 0 km/h
900 07-05-2020 02:55:00 5.1 C 5.88 g/m*3 5.1 C 0 km/h
Sensor: Nr:Datum:Temp:Abs-Feuchte:Windchill:Wind:
Aussen-T/F 901 07-05-2020 03:00:00 5 C 5.84 g/m*3 5 C 0 km/h
902 07-05-2020 03:05:00 5 C 5.91 g/m*3 5 C 0 km/h
903 07-05-2020 03:10:00 4.9 C 5.87 g/m*3 4.9 C 0 km/h
904 07-05-2020 03:15:00 4.9 C 5.87 g/m*3 4.9 C 0 km/h
905 07-05-2020 03:20:00 4.8 C 5.83 g/m*3 4.8 C 0 km/h
906 07-05-2020 03:25:00 4.8 C 5.9 g/m*3 4.8 C 0 km/h
907 07-05-2020 03:30:00 4.8 C 5.9 g/m*3 4.8 C 0 km/h
908 07-05-2020 03:35:00 4.8 C 5.9 g/m*3 4.8 C 0 km/h
909 07-05-2020 03:40:00 4.8 C 5.9 g/m*3 4.8 C 0 km/h
910 07-05-2020 03:45:00 4.7 C 5.86 g/m*3 4.7 C 0 km/h
911 07-05-2020 03:50:00 4.7 C 5.93 g/m*3 4.7 C 0 km/h
912 07-05-2020 03:55:00 4.7 C 5.93 g/m*3 4.7 C 0 km/h
913 07-05-2020 04:00:00 4.7 C 5.93 g/m*3 4.7 C 0 km/h
914 07-05-2020 04:05:00 4.6 C 5.89 g/m*3 4.6 C 0 km/h
915 07-05-2020 04:10:00 4.5 C 5.85 g/m*3 4.5 C 0 km/h
916 07-05-2020 04:15:00 4.4 C 5.81 g/m*3 4.4 C 0 km/h
917 07-05-2020 04:20:00 4.4 C 5.81 g/m*3 4.4 C 0 km/h
918 07-05-2020 04:25:00 4.3 C 5.77 g/m*3 4.3 C 0 km/h
919 07-05-2020 04:30:00 4.2 C 5.73 g/m*3 4.2 C 0 km/h
920 07-05-2020 04:35:00 4.2 C 5.73 g/m*3 4.2 C 0 km/h
921 07-05-2020 04:40:00 4.1 C 5.7 g/m*3 4.1 C 0 km/h
922 07-05-2020 04:45:00 4 C 5.72 g/m*3 4 C 0 km/h
923 07-05-2020 04:50:00 3.9 C 5.68 g/m*3 3.9 C 0 km/h
924 07-05-2020 04:55:00 3.9 C 5.68 g/m*3 3.9 C 0 km/h
925 07-05-2020 05:00:00 3.8 C 5.65 g/m*3 3.8 C 0 km/h
Sensor: Nr:Datum:Temp:Abs-Feuchte:Windchill:Wind:
Aussen-T/F 926 07-05-2020 05:05:00 3.8 C 5.65 g/m*3 3.8 C 0 km/h
927 07-05-2020 05:10:00 3.7 C 5.61 g/m*3 3.7 C 0 km/h
928 07-05-2020 05:15:00 3.7 C 5.61 g/m*3 3.7 C 0 km/h
929 07-05-2020 05:20:00 3.7 C 5.67 g/m*3 3.7 C 0 km/h
930 07-05-2020 05:25:00 3.7 C 5.67 g/m*3 3.7 C 0 km/h
931 07-05-2020 05:30:00 3.6 C 5.63 g/m*3 3.6 C 3.2 km/h
932 07-05-2020 05:35:00 3.6 C 5.63 g/m*3 3.6 C 0 km/h
933 07-05-2020 05:40:00 3.6 C 5.63 g/m*3 3.6 C 0 km/h
934 07-05-2020 05:45:00 3.6 C 5.63 g/m*3 3.6 C 1.6 km/h
935 07-05-2020 05:50:00 3.6 C 5.69 g/m*3 3.6 C 0 km/h
936 07-05-2020 05:55:00 3.7 C 5.73 g/m*3 3.7 C 0 km/h
937 07-05-2020 06:00:00 3.6 C 5.69 g/m*3 3.6 C 0 km/h
938 07-05-2020 06:05:00 3.6 C 5.63 g/m*3 3.6 C 0 km/h
939 07-05-2020 06:10:00 3.5 C 5.66 g/m*3 3.5 C 0 km/h
940 07-05-2020 06:15:00 3.4 C 5.62 g/m*3 3.4 C 0 km/h
941 07-05-2020 06:20:00 3.4 C 5.62 g/m*3 3.4 C 0 km/h
942 07-05-2020 06:25:00 3.4 C 5.62 g/m*3 3.4 C 0 km/h
943 07-05-2020 06:30:00 3.3 C 5.58 g/m*3 3.3 C 0 km/h
944 07-05-2020 06:35:00 3.3 C 5.58 g/m*3 3.3 C 0 km/h
945 07-05-2020 06:40:00 3.3 C 5.58 g/m*3 3.3 C 0 km/h
946 07-05-2020 06:45:00 3.3 C 5.58 g/m*3 3.3 C 0 km/h
947 07-05-2020 06:50:00 3.3 C 5.58 g/m*3 3.3 C 1.6 km/h
948 07-05-2020 06:55:00 3.4 C 5.68 g/m*3 3.4 C 0 km/h
949 07-05-2020 07:00:00 3.4 C 5.68 g/m*3 3.4 C 0 km/h
950 07-05-2020 07:05:00 3.4 C 5.68 g/m*3 3.4 C 0 km/h
Sensor: Nr:Datum:Temp:Abs-Feuchte:Windchill:Wind:
Aussen-T/F 951 07-05-2020 07:10:00 3.4 C 5.68 g/m*3 3.4 C 0 km/h
952 07-05-2020 07:15:00 3.4 C 5.68 g/m*3 3.4 C 0 km/h
953 07-05-2020 07:20:00 3.5 C 5.72 g/m*3 3.5 C 0 km/h
954 07-05-2020 07:25:00 3.6 C 5.76 g/m*3 3.6 C 0 km/h
955 07-05-2020 07:30:00 3.6 C 5.76 g/m*3 3.6 C 0 km/h
956 07-05-2020 07:35:00 3.6 C 5.76 g/m*3 3.6 C 0 km/h
957 07-05-2020 07:40:00 3.7 C 5.8 g/m*3 3.7 C 0 km/h
958 07-05-2020 07:45:00 3.7 C 5.8 g/m*3 3.7 C 1.6 km/h
959 07-05-2020 07:50:00 3.8 C 5.83 g/m*3 3.8 C 0 km/h
960 07-05-2020 07:55:00 3.8 C 5.83 g/m*3 3.8 C 0 km/h
961 07-05-2020 08:00:00 3.9 C 5.87 g/m*3 3.9 C 0 km/h
962 07-05-2020 08:05:00 3.9 C 5.94 g/m*3 3.9 C 0 km/h
963 07-05-2020 08:10:00 4 C 5.91 g/m*3 4 C 0 km/h
964 07-05-2020 08:15:00 4.1 C 5.95 g/m*3 4.1 C 0 km/h
965 07-05-2020 08:20:00 4.2 C 6.06 g/m*3 4.2 C 0 km/h
966 07-05-2020 08:25:00 4.3 C 6.1 g/m*3 4.3 C 0 km/h
967 07-05-2020 08:30:00 4.4 C 6.14 g/m*3 4.4 C 0 km/h
968 07-05-2020 08:35:00 4.6 C 6.22 g/m*3 4.6 C 0 km/h
969 07-05-2020 08:40:00 4.7 C 6.26 g/m*3 4.7 C 1.6 km/h
970 07-05-2020 08:45:00 4.8 C 6.3 g/m*3 4.8 C 0 km/h
971 07-05-2020 08:50:00 4.9 C 6.28 g/m*3 4.9 C 0 km/h
972 07-05-2020 08:55:00 5.1 C 6.43 g/m*3 5.1 C 0 km/h
973 07-05-2020 09:00:00 5.2 C 6.47 g/m*3 5.2 C 0 km/h
974 07-05-2020 09:05:00 5.4 C 6.56 g/m*3 5.4 C 0 km/h
975 07-05-2020 09:10:00 5.6 C 6.65 g/m*3 5.6 C 0 km/h
Sensor: Nr:Datum:Temp:Abs-Feuchte:Windchill:Wind:
Aussen-T/F 976 07-05-2020 09:15:00 5.8 C 6.73 g/m*3 5.8 C 0 km/h
977 07-05-2020 09:20:00 5.9 C 6.78 g/m*3 5.9 C 0 km/h
978 07-05-2020 09:25:00 6.2 C 6.91 g/m*3 6.2 C 0 km/h
979 07-05-2020 09:30:00 6.3 C 6.96 g/m*3 6.3 C 0 km/h
980 07-05-2020 09:35:00 6.5 C 7.05 g/m*3 6.5 C 0 km/h
981 07-05-2020 09:40:00 6.7 C 7.14 g/m*3 6.7 C 0 km/h
982 07-05-2020 09:45:00 6.9 C 7.16 g/m*3 6.9 C 0 km/h
983 07-05-2020 09:50:00 7.1 C 7.25 g/m*3 7.1 C 0 km/h
984 07-05-2020 09:55:00 7.3 C 7.35 g/m*3 7.3 C 0 km/h
985 07-05-2020 10:00:00 7.6 C 7.49 g/m*3 7.6 C 0 km/h
986 07-05-2020 10:05:00 7.8 C 7.51 g/m*3 7.8 C 0 km/h
987 07-05-2020 10:10:00 8.1 C 7.57 g/m*3 8.1 C 0 km/h
988 07-05-2020 10:15:00 8.3 C 7.67 g/m*3 8.3 C 0 km/h
989 07-05-2020 10:20:00 8.6 C 7.73 g/m*3 8.6 C 1.6 km/h
990 07-05-2020 10:25:00 8.9 C 7.8 g/m*3 8.9 C 0 km/h
991 07-05-2020 10:30:00 9.2 C 7.95 g/m*3 9.2 C 0 km/h
992 07-05-2020 10:35:00 9.4 C 7.96 g/m*3 9.4 C 0 km/h
993 07-05-2020 10:40:00 9.8 C 8.07 g/m*3 9.8 C 1.6 km/h
994 07-05-2020 10:45:00 10.2 C 7.99 g/m*3 10.2 C 3.2 km/h
995 07-05-2020 10:50:00 10.6 C 8.1 g/m*3 10.6 C 1.6 km/h
996 07-05-2020 10:55:00 11.2 C 7.8 g/m*3 11.2 C 1.6 km/h
997 07-05-2020 11:00:00 11.7 C 7.74 g/m*3 11.7 C 3.2 km/h
998 07-05-2020 11:05:00 12.2 C 7.55 g/m*3 12.2 C 3.2 km/h
999 07-05-2020 11:10:00 12.7 C 7.79 g/m*3 12.7 C 1.6 km/h
1000 07-05-2020 11:15:00 13.2 C 7.92 g/m*3 13.2 C 3.2 km/h
Sensor: Nr:Datum:Temp:Abs-Feuchte:Windchill:Wind:
Aussen-T/F 1001 07-05-2020 11:20:00 13.5 C 8.19 g/m*3 13.5 C 1.6 km/h
1002 07-05-2020 11:25:00 13.8 C 7.86 g/m*3 13.8 C 0 km/h
1003 07-05-2020 11:30:00 14.1 C 7.65 g/m*3 14.1 C 1.6 km/h
1004 07-05-2020 11:35:00 14.4 C 8.28 g/m*3 14.4 C 0 km/h
1005 07-05-2020 11:40:00 14.7 C 8.56 g/m*3 14.7 C 0 km/h
1006 07-05-2020 11:45:00 14.8 C 7.98 g/m*3 14.8 C 0 km/h
1007 07-05-2020 11:50:00 15.1 C 7.35 g/m*3 15.1 C 3.2 km/h
1008 07-05-2020 11:55:00 15.4 C 7.36 g/m*3 15.4 C 6.4 km/h
1009 07-05-2020 12:00:00 15.7 C 7.49 g/m*3 15.7 C 4.8 km/h
1010 07-05-2020 12:05:00 15.9 C 7.31 g/m*3 15.9 C 4.8 km/h
1011 07-05-2020 12:10:00 16 C 6.54 g/m*3 16 C 6.4 km/h
1012 07-05-2020 12:15:00 16.1 C 6.17 g/m*3 16.1 C 4.8 km/h
1013 07-05-2020 12:20:00 16.2 C 6.48 g/m*3 16.2 C 4.8 km/h
1014 07-05-2020 12:25:00 16.4 C 6.28 g/m*3 16.4 C 8.1 km/h
1015 07-05-2020 12:30:00 16.7 C 6.25 g/m*3 16.7 C 3.2 km/h
1016 07-05-2020 12:35:00 16.7 C 6.25 g/m*3 16.7 C 9.7 km/h
1017 07-05-2020 12:40:00 16.8 C 6.29 g/m*3 16.8 C 9.7 km/h
1018 07-05-2020 12:45:00 16.9 C 6.04 g/m*3 16.9 C 9.7 km/h
1019 07-05-2020 12:50:00 16.9 C 6.18 g/m*3 16.9 C 3.2 km/h
1020 07-05-2020 12:55:00 17.1 C 6.55 g/m*3 17.1 C 3.2 km/h
1021 07-05-2020 13:00:00 17.2 C 6.74 g/m*3 17.2 C 8.1 km/h
1022 07-05-2020 13:05:00 17.3 C 7.07 g/m*3 17.3 C 8.1 km/h
1023 07-05-2020 13:10:00 17.4 C 7.11 g/m*3 17.4 C 4.8 km/h
1024 07-05-2020 13:15:00 17.6 C 7.05 g/m*3 17.6 C 6.4 km/h
1025 07-05-2020 13:20:00 17.7 C 6.94 g/m*3 17.7 C 9.7 km/h
Sensor: Nr:Datum:Temp:Abs-Feuchte:Windchill:Wind:
Aussen-T/F 1026 07-05-2020 13:25:00 17.8 C 6.98 g/m*3 17.8 C 11.3 km/h
1027 07-05-2020 13:30:00 17.8 C 6.83 g/m*3 17.8 C 6.4 km/h
1028 07-05-2020 13:35:00 17.9 C 6.87 g/m*3 17.9 C 8.1 km/h
1029 07-05-2020 13:40:00 17.9 C 6.87 g/m*3 17.9 C 8.1 km/h
1030 07-05-2020 13:45:00 18.1 C 6.8 g/m*3 18.1 C 12.9 km/h
1031 07-05-2020 13:50:00 18.4 C 7.08 g/m*3 18.4 C 6.4 km/h
1032 07-05-2020 13:55:00 18.6 C 6.84 g/m*3 18.6 C 11.3 km/h
1033 07-05-2020 14:00:00 18.6 C 6.84 g/m*3 18.6 C 8.1 km/h
1034 07-05-2020 14:05:00 18.6 C 6.68 g/m*3 18.6 C 8.1 km/h
1035 07-05-2020 14:10:00 18.6 C 6.68 g/m*3 18.6 C 4.8 km/h
1036 07-05-2020 14:15:00 18.6 C 6.68 g/m*3 18.6 C 9.7 km/h
1037 07-05-2020 14:20:00 18.8 C 6.6 g/m*3 18.8 C 9.7 km/h
1038 07-05-2020 14:25:00 18.9 C 6.8 g/m*3 18.9 C 8.1 km/h
1039 07-05-2020 14:30:00 19.1 C 6.88 g/m*3 19.1 C 4.8 km/h
1040 07-05-2020 14:35:00 19.2 C 6.6 g/m*3 19.2 C 6.4 km/h
1041 07-05-2020 14:40:00 19.3 C 6.63 g/m*3 19.3 C 4.8 km/h
1042 07-05-2020 14:45:00 19.4 C 6.84 g/m*3 19.4 C 6.4 km/h
1043 07-05-2020 14:50:00 19.8 C 6.49 g/m*3 19.8 C 11.3 km/h
1044 07-05-2020 14:55:00 19.9 C 6.53 g/m*3 19.9 C 6.4 km/h
1045 07-05-2020 15:00:00 20 C 6.39 g/m*3 20 C 11.3 km/h
1046 07-05-2020 15:05:00 20.1 C 6.61 g/m*3 20.1 C 8.1 km/h
1047 07-05-2020 15:10:00 20.2 C 6.82 g/m*3 20.2 C 6.4 km/h
1048 07-05-2020 15:15:00 20.2 C 6.82 g/m*3 20.2 C 8.1 km/h
1049 07-05-2020 15:20:00 20.5 C 6.76 g/m*3 20.5 C 6.4 km/h
1050 07-05-2020 15:25:00 20.7 C 6.66 g/m*3 20.7 C 6.4 km/h
Sensor: Nr:Datum:Temp:Abs-Feuchte:Windchill:Wind:
Aussen-T/F 1051 07-05-2020 15:30:00 20.8 C 6.34 g/m*3 20.8 C 9.7 km/h
1052 07-05-2020 15:35:00 20.9 C 7.1 g/m*3 20.9 C 4.8 km/h
1053 07-05-2020 15:40:00 21.3 C 6.71 g/m*3 21.3 C 6.4 km/h
1054 07-05-2020 15:45:00 21.4 C 6.56 g/m*3 21.4 C 8.1 km/h
1055 07-05-2020 15:50:00 21.6 C 6.64 g/m*3 21.6 C 8.1 km/h
1056 07-05-2020 15:55:00 21.8 C 6.91 g/m*3 21.8 C 4.8 km/h
1057 07-05-2020 16:00:00 22.2 C 7.07 g/m*3 22.2 C 8.1 km/h
1058 07-05-2020 16:05:00 22.6 C 6.83 g/m*3 22.6 C 8.1 km/h
1059 07-05-2020 16:10:00 22.8 C 7.11 g/m*3 22.8 C 6.4 km/h
1060 07-05-2020 16:15:00 22.9 C 6.74 g/m*3 22.9 C 4.8 km/h
1061 07-05-2020 16:20:00 22.9 C 6.74 g/m*3 22.9 C 6.4 km/h
1062 07-05-2020 16:25:00 22.7 C 6.67 g/m*3 22.7 C 6.4 km/h
1063 07-05-2020 16:30:00 22.7 C 7.07 g/m*3 22.7 C 8.1 km/h
1064 07-05-2020 16:35:00 22.8 C 6.91 g/m*3 22.8 C 6.4 km/h
1065 07-05-2020 16:40:00 22.8 C 6.91 g/m*3 22.8 C 6.4 km/h
1066 07-05-2020 16:45:00 23.1 C 7.23 g/m*3 23.1 C 3.2 km/h
1067 07-05-2020 16:50:00 23.4 C 7.15 g/m*3 23.4 C 6.4 km/h
1068 07-05-2020 16:55:00 23.4 C 6.94 g/m*3 23.4 C 6.4 km/h
1069 07-05-2020 17:00:00 23.3 C 6.69 g/m*3 23.3 C 6.4 km/h
1070 07-05-2020 17:05:00 23 C 6.58 g/m*3 23 C 9.7 km/h
1071 07-05-2020 17:10:00 22.7 C 6.87 g/m*3 22.7 C 11.3 km/h
1072 07-05-2020 17:15:00 22.8 C 6.91 g/m*3 22.8 C 9.7 km/h
1073 07-05-2020 17:20:00 22.9 C 6.74 g/m*3 22.9 C 4.8 km/h
1074 07-05-2020 17:25:00 23.1 C 6.82 g/m*3 23.1 C 4.8 km/h
1075 07-05-2020 17:30:00 23.4 C 7.15 g/m*3 23.4 C 3.2 km/h
Sensor: Nr:Datum:Temp:Abs-Feuchte:Windchill:Wind:
Aussen-T/F 1076 07-05-2020 17:35:00 23.8 C 7.1 g/m*3 23.8 C 1.6 km/h
1077 07-05-2020 17:40:00 23.8 C 6.88 g/m*3 23.8 C 6.4 km/h
1078 07-05-2020 17:45:00 23.5 C 6.77 g/m*3 23.5 C 8.1 km/h
1079 07-05-2020 17:50:00 23.1 C 6.82 g/m*3 23.1 C 8.1 km/h
1080 07-05-2020 17:55:00 23.3 C 6.69 g/m*3 23.3 C 6.4 km/h
1081 07-05-2020 18:00:00 23.4 C 6.73 g/m*3 23.4 C 6.4 km/h
1082 07-05-2020 18:05:00 23.4 C 6.73 g/m*3 23.4 C 8.1 km/h
1083 07-05-2020 18:10:00 23.3 C 6.69 g/m*3 23.3 C 8.1 km/h
1084 07-05-2020 18:15:00 23.3 C 6.9 g/m*3 23.3 C 6.4 km/h
1085 07-05-2020 18:20:00 23.2 C 6.86 g/m*3 23.2 C 6.4 km/h
1086 07-05-2020 18:25:00 23.2 C 6.86 g/m*3 23.2 C 6.4 km/h
1087 07-05-2020 18:30:00 23.3 C 7.11 g/m*3 23.3 C 3.2 km/h
1088 07-05-2020 18:35:00 23.6 C 6.81 g/m*3 23.6 C 6.4 km/h
1089 07-05-2020 18:40:00 23.8 C 6.88 g/m*3 23.8 C 8.1 km/h
1090 07-05-2020 18:45:00 23.6 C 7.23 g/m*3 23.6 C 8.1 km/h
1091 07-05-2020 18:50:00 23.6 C 6.81 g/m*3 23.6 C 6.4 km/h
1092 07-05-2020 18:55:00 23.4 C 6.73 g/m*3 23.4 C 6.4 km/h
1093 07-05-2020 19:00:00 23.3 C 7.53 g/m*3 23.3 C 3.2 km/h
1094 07-05-2020 19:05:00 23.4 C 6.94 g/m*3 23.4 C 4.8 km/h
1095 07-05-2020 19:10:00 23.4 C 6.94 g/m*3 23.4 C 6.4 km/h
1096 07-05-2020 19:15:00 23.2 C 7.07 g/m*3 23.2 C 8.1 km/h
1097 07-05-2020 19:20:00 22.9 C 6.74 g/m*3 22.9 C 6.4 km/h
1098 07-05-2020 19:25:00 22.8 C 6.91 g/m*3 22.8 C 4.8 km/h
1099 07-05-2020 19:30:00 22.7 C 7.07 g/m*3 22.7 C 4.8 km/h
1100 07-05-2020 19:35:00 22.7 C 8.89 g/m*3 22.7 C 3.2 km/h
Sensor: Nr:Datum:Temp:Abs-Feuchte:Windchill:Wind:
Aussen-T/F 1101 07-05-2020 19:40:00 22.4 C 9.14 g/m*3 22.4 C 3.2 km/h
1102 07-05-2020 19:45:00 22.1 C 8.98 g/m*3 22.1 C 3.2 km/h
1103 07-05-2020 19:50:00 21.8 C 9.21 g/m*3 21.8 C 3.2 km/h
1104 07-05-2020 19:55:00 21.3 C 8.95 g/m*3 21.3 C 3.2 km/h
1105 07-05-2020 20:00:00 20.8 C 8.87 g/m*3 20.8 C 4.8 km/h
1106 07-05-2020 20:05:00 20.3 C 8.62 g/m*3 20.3 C 6.4 km/h
1107 07-05-2020 20:10:00 19.8 C 8.54 g/m*3 19.8 C 6.4 km/h
1108 07-05-2020 20:15:00 19.2 C 8.57 g/m*3 19.2 C 4.8 km/h
1109 07-05-2020 20:20:00 18.7 C 8.49 g/m*3 18.7 C 6.4 km/h
1110 07-05-2020 20:25:00 18.2 C 8.08 g/m*3 18.2 C 6.4 km/h
1111 07-05-2020 20:30:00 17.8 C 8.2 g/m*3 17.8 C 4.8 km/h
1112 07-05-2020 20:35:00 17.4 C 8.15 g/m*3 17.4 C 6.4 km/h
1113 07-05-2020 20:40:00 17.2 C 7.91 g/m*3 17.2 C 8.1 km/h
1114 07-05-2020 20:45:00 16.9 C 7.77 g/m*3 16.9 C 8.1 km/h
1115 07-05-2020 20:50:00 16.7 C 7.67 g/m*3 16.7 C 8.1 km/h
1116 07-05-2020 20:55:00 16.6 C 7.77 g/m*3 16.6 C 4.8 km/h
1117 07-05-2020 21:00:00 16.3 C 7.91 g/m*3 16.3 C 6.4 km/h
1118 07-05-2020 21:05:00 16.2 C 8 g/m*3 16.2 C 6.4 km/h
1119 07-05-2020 21:10:00 16 C 7.9 g/m*3 16 C 4.8 km/h
1120 07-05-2020 21:15:00 15.8 C 7.81 g/m*3 15.8 C 6.4 km/h
1121 07-05-2020 21:20:00 15.6 C 7.98 g/m*3 15.6 C 4.8 km/h
1122 07-05-2020 21:25:00 15.4 C 8.01 g/m*3 15.4 C 4.8 km/h
1123 07-05-2020 21:30:00 15.2 C 8.05 g/m*3 15.2 C 3.2 km/h
1124 07-05-2020 21:35:00 15 C 8.21 g/m*3 15 C 1.6 km/h
1125 07-05-2020 21:40:00 14.8 C 8.11 g/m*3 14.8 C 1.6 km/h
Sensor: Nr:Datum:Temp:Abs-Feuchte:Windchill:Wind:
Aussen-T/F 1126 07-05-2020 21:45:00 14.5 C 8.08 g/m*3 14.5 C 1.6 km/h
1127 07-05-2020 21:50:00 14.3 C 8.11 g/m*3 14.3 C 3.2 km/h
1128 07-05-2020 21:55:00 14.1 C 8.13 g/m*3 14.1 C 1.6 km/h
1129 07-05-2020 22:00:00 13.9 C 8.03 g/m*3 13.9 C 0 km/h
1130 07-05-2020 22:05:00 13.7 C 8.05 g/m*3 13.7 C 0 km/h
1131 07-05-2020 22:10:00 13.4 C 8.02 g/m*3 13.4 C 0 km/h
1132 07-05-2020 22:15:00 13.3 C 8.09 g/m*3 13.3 C 0 km/h
1133 07-05-2020 22:20:00 13.2 C 8.04 g/m*3 13.2 C 0 km/h
1134 07-05-2020 22:25:00 13.1 C 8.1 g/m*3 13.1 C 1.6 km/h
1135 07-05-2020 22:30:00 12.9 C 8 g/m*3 12.9 C 0 km/h
1136 07-05-2020 22:35:00 12.8 C 8.06 g/m*3 12.8 C 0 km/h
1137 07-05-2020 22:40:00 12.7 C 8.01 g/m*3 12.7 C 0 km/h
1138 07-05-2020 22:45:00 12.6 C 7.97 g/m*3 12.6 C 0 km/h
1139 07-05-2020 22:50:00 12.5 C 7.92 g/m*3 12.5 C 0 km/h
1140 07-05-2020 22:55:00 12.4 C 7.87 g/m*3 12.4 C 0 km/h
1141 07-05-2020 23:00:00 12.3 C 7.82 g/m*3 12.3 C 0 km/h
1142 07-05-2020 23:05:00 12.1 C 7.72 g/m*3 12.1 C 0 km/h
1143 07-05-2020 23:10:00 12 C 7.67 g/m*3 12 C 0 km/h
1144 07-05-2020 23:15:00 11.8 C 7.58 g/m*3 11.8 C 1.6 km/h
1145 07-05-2020 23:20:00 11.7 C 7.53 g/m*3 11.7 C 0 km/h
1146 07-05-2020 23:25:00 11.7 C 7.64 g/m*3 11.7 C 0 km/h
1147 07-05-2020 23:30:00 11.6 C 7.59 g/m*3 11.6 C 0 km/h
1148 07-05-2020 23:35:00 11.7 C 7.84 g/m*3 11.7 C 0 km/h
1149 07-05-2020 23:40:00 11.7 C 7.95 g/m*3 11.7 C 0 km/h
1150 07-05-2020 23:45:00 11.7 C 7.95 g/m*3 11.7 C 0 km/h
Sensor: Nr:Datum:Temp:Abs-Feuchte:Windchill:Wind:
Aussen-T/F 1151 07-05-2020 23:50:00 11.5 C 7.75 g/m*3 11.5 C 0 km/h
1152 07-05-2020 23:55:00 11.4 C 7.7 g/m*3 11.4 C 0 km/h
1153 08-05-2020 00:00:00 11.3 C 7.75 g/m*3 11.3 C 0 km/h
1154 08-05-2020 00:05:00 11.2 C 7.6 g/m*3 11.2 C 0 km/h
1155 08-05-2020 00:10:00 11 C 7.51 g/m*3 11 C 0 km/h
1156 08-05-2020 00:15:00 10.9 C 7.56 g/m*3 10.9 C 0 km/h
1157 08-05-2020 00:20:00 10.8 C 7.51 g/m*3 10.8 C 0 km/h
1158 08-05-2020 00:25:00 10.7 C 7.46 g/m*3 10.7 C 0 km/h
1159 08-05-2020 00:30:00 10.6 C 7.42 g/m*3 10.6 C 0 km/h
1160 08-05-2020 00:35:00 10.5 C 7.37 g/m*3 10.5 C 0 km/h
1161 08-05-2020 00:40:00 10.4 C 7.32 g/m*3 10.4 C 0 km/h
1162 08-05-2020 00:45:00 10.3 C 7.37 g/m*3 10.3 C 0 km/h
1163 08-05-2020 00:50:00 10.2 C 7.42 g/m*3 10.2 C 0 km/h
1164 08-05-2020 00:55:00 10.1 C 7.38 g/m*3 10.1 C 0 km/h
1165 08-05-2020 01:00:00 10 C 7.33 g/m*3 10 C 0 km/h
1166 08-05-2020 01:05:00 9.9 C 7.38 g/m*3 9.9 C 3.2 km/h
1167 08-05-2020 01:10:00 9.8 C 7.33 g/m*3 9.8 C 4.8 km/h
1168 08-05-2020 01:15:00 9.8 C 7.33 g/m*3 9.8 C 0 km/h
1169 08-05-2020 01:20:00 9.8 C 7.42 g/m*3 9.8 C 0 km/h
1170 08-05-2020 01:25:00 9.8 C 7.52 g/m*3 9.8 C 0 km/h
1171 08-05-2020 01:30:00 9.8 C 7.52 g/m*3 9.8 C 0 km/h
1172 08-05-2020 01:35:00 9.8 C 7.52 g/m*3 9.8 C 0 km/h
1173 08-05-2020 01:40:00 9.8 C 7.52 g/m*3 9.8 C 0 km/h
1174 08-05-2020 01:45:00 9.8 C 7.52 g/m*3 9.8 C 0 km/h
1175 08-05-2020 01:50:00 9.8 C 7.52 g/m*3 9.8 C 0 km/h
Sensor: Nr:Datum:Temp:Abs-Feuchte:Windchill:Wind:
Aussen-T/F 1176 08-05-2020 01:55:00 9.8 C 7.52 g/m*3 9.8 C 0 km/h
1177 08-05-2020 02:00:00 9.8 C 7.52 g/m*3 9.8 C 0 km/h
1178 08-05-2020 02:05:00 9.8 C 7.52 g/m*3 9.8 C 0 km/h
1179 08-05-2020 02:10:00 9.7 C 7.56 g/m*3 9.7 C 0 km/h
1180 08-05-2020 02:15:00 9.6 C 7.51 g/m*3 9.6 C 0 km/h
1181 08-05-2020 02:20:00 9.4 C 7.42 g/m*3 9.4 C 0 km/h
1182 08-05-2020 02:25:00 9.3 C 7.37 g/m*3 9.3 C 0 km/h
1183 08-05-2020 02:30:00 9.2 C 7.41 g/m*3 9.2 C 0 km/h
1184 08-05-2020 02:35:00 9.1 C 7.36 g/m*3 9.1 C 0 km/h
1185 08-05-2020 02:40:00 9 C 7.32 g/m*3 9 C 0 km/h
1186 08-05-2020 02:45:00 8.9 C 7.27 g/m*3 8.9 C 0 km/h
1187 08-05-2020 02:50:00 8.8 C 7.31 g/m*3 8.8 C 0 km/h
1188 08-05-2020 02:55:00 8.7 C 7.26 g/m*3 8.7 C 0 km/h
1189 08-05-2020 03:00:00 8.6 C 7.22 g/m*3 8.6 C 0 km/h
1190 08-05-2020 03:05:00 8.6 C 7.22 g/m*3 8.6 C 0 km/h
1191 08-05-2020 03:10:00 8.4 C 7.21 g/m*3 8.4 C 0 km/h
1192 08-05-2020 03:15:00 8.4 C 7.21 g/m*3 8.4 C 0 km/h
1193 08-05-2020 03:20:00 8.3 C 7.25 g/m*3 8.3 C 0 km/h
1194 08-05-2020 03:25:00 8.3 C 7.25 g/m*3 8.3 C 0 km/h
1195 08-05-2020 03:30:00 8.3 C 7.25 g/m*3 8.3 C 0 km/h
1196 08-05-2020 03:35:00 8.2 C 7.2 g/m*3 8.2 C 0 km/h
1197 08-05-2020 03:40:00 8.2 C 7.2 g/m*3 8.2 C 0 km/h
1198 08-05-2020 03:45:00 8.1 C 7.16 g/m*3 8.1 C 0 km/h
1199 08-05-2020 03:50:00 8 C 7.19 g/m*3 8 C 0 km/h
1200 08-05-2020 03:55:00 7.9 C 7.15 g/m*3 7.9 C 0 km/h
Sensor: Nr:Datum:Temp:Abs-Feuchte:Windchill:Wind:
Aussen-T/F 1201 08-05-2020 04:00:00 8 C 7.19 g/m*3 8 C 0 km/h
1202 08-05-2020 04:05:00 7.9 C 7.15 g/m*3 7.9 C 0 km/h
1203 08-05-2020 04:10:00 7.8 C 7.1 g/m*3 7.8 C 0 km/h
1204 08-05-2020 04:15:00 7.7 C 7.05 g/m*3 7.7 C 0 km/h
1205 08-05-2020 04:20:00 7.7 C 7.14 g/m*3 7.7 C 0 km/h
1206 08-05-2020 04:25:00 7.6 C 7.01 g/m*3 7.6 C 0 km/h
1207 08-05-2020 04:30:00 7.5 C 7.04 g/m*3 7.5 C 0 km/h
1208 08-05-2020 04:35:00 7.5 C 7.04 g/m*3 7.5 C 0 km/h
1209 08-05-2020 04:40:00 7.4 C 7 g/m*3 7.4 C 0 km/h
1210 08-05-2020 04:45:00 7.4 C 7.08 g/m*3 7.4 C 0 km/h
1211 08-05-2020 04:50:00 7.5 C 7.12 g/m*3 7.5 C 0 km/h
1212 08-05-2020 04:55:00 7.4 C 7.08 g/m*3 7.4 C 0 km/h
1213 08-05-2020 05:00:00 7.5 C 7.12 g/m*3 7.5 C 1.6 km/h
1214 08-05-2020 05:05:00 7.6 C 7.17 g/m*3 7.6 C 0 km/h
1215 08-05-2020 05:10:00 7.6 C 7.25 g/m*3 7.6 C 0 km/h
1216 08-05-2020 05:15:00 7.7 C 7.3 g/m*3 7.7 C 0 km/h
1217 08-05-2020 05:20:00 7.8 C 7.35 g/m*3 7.8 C 3.2 km/h
1218 08-05-2020 05:25:00 7.8 C 7.26 g/m*3 7.8 C 0 km/h
1219 08-05-2020 05:30:00 7.7 C 7.22 g/m*3 7.7 C 0 km/h
1220 08-05-2020 05:35:00 7.7 C 7.22 g/m*3 7.7 C 0 km/h
1221 08-05-2020 05:40:00 7.6 C 7.17 g/m*3 7.6 C 0 km/h
1222 08-05-2020 05:45:00 7.6 C 7.17 g/m*3 7.6 C 0 km/h
1223 08-05-2020 05:50:00 7.6 C 7.17 g/m*3 7.6 C 0 km/h
1224 08-05-2020 05:55:00 7.6 C 7.25 g/m*3 7.6 C 0 km/h
1225 08-05-2020 06:00:00 7.5 C 7.2 g/m*3 7.5 C 0 km/h
Sensor: Nr:Datum:Temp:Abs-Feuchte:Windchill:Wind:
Aussen-T/F 1226 08-05-2020 06:05:00 7.4 C 7.16 g/m*3 7.4 C 0 km/h
1227 08-05-2020 06:10:00 7.4 C 7.16 g/m*3 7.4 C 0 km/h
1228 08-05-2020 06:15:00 7.4 C 7.16 g/m*3 7.4 C 0 km/h
1229 08-05-2020 06:20:00 7.3 C 7.11 g/m*3 7.3 C 0 km/h
1230 08-05-2020 06:25:00 7.3 C 7.11 g/m*3 7.3 C 1.6 km/h
1231 08-05-2020 06:30:00 7.2 C 7.06 g/m*3 7.2 C 0 km/h
1232 08-05-2020 06:35:00 7.1 C 7.02 g/m*3 7.1 C 0 km/h
1233 08-05-2020 06:40:00 7.1 C 7.02 g/m*3 7.1 C 0 km/h
1234 08-05-2020 06:45:00 7 C 6.97 g/m*3 7 C 0 km/h
1235 08-05-2020 06:50:00 6.9 C 6.93 g/m*3 6.9 C 0 km/h
1236 08-05-2020 06:55:00 6.9 C 7.01 g/m*3 6.9 C 0 km/h
1237 08-05-2020 07:00:00 6.8 C 6.96 g/m*3 6.8 C 0 km/h
1238 08-05-2020 07:05:00 6.8 C 6.96 g/m*3 6.8 C 0 km/h
1239 08-05-2020 07:10:00 6.9 C 7.08 g/m*3 6.9 C 0 km/h
1240 08-05-2020 07:15:00 7.1 C 7.18 g/m*3 7.1 C 0 km/h
1241 08-05-2020 07:20:00 7.3 C 7.35 g/m*3 7.3 C 0 km/h
1242 08-05-2020 07:25:00 7.4 C 7.32 g/m*3 7.4 C 0 km/h
1243 08-05-2020 07:30:00 7.4 C 7.32 g/m*3 7.4 C 0 km/h
1244 08-05-2020 07:35:00 7.4 C 7.32 g/m*3 7.4 C 1.6 km/h
1245 08-05-2020 07:40:00 7.4 C 7.32 g/m*3 7.4 C 3.2 km/h
1246 08-05-2020 07:45:00 7.5 C 7.36 g/m*3 7.5 C 0 km/h
1247 08-05-2020 07:50:00 7.6 C 7.41 g/m*3 7.6 C 0 km/h
1248 08-05-2020 07:55:00 7.7 C 7.46 g/m*3 7.7 C 0 km/h
1249 08-05-2020 08:00:00 7.8 C 7.59 g/m*3 7.8 C 0 km/h
1250 08-05-2020 08:05:00 8.1 C 7.74 g/m*3 8.1 C 1.6 km/h
Sensor: Nr:Datum:Temp:Abs-Feuchte:Windchill:Wind:
Aussen-T/F 1251 08-05-2020 08:10:00 8.2 C 7.7 g/m*3 8.2 C 0 km/h
1252 08-05-2020 08:15:00 8.3 C 7.75 g/m*3 8.3 C 0 km/h
1253 08-05-2020 08:20:00 8.4 C 7.8 g/m*3 8.4 C 0 km/h
1254 08-05-2020 08:25:00 8.5 C 7.77 g/m*3 8.5 C 0 km/h
1255 08-05-2020 08:30:00 8.5 C 7.77 g/m*3 8.5 C 0 km/h
1256 08-05-2020 08:35:00 8.6 C 7.82 g/m*3 8.6 C 0 km/h
1257 08-05-2020 08:40:00 8.6 C 7.82 g/m*3 8.6 C 0 km/h
1258 08-05-2020 08:45:00 8.7 C 7.87 g/m*3 8.7 C 0 km/h
1259 08-05-2020 08:50:00 8.7 C 7.87 g/m*3 8.7 C 0 km/h
1260 08-05-2020 08:55:00 8.8 C 7.92 g/m*3 8.8 C 0 km/h
1261 08-05-2020 09:00:00 8.9 C 7.97 g/m*3 8.9 C 1.6 km/h
1262 08-05-2020 09:05:00 9.1 C 8.07 g/m*3 9.1 C 0 km/h
1263 08-05-2020 09:10:00 9.2 C 8.13 g/m*3 9.2 C 1.6 km/h
1264 08-05-2020 09:15:00 9.4 C 8.14 g/m*3 9.4 C 3.2 km/h
1265 08-05-2020 09:20:00 9.7 C 8.3 g/m*3 9.7 C 0 km/h
1266 08-05-2020 09:25:00 9.8 C 8.35 g/m*3 9.8 C 0 km/h
1267 08-05-2020 09:30:00 10 C 8.36 g/m*3 10 C 0 km/h
1268 08-05-2020 09:35:00 10.2 C 8.47 g/m*3 10.2 C 0 km/h
1269 08-05-2020 09:40:00 10.3 C 8.52 g/m*3 10.3 C 0 km/h
1270 08-05-2020 09:45:00 10.5 C 8.73 g/m*3 10.5 C 0 km/h
1271 08-05-2020 09:50:00 10.7 C 8.84 g/m*3 10.7 C 0 km/h
1272 08-05-2020 09:55:00 10.8 C 8.8 g/m*3 10.8 C 0 km/h
1273 08-05-2020 10:00:00 11 C 8.91 g/m*3 11 C 0 km/h
1274 08-05-2020 10:05:00 11.2 C 9.02 g/m*3 11.2 C 0 km/h
1275 08-05-2020 10:10:00 11.4 C 9.03 g/m*3 11.4 C 0 km/h
Sensor: Nr:Datum:Temp:Abs-Feuchte:Windchill:Wind:
Aussen-T/F 1276 08-05-2020 10:15:00 11.6 C 9.04 g/m*3 11.6 C 0 km/h
1277 08-05-2020 10:20:00 11.8 C 9.05 g/m*3 11.8 C 0 km/h
1278 08-05-2020 10:25:00 12.2 C 9.28 g/m*3 12.2 C 0 km/h
1279 08-05-2020 10:30:00 12.4 C 9.29 g/m*3 12.4 C 0 km/h
1280 08-05-2020 10:35:00 12.7 C 9.35 g/m*3 12.7 C 0 km/h
1281 08-05-2020 10:40:00 13 C 9.53 g/m*3 13 C 0 km/h
1282 08-05-2020 10:45:00 13.5 C 9.24 g/m*3 13.5 C 0 km/h
1283 08-05-2020 10:50:00 14.1 C 8.98 g/m*3 14.1 C 1.6 km/h
1284 08-05-2020 10:55:00 14.6 C 9.13 g/m*3 14.6 C 1.6 km/h
1285 08-05-2020 11:00:00 15 C 9.49 g/m*3 15 C 1.6 km/h
1286 08-05-2020 11:05:00 15.3 C 9.53 g/m*3 15.3 C 3.2 km/h
1287 08-05-2020 11:10:00 15.5 C 9.78 g/m*3 15.5 C 1.6 km/h
1288 08-05-2020 11:15:00 15.8 C 9.83 g/m*3 15.8 C 0 km/h
1289 08-05-2020 11:20:00 15.9 C 9.75 g/m*3 15.9 C 0 km/h
1290 08-05-2020 11:25:00 16.2 C 9.79 g/m*3 16.2 C 1.6 km/h
1291 08-05-2020 11:30:00 16.4 C 9.63 g/m*3 16.4 C 0 km/h
1292 08-05-2020 11:35:00 16.7 C 9.52 g/m*3 16.7 C 1.6 km/h
1293 08-05-2020 11:40:00 17.1 C 9.17 g/m*3 17.1 C 3.2 km/h
1294 08-05-2020 11:45:00 17.4 C 8.89 g/m*3 17.4 C 3.2 km/h
1295 08-05-2020 11:50:00 17.7 C 8.75 g/m*3 17.7 C 1.6 km/h
1296 08-05-2020 11:55:00 17.9 C 8.7 g/m*3 17.9 C 1.6 km/h
1297 08-05-2020 12:00:00 18.2 C 8.7 g/m*3 18.2 C 1.6 km/h
1298 08-05-2020 12:05:00 18.3 C 8.29 g/m*3 18.3 C 1.6 km/h
1299 08-05-2020 12:10:00 18.6 C 8.44 g/m*3 18.6 C 1.6 km/h
1300 08-05-2020 12:15:00 18.7 C 8.49 g/m*3 18.7 C 1.6 km/h
Sensor: Nr:Datum:Temp:Abs-Feuchte:Windchill:Wind:
Aussen-T/F 1301 08-05-2020 12:20:00 18.8 C 8.21 g/m*3 18.8 C 3.2 km/h
1302 08-05-2020 12:25:00 19 C 8.15 g/m*3 19 C 1.6 km/h
1303 08-05-2020 12:30:00 19.2 C 7.91 g/m*3 19.2 C 4.8 km/h
1304 08-05-2020 12:35:00 19.3 C 7.8 g/m*3 19.3 C 3.2 km/h
1305 08-05-2020 12:40:00 19.4 C 7.51 g/m*3 19.4 C 3.2 km/h
1306 08-05-2020 12:45:00 19.6 C 8.1 g/m*3 19.6 C 3.2 km/h
1307 08-05-2020 12:50:00 19.8 C 7.52 g/m*3 19.8 C 4.8 km/h
1308 08-05-2020 12:55:00 19.8 C 7.52 g/m*3 19.8 C 1.6 km/h
1309 08-05-2020 13:00:00 19.9 C 7.9 g/m*3 19.9 C 4.8 km/h
1310 08-05-2020 13:05:00 20.1 C 7.65 g/m*3 20.1 C 8.1 km/h
1311 08-05-2020 13:10:00 20.3 C 7.91 g/m*3 20.3 C 8.1 km/h
1312 08-05-2020 13:15:00 20.5 C 7.47 g/m*3 20.5 C 8.1 km/h
1313 08-05-2020 13:20:00 20.6 C 7.7 g/m*3 20.6 C 1.6 km/h
1314 08-05-2020 13:25:00 20.7 C 7.74 g/m*3 20.7 C 4.8 km/h
1315 08-05-2020 13:30:00 20.8 C 7.42 g/m*3 20.8 C 4.8 km/h
1316 08-05-2020 13:35:00 21 C 7.14 g/m*3 21 C 3.2 km/h
1317 08-05-2020 13:40:00 21.2 C 8.15 g/m*3 21.2 C 6.4 km/h
1318 08-05-2020 13:45:00 21.3 C 7.64 g/m*3 21.3 C 3.2 km/h
1319 08-05-2020 13:50:00 21.4 C 7.69 g/m*3 21.4 C 6.4 km/h
1320 08-05-2020 13:55:00 21.6 C 6.83 g/m*3 21.6 C 6.4 km/h
1321 08-05-2020 14:00:00 21.7 C 7.06 g/m*3 21.7 C 3.2 km/h
1322 08-05-2020 14:05:00 21.8 C 7.29 g/m*3 21.8 C 4.8 km/h
1323 08-05-2020 14:10:00 21.9 C 7.14 g/m*3 21.9 C 3.2 km/h
1324 08-05-2020 14:15:00 21.9 C 7.14 g/m*3 21.9 C 6.4 km/h
1325 08-05-2020 14:20:00 22.1 C 7.22 g/m*3 22.1 C 6.4 km/h
Sensor: Nr:Datum:Temp:Abs-Feuchte:Windchill:Wind:
Aussen-T/F 1326 08-05-2020 14:25:00 22.2 C 7.07 g/m*3 22.2 C 4.8 km/h
1327 08-05-2020 14:30:00 22.3 C 7.31 g/m*3 22.3 C 6.4 km/h
1328 08-05-2020 14:35:00 22.5 C 6.99 g/m*3 22.5 C 8.1 km/h
1329 08-05-2020 14:40:00 22.6 C 7.03 g/m*3 22.6 C 8.1 km/h
1330 08-05-2020 14:45:00 22.7 C 6.87 g/m*3 22.7 C 11.3 km/h
1331 08-05-2020 14:50:00 22.7 C 6.87 g/m*3 22.7 C 4.8 km/h
1332 08-05-2020 14:55:00 22.7 C 6.67 g/m*3 22.7 C 6.4 km/h
1333 08-05-2020 15:00:00 22.7 C 6.87 g/m*3 22.7 C 1.6 km/h
1334 08-05-2020 15:05:00 22.8 C 6.91 g/m*3 22.8 C 6.4 km/h
1335 08-05-2020 15:10:00 22.8 C 6.71 g/m*3 22.8 C 4.8 km/h
1336 08-05-2020 15:15:00 22.9 C 7.36 g/m*3 22.9 C 3.2 km/h
1337 08-05-2020 15:20:00 22.9 C 6.74 g/m*3 22.9 C 6.4 km/h
1338 08-05-2020 15:25:00 22.9 C 6.74 g/m*3 22.9 C 4.8 km/h
1339 08-05-2020 15:30:00 23 C 7.19 g/m*3 23 C 6.4 km/h
1340 08-05-2020 15:35:00 23.1 C 6.82 g/m*3 23.1 C 6.4 km/h
1341 08-05-2020 15:40:00 23.2 C 7.07 g/m*3 23.2 C 3.2 km/h
1342 08-05-2020 15:45:00 23.5 C 6.98 g/m*3 23.5 C 1.6 km/h
1343 08-05-2020 15:50:00 23.7 C 7.06 g/m*3 23.7 C 6.4 km/h
1344 08-05-2020 15:55:00 24.1 C 7.66 g/m*3 24.1 C 6.4 km/h
1345 08-05-2020 16:00:00 24.6 C 7.2 g/m*3 24.6 C 1.6 km/h
1346 08-05-2020 16:05:00 24.8 C 6.83 g/m*3 24.8 C 6.4 km/h
1347 08-05-2020 16:10:00 25 C 6.91 g/m*3 25 C 6.4 km/h
1348 08-05-2020 16:15:00 25.1 C 6.71 g/m*3 25.1 C 6.4 km/h
1349 08-05-2020 16:20:00 25.1 C 6.71 g/m*3 25.1 C 6.4 km/h
1350 08-05-2020 16:25:00 25.2 C 6.98 g/m*3 25.2 C 3.2 km/h
Sensor: Nr:Datum:Temp:Abs-Feuchte:Windchill:Wind:
Aussen-T/F 1351 08-05-2020 16:30:00 25.5 C 6.16 g/m*3 25.5 C 8.1 km/h
1352 08-05-2020 16:35:00 25.3 C 5.85 g/m*3 25.3 C 8.1 km/h
1353 08-05-2020 16:40:00 24.9 C 6.64 g/m*3 24.9 C 4.8 km/h
1354 08-05-2020 16:45:00 24.7 C 6.79 g/m*3 24.7 C 3.2 km/h
1355 08-05-2020 16:50:00 24.6 C 6.08 g/m*3 24.6 C 3.2 km/h
1356 08-05-2020 16:55:00 24.5 C 7.61 g/m*3 24.5 C 0 km/h
1357 08-05-2020 17:00:00 24.4 C 8.68 g/m*3 24.4 C 1.6 km/h
1358 08-05-2020 17:05:00 24.4 C 6.23 g/m*3 24.4 C 1.6 km/h
1359 08-05-2020 17:10:00 24.4 C 6.68 g/m*3 24.4 C 6.4 km/h
1360 08-05-2020 17:15:00 24.7 C 8.15 g/m*3 24.7 C 3.2 km/h
1361 08-05-2020 17:20:00 24.9 C 7.32 g/m*3 24.9 C 4.8 km/h
1362 08-05-2020 17:25:00 24.9 C 6.87 g/m*3 24.9 C 4.8 km/h
1363 08-05-2020 17:30:00 24.7 C 7.24 g/m*3 24.7 C 4.8 km/h
1364 08-05-2020 17:35:00 24.3 C 7.08 g/m*3 24.3 C 6.4 km/h
1365 08-05-2020 17:40:00 24.4 C 7.57 g/m*3 24.4 C 4.8 km/h
1366 08-05-2020 17:45:00 24.7 C 7.47 g/m*3 24.7 C 6.4 km/h
1367 08-05-2020 17:50:00 24.7 C 7.24 g/m*3 24.7 C 4.8 km/h
1368 08-05-2020 17:55:00 24.6 C 6.98 g/m*3 24.6 C 6.4 km/h
1369 08-05-2020 18:00:00 24.4 C 7.12 g/m*3 24.4 C 6.4 km/h
1370 08-05-2020 18:05:00 24.3 C 7.3 g/m*3 24.3 C 4.8 km/h
1371 08-05-2020 18:10:00 24.4 C 7.12 g/m*3 24.4 C 6.4 km/h
1372 08-05-2020 18:15:00 24.4 C 6.9 g/m*3 24.4 C 6.4 km/h
1373 08-05-2020 18:20:00 24.4 C 7.34 g/m*3 24.4 C 1.6 km/h
1374 08-05-2020 18:25:00 24.6 C 6.98 g/m*3 24.6 C 4.8 km/h
1375 08-05-2020 18:30:00 24.7 C 7.24 g/m*3 24.7 C 6.4 km/h
Sensor: Nr:Datum:Temp:Abs-Feuchte:Windchill:Wind:
Aussen-T/F 1376 08-05-2020 18:35:00 24.8 C 7.28 g/m*3 24.8 C 4.8 km/h
1377 08-05-2020 18:40:00 24.8 C 7.28 g/m*3 24.8 C 6.4 km/h
1378 08-05-2020 18:45:00 24.7 C 7.47 g/m*3 24.7 C 9.7 km/h
1379 08-05-2020 18:50:00 24.7 C 7.47 g/m*3 24.7 C 4.8 km/h
1380 08-05-2020 18:55:00 24.7 C 7.47 g/m*3 24.7 C 9.7 km/h
1381 08-05-2020 19:00:00 24.5 C 7.61 g/m*3 24.5 C 6.4 km/h
1382 08-05-2020 19:05:00 24.1 C 7.22 g/m*3 24.1 C 6.4 km/h
1383 08-05-2020 19:10:00 23.9 C 7.36 g/m*3 23.9 C 4.8 km/h
1384 08-05-2020 19:15:00 23.9 C 7.14 g/m*3 23.9 C 8.1 km/h
1385 08-05-2020 19:20:00 23.8 C 7.1 g/m*3 23.8 C 6.4 km/h
1386 08-05-2020 19:25:00 23.7 C 7.49 g/m*3 23.7 C 8.1 km/h
1387 08-05-2020 19:30:00 23.5 C 7.19 g/m*3 23.5 C 8.1 km/h
1388 08-05-2020 19:35:00 23.3 C 7.11 g/m*3 23.3 C 8.1 km/h
1389 08-05-2020 19:40:00 23.1 C 7.44 g/m*3 23.1 C 4.8 km/h
1390 08-05-2020 19:45:00 23 C 6.99 g/m*3 23 C 8.1 km/h
1391 08-05-2020 19:50:00 22.8 C 7.32 g/m*3 22.8 C 3.2 km/h
1392 08-05-2020 19:55:00 22.6 C 8.04 g/m*3 22.6 C 1.6 km/h
1393 08-05-2020 20:00:00 22.2 C 8.64 g/m*3 22.2 C 3.2 km/h
1394 08-05-2020 20:05:00 21.6 C 8.72 g/m*3 21.6 C 1.6 km/h
1395 08-05-2020 20:10:00 20.9 C 8.56 g/m*3 20.9 C 3.2 km/h
1396 08-05-2020 20:15:00 20.3 C 8.62 g/m*3 20.3 C 4.8 km/h
1397 08-05-2020 20:20:00 19.8 C 8.54 g/m*3 19.8 C 3.2 km/h
1398 08-05-2020 20:25:00 19.3 C 8.79 g/m*3 19.3 C 3.2 km/h
1399 08-05-2020 20:30:00 18.9 C 8.59 g/m*3 18.9 C 0 km/h
1400 08-05-2020 20:35:00 18.5 C 8.39 g/m*3 18.5 C 1.6 km/h
Sensor: Nr:Datum:Temp:Abs-Feuchte:Windchill:Wind:
Aussen-T/F 1401 08-05-2020 20:40:00 18.2 C 8.24 g/m*3 18.2 C 3.2 km/h
1402 08-05-2020 20:45:00 17.9 C 8.09 g/m*3 17.9 C 4.8 km/h
1403 08-05-2020 20:50:00 17.7 C 8.3 g/m*3 17.7 C 4.8 km/h
1404 08-05-2020 20:55:00 17.6 C 8.4 g/m*3 17.6 C 4.8 km/h
1405 08-05-2020 21:00:00 17.4 C 8.45 g/m*3 17.4 C 3.2 km/h
1406 08-05-2020 21:05:00 17.3 C 8.25 g/m*3 17.3 C 4.8 km/h
1407 08-05-2020 21:10:00 17.2 C 8.05 g/m*3 17.2 C 4.8 km/h
1408 08-05-2020 21:15:00 17.1 C 8.88 g/m*3 17.1 C 3.2 km/h
1409 08-05-2020 21:20:00 16.9 C 8.34 g/m*3 16.9 C 6.4 km/h
1410 08-05-2020 21:25:00 16.7 C 8.38 g/m*3 16.7 C 4.8 km/h
1411 08-05-2020 21:30:00 16.4 C 8.1 g/m*3 16.4 C 3.2 km/h
1412 08-05-2020 21:35:00 16.3 C 8.32 g/m*3 16.3 C 3.2 km/h
1413 08-05-2020 21:40:00 16.2 C 8.41 g/m*3 16.2 C 3.2 km/h
1414 08-05-2020 21:45:00 16 C 8.58 g/m*3 16 C 4.8 km/h
1415 08-05-2020 21:50:00 15.8 C 8.62 g/m*3 15.8 C 3.2 km/h
1416 08-05-2020 21:55:00 15.6 C 8.38 g/m*3 15.6 C 1.6 km/h
1417 08-05-2020 22:00:00 15.4 C 8.54 g/m*3 15.4 C 3.2 km/h
1418 08-05-2020 22:05:00 15.3 C 8.62 g/m*3 15.3 C 3.2 km/h
1419 08-05-2020 22:10:00 15.2 C 8.44 g/m*3 15.2 C 3.2 km/h
1420 08-05-2020 22:15:00 15.2 C 8.7 g/m*3 15.2 C 0 km/h
1421 08-05-2020 22:20:00 15.1 C 8.64 g/m*3 15.1 C 0 km/h
1422 08-05-2020 22:25:00 15.1 C 8.64 g/m*3 15.1 C 0 km/h
1423 08-05-2020 22:30:00 15 C 8.59 g/m*3 15 C 0 km/h
1424 08-05-2020 22:35:00 14.9 C 8.67 g/m*3 14.9 C 0 km/h
1425 08-05-2020 22:40:00 14.8 C 8.74 g/m*3 14.8 C 0 km/h
Sensor: Nr:Datum:Temp:Abs-Feuchte:Windchill:Wind:
Aussen-T/F 1426 08-05-2020 22:45:00 14.8 C 8.87 g/m*3 14.8 C 0 km/h
1427 08-05-2020 22:50:00 14.6 C 8.76 g/m*3 14.6 C 0 km/h
1428 08-05-2020 22:55:00 14.4 C 8.41 g/m*3 14.4 C 0 km/h
1429 08-05-2020 23:00:00 14.3 C 8.35 g/m*3 14.3 C 0 km/h
1430 08-05-2020 23:05:00 14.3 C 8.35 g/m*3 14.3 C 0 km/h
1431 08-05-2020 23:10:00 14.2 C 8.55 g/m*3 14.2 C 0 km/h
1432 08-05-2020 23:15:00 14.1 C 8.37 g/m*3 14.1 C 0 km/h
1433 08-05-2020 23:20:00 14.1 C 8.5 g/m*3 14.1 C 0 km/h
1434 08-05-2020 23:25:00 13.9 C 8.51 g/m*3 13.9 C 0 km/h
1435 08-05-2020 23:30:00 13.8 C 8.46 g/m*3 13.8 C 0 km/h
1436 08-05-2020 23:35:00 13.7 C 8.29 g/m*3 13.7 C 0 km/h
1437 08-05-2020 23:40:00 13.6 C 8.12 g/m*3 13.6 C 0 km/h
1438 08-05-2020 23:45:00 13.6 C 8.47 g/m*3 13.6 C 0 km/h
1439 08-05-2020 23:50:00 13.5 C 8.3 g/m*3 13.5 C 0 km/h
1440 08-05-2020 23:55:00 13.4 C 8.14 g/m*3 13.4 C 0 km/h
1441 09-05-2020 00:00:00 13.4 C 8.25 g/m*3 13.4 C 0 km/h
1442 09-05-2020 00:05:00 13.3 C 8.32 g/m*3 13.3 C 0 km/h
1443 09-05-2020 00:10:00 13.2 C 8.15 g/m*3 13.2 C 0 km/h
1444 09-05-2020 00:15:00 13 C 8.05 g/m*3 13 C 0 km/h
1445 09-05-2020 00:20:00 12.9 C 8.11 g/m*3 12.9 C 0 km/h
1446 09-05-2020 00:25:00 12.8 C 8.06 g/m*3 12.8 C 0 km/h
1447 09-05-2020 00:30:00 12.6 C 8.08 g/m*3 12.6 C 0 km/h
1448 09-05-2020 00:35:00 12.4 C 7.98 g/m*3 12.4 C 0 km/h
1449 09-05-2020 00:40:00 12.3 C 8.04 g/m*3 12.3 C 0 km/h
1450 09-05-2020 00:45:00 12.2 C 7.99 g/m*3 12.2 C 0 km/h
Sensor: Nr:Datum:Temp:Abs-Feuchte:Windchill:Wind:
Aussen-T/F 1451 09-05-2020 00:50:00 12.1 C 8.04 g/m*3 12.1 C 0 km/h
1452 09-05-2020 00:55:00 12.1 C 8.04 g/m*3 12.1 C 0 km/h
1453 09-05-2020 01:00:00 11.9 C 7.94 g/m*3 11.9 C 0 km/h
1454 09-05-2020 01:05:00 11.9 C 7.94 g/m*3 11.9 C 0 km/h
1455 09-05-2020 01:10:00 12 C 8.1 g/m*3 12 C 0 km/h
1456 09-05-2020 01:15:00 12 C 8.1 g/m*3 12 C 0 km/h
1457 09-05-2020 01:20:00 11.9 C 8.05 g/m*3 11.9 C 0 km/h
1458 09-05-2020 01:25:00 11.9 C 8.05 g/m*3 11.9 C 0 km/h
1459 09-05-2020 01:30:00 11.9 C 8.15 g/m*3 11.9 C 0 km/h
1460 09-05-2020 01:35:00 11.8 C 8.1 g/m*3 11.8 C 0 km/h
1461 09-05-2020 01:40:00 11.8 C 8.1 g/m*3 11.8 C 0 km/h
1462 09-05-2020 01:45:00 11.8 C 8.21 g/m*3 11.8 C 0 km/h
1463 09-05-2020 01:50:00 11.8 C 8.21 g/m*3 11.8 C 0 km/h
1464 09-05-2020 01:55:00 11.8 C 8.31 g/m*3 11.8 C 0 km/h
1465 09-05-2020 02:00:00 11.8 C 8.42 g/m*3 11.8 C 0 km/h
1466 09-05-2020 02:05:00 11.8 C 8.42 g/m*3 11.8 C 0 km/h
1467 09-05-2020 02:10:00 11.8 C 8.31 g/m*3 11.8 C 0 km/h
1468 09-05-2020 02:15:00 11.9 C 8.37 g/m*3 11.9 C 0 km/h
1469 09-05-2020 02:20:00 11.9 C 8.37 g/m*3 11.9 C 0 km/h
1470 09-05-2020 02:25:00 11.9 C 8.37 g/m*3 11.9 C 0 km/h
1471 09-05-2020 02:30:00 11.9 C 8.37 g/m*3 11.9 C 0 km/h
1472 09-05-2020 02:35:00 11.9 C 8.37 g/m*3 11.9 C 0 km/h
1473 09-05-2020 02:40:00 11.9 C 8.37 g/m*3 11.9 C 0 km/h
1474 09-05-2020 02:45:00 11.8 C 8.42 g/m*3 11.8 C 0 km/h
1475 09-05-2020 02:50:00 11.8 C 8.42 g/m*3 11.8 C 0 km/h
Sensor: Nr:Datum:Temp:Abs-Feuchte:Windchill:Wind:
Aussen-T/F 1476 09-05-2020 02:55:00 11.8 C 8.42 g/m*3 11.8 C 0 km/h
1477 09-05-2020 03:00:00 11.7 C 8.47 g/m*3 11.7 C 0 km/h
1478 09-05-2020 03:05:00 11.7 C 8.47 g/m*3 11.7 C 0 km/h
1479 09-05-2020 03:10:00 11.6 C 8.42 g/m*3 11.6 C 0 km/h
1480 09-05-2020 03:15:00 11.6 C 8.52 g/m*3 11.6 C 0 km/h
1481 09-05-2020 03:20:00 11.5 C 8.47 g/m*3 11.5 C 0 km/h
1482 09-05-2020 03:25:00 11.4 C 8.42 g/m*3 11.4 C 0 km/h
1483 09-05-2020 03:30:00 11.3 C 8.36 g/m*3 11.3 C 0 km/h
1484 09-05-2020 03:35:00 11.2 C 8.31 g/m*3 11.2 C 0 km/h
1485 09-05-2020 03:40:00 11.1 C 8.26 g/m*3 11.1 C 0 km/h
1486 09-05-2020 03:45:00 10.9 C 8.16 g/m*3 10.9 C 0 km/h
1487 09-05-2020 03:50:00 10.8 C 8.11 g/m*3 10.8 C 0 km/h
1488 09-05-2020 03:55:00 10.7 C 8.05 g/m*3 10.7 C 0 km/h
1489 09-05-2020 04:00:00 10.5 C 7.95 g/m*3 10.5 C 0 km/h
1490 09-05-2020 04:05:00 10.4 C 7.9 g/m*3 10.4 C 0 km/h
1491 09-05-2020 04:10:00 10.3 C 7.95 g/m*3 10.3 C 0 km/h
1492 09-05-2020 04:15:00 10.2 C 7.9 g/m*3 10.2 C 0 km/h
1493 09-05-2020 04:20:00 10.1 C 7.85 g/m*3 10.1 C 0 km/h
1494 09-05-2020 04:25:00 10 C 7.8 g/m*3 10 C 0 km/h
1495 09-05-2020 04:30:00 9.9 C 7.75 g/m*3 9.9 C 0 km/h
1496 09-05-2020 04:35:00 9.8 C 7.7 g/m*3 9.8 C 0 km/h
1497 09-05-2020 04:40:00 9.8 C 7.79 g/m*3 9.8 C 0 km/h
1498 09-05-2020 04:45:00 9.7 C 7.74 g/m*3 9.7 C 0 km/h
1499 09-05-2020 04:50:00 9.6 C 7.69 g/m*3 9.6 C 0 km/h
1500 09-05-2020 04:55:00 9.6 C 7.79 g/m*3 9.6 C 0 km/h
Sensor: Nr:Datum:Temp:Abs-Feuchte:Windchill:Wind:
Aussen-T/F 1501 09-05-2020 05:00:00 9.6 C 7.79 g/m*3 9.6 C 0 km/h
1502 09-05-2020 05:05:00 9.6 C 7.79 g/m*3 9.6 C 0 km/h
1503 09-05-2020 05:10:00 9.6 C 7.79 g/m*3 9.6 C 0 km/h
1504 09-05-2020 05:15:00 9.5 C 7.74 g/m*3 9.5 C 0 km/h
1505 09-05-2020 05:20:00 9.4 C 7.69 g/m*3 9.4 C 0 km/h
1506 09-05-2020 05:25:00 9.4 C 7.78 g/m*3 9.4 C 0 km/h
1507 09-05-2020 05:30:00 9.4 C 7.78 g/m*3 9.4 C 0 km/h
1508 09-05-2020 05:35:00 9.4 C 7.87 g/m*3 9.4 C 0 km/h
1509 09-05-2020 05:40:00 9.3 C 7.82 g/m*3 9.3 C 0 km/h
1510 09-05-2020 05:45:00 9.3 C 7.91 g/m*3 9.3 C 0 km/h
1511 09-05-2020 05:50:00 9.3 C 7.91 g/m*3 9.3 C 0 km/h
1512 09-05-2020 05:55:00 9.3 C 7.91 g/m*3 9.3 C 0 km/h
1513 09-05-2020 06:00:00 9.3 C 7.91 g/m*3 9.3 C 0 km/h
1514 09-05-2020 06:05:00 9.4 C 7.96 g/m*3 9.4 C 0 km/h
1515 09-05-2020 06:10:00 9.5 C 8.01 g/m*3 9.5 C 0 km/h
1516 09-05-2020 06:15:00 9.6 C 8.06 g/m*3 9.6 C 0 km/h
1517 09-05-2020 06:20:00 9.7 C 8.11 g/m*3 9.7 C 0 km/h
1518 09-05-2020 06:25:00 9.8 C 8.16 g/m*3 9.8 C 1.6 km/h
1519 09-05-2020 06:30:00 10 C 8.17 g/m*3 10 C 1.6 km/h
1520 09-05-2020 06:35:00 10.1 C 8.23 g/m*3 10.1 C 0 km/h
1521 09-05-2020 06:40:00 10.2 C 8.28 g/m*3 10.2 C 0 km/h
1522 09-05-2020 06:45:00 10.4 C 8.38 g/m*3 10.4 C 0 km/h
1523 09-05-2020 06:50:00 10.5 C 8.53 g/m*3 10.5 C 0 km/h
1524 09-05-2020 06:55:00 10.6 C 8.59 g/m*3 10.6 C 0 km/h
1525 09-05-2020 07:00:00 10.7 C 8.45 g/m*3 10.7 C 0 km/h
Sensor: Nr:Datum:Temp:Abs-Feuchte:Windchill:Wind:
Aussen-T/F 1526 09-05-2020 07:05:00 10.8 C 8.5 g/m*3 10.8 C 0 km/h
1527 09-05-2020 07:10:00 10.9 C 8.55 g/m*3 10.9 C 0 km/h
1528 09-05-2020 07:15:00 10.9 C 8.55 g/m*3 10.9 C 0 km/h
1529 09-05-2020 07:20:00 11.1 C 8.66 g/m*3 11.1 C 0 km/h
1530 09-05-2020 07:25:00 11.1 C 8.66 g/m*3 11.1 C 0 km/h
1531 09-05-2020 07:30:00 11.3 C 8.77 g/m*3 11.3 C 0 km/h
1532 09-05-2020 07:35:00 11.3 C 8.77 g/m*3 11.3 C 0 km/h
1533 09-05-2020 07:40:00 11.4 C 8.72 g/m*3 11.4 C 0 km/h
1534 09-05-2020 07:45:00 11.4 C 8.72 g/m*3 11.4 C 0 km/h
1535 09-05-2020 07:50:00 11.6 C 8.73 g/m*3 11.6 C 0 km/h
1536 09-05-2020 07:55:00 11.6 C 8.73 g/m*3 11.6 C 0 km/h
1537 09-05-2020 08:00:00 11.7 C 8.79 g/m*3 11.7 C 0 km/h
1538 09-05-2020 08:05:00 11.8 C 8.84 g/m*3 11.8 C 0 km/h
1539 09-05-2020 08:10:00 11.9 C 9 g/m*3 11.9 C 0 km/h
1540 09-05-2020 08:15:00 12.1 C 8.9 g/m*3 12.1 C 0 km/h
1541 09-05-2020 08:20:00 12.2 C 8.85 g/m*3 12.2 C 0 km/h
1542 09-05-2020 08:25:00 12.3 C 8.9 g/m*3 12.3 C 0 km/h
1543 09-05-2020 08:30:00 12.6 C 8.96 g/m*3 12.6 C 0 km/h
1544 09-05-2020 08:35:00 12.8 C 8.96 g/m*3 12.8 C 0 km/h
1545 09-05-2020 08:40:00 13 C 8.96 g/m*3 13 C 0 km/h
1546 09-05-2020 08:45:00 13.2 C 8.96 g/m*3 13.2 C 0 km/h
1547 09-05-2020 08:50:00 13.4 C 9.07 g/m*3 13.4 C 0 km/h
1548 09-05-2020 08:55:00 13.6 C 9.18 g/m*3 13.6 C 1.6 km/h
1549 09-05-2020 09:00:00 13.8 C 9.29 g/m*3 13.8 C 0 km/h
1550 09-05-2020 09:05:00 14 C 9.17 g/m*3 14 C 0 km/h
Sensor: Nr:Datum:Temp:Abs-Feuchte:Windchill:Wind:
Aussen-T/F 1551 09-05-2020 09:10:00 14.2 C 9.52 g/m*3 14.2 C 0 km/h
1552 09-05-2020 09:15:00 14.4 C 9.39 g/m*3 14.4 C 1.6 km/h
1553 09-05-2020 09:20:00 14.6 C 9.64 g/m*3 14.6 C 0 km/h
1554 09-05-2020 09:25:00 14.8 C 9.63 g/m*3 14.8 C 0 km/h
1555 09-05-2020 09:30:00 14.9 C 9.69 g/m*3 14.9 C 0 km/h
1556 09-05-2020 09:35:00 15.1 C 9.68 g/m*3 15.1 C 1.6 km/h
1557 09-05-2020 09:40:00 15.3 C 9.66 g/m*3 15.3 C 1.6 km/h
1558 09-05-2020 09:45:00 15.4 C 9.46 g/m*3 15.4 C 3.2 km/h
1559 09-05-2020 09:50:00 15.5 C 9.25 g/m*3 15.5 C 3.2 km/h
1560 09-05-2020 09:55:00 15.6 C 8.91 g/m*3 15.6 C 1.6 km/h
1561 09-05-2020 10:00:00 15.7 C 8.83 g/m*3 15.7 C 0 km/h
1562 09-05-2020 10:05:00 15.8 C 8.88 g/m*3 15.8 C 0 km/h
1563 09-05-2020 10:10:00 16 C 8.99 g/m*3 16 C 3.2 km/h
1564 09-05-2020 10:15:00 16.2 C 9.1 g/m*3 16.2 C 3.2 km/h
1565 09-05-2020 10:20:00 16.3 C 9.02 g/m*3 16.3 C 1.6 km/h
1566 09-05-2020 10:25:00 16.6 C 9.18 g/m*3 16.6 C 1.6 km/h
1567 09-05-2020 10:30:00 16.8 C 8.72 g/m*3 16.8 C 6.4 km/h
1568 09-05-2020 10:35:00 17.1 C 8.73 g/m*3 17.1 C 4.8 km/h
1569 09-05-2020 10:40:00 17.2 C 8.64 g/m*3 17.2 C 8.1 km/h
1570 09-05-2020 10:45:00 17.3 C 8.69 g/m*3 17.3 C 1.6 km/h
1571 09-05-2020 10:50:00 17.4 C 9.04 g/m*3 17.4 C 3.2 km/h
1572 09-05-2020 10:55:00 17.5 C 8.8 g/m*3 17.5 C 3.2 km/h
1573 09-05-2020 11:00:00 17.6 C 8.7 g/m*3 17.6 C 8.1 km/h
1574 09-05-2020 11:05:00 17.6 C 8.7 g/m*3 17.6 C 8.1 km/h
1575 09-05-2020 11:10:00 17.6 C 8.7 g/m*3 17.6 C 4.8 km/h
Sensor: Nr:Datum:Temp:Abs-Feuchte:Windchill:Wind:
Aussen-T/F 1576 09-05-2020 11:15:00 17.7 C 8.75 g/m*3 17.7 C 6.4 km/h
1577 09-05-2020 11:20:00 17.8 C 9.11 g/m*3 17.8 C 4.8 km/h
1578 09-05-2020 11:25:00 17.9 C 9.01 g/m*3 17.9 C 3.2 km/h
1579 09-05-2020 11:30:00 18.1 C 9.12 g/m*3 18.1 C 4.8 km/h
1580 09-05-2020 11:35:00 18.2 C 8.86 g/m*3 18.2 C 4.8 km/h
1581 09-05-2020 11:40:00 18.3 C 8.91 g/m*3 18.3 C 3.2 km/h
1582 09-05-2020 11:45:00 18.3 C 8.76 g/m*3 18.3 C 4.8 km/h
1583 09-05-2020 11:50:00 18.4 C 8.81 g/m*3 18.4 C 6.4 km/h
1584 09-05-2020 11:55:00 18.4 C 8.81 g/m*3 18.4 C 6.4 km/h
1585 09-05-2020 12:00:00 18.6 C 8.75 g/m*3 18.6 C 8.1 km/h
1586 09-05-2020 12:05:00 18.7 C 8.81 g/m*3 18.7 C 6.4 km/h
1587 09-05-2020 12:10:00 18.9 C 9.07 g/m*3 18.9 C 3.2 km/h
1588 09-05-2020 12:15:00 19.1 C 8.85 g/m*3 19.1 C 6.4 km/h
1589 09-05-2020 12:20:00 19.2 C 9.23 g/m*3 19.2 C 6.4 km/h
1590 09-05-2020 12:25:00 19.5 C 9.06 g/m*3 19.5 C 3.2 km/h
1591 09-05-2020 12:30:00 19.7 C 9 g/m*3 19.7 C 4.8 km/h
1592 09-05-2020 12:35:00 19.9 C 9.11 g/m*3 19.9 C 1.6 km/h
1593 09-05-2020 12:40:00 20.1 C 9.21 g/m*3 20.1 C 6.4 km/h
1594 09-05-2020 12:45:00 20.3 C 9.15 g/m*3 20.3 C 4.8 km/h
1595 09-05-2020 12:50:00 20.3 C 9.67 g/m*3 20.3 C 4.8 km/h
1596 09-05-2020 12:55:00 20.3 C 9.32 g/m*3 20.3 C 3.2 km/h
1597 09-05-2020 13:00:00 20.4 C 9.38 g/m*3 20.4 C 4.8 km/h
1598 09-05-2020 13:05:00 20.4 C 9.55 g/m*3 20.4 C 3.2 km/h
1599 09-05-2020 13:10:00 20.5 C 9.43 g/m*3 20.5 C 3.2 km/h
1600 09-05-2020 13:15:00 20.7 C 9.72 g/m*3 20.7 C 4.8 km/h
Sensor: Nr:Datum:Temp:Abs-Feuchte:Windchill:Wind:
Aussen-T/F 1601 09-05-2020 13:20:00 20.8 C 9.96 g/m*3 20.8 C 1.6 km/h
1602 09-05-2020 13:25:00 21 C 9.89 g/m*3 21 C 6.4 km/h
1603 09-05-2020 13:30:00 20.9 C 9.47 g/m*3 20.9 C 4.8 km/h
1604 09-05-2020 13:35:00 20.8 C 9.6 g/m*3 20.8 C 6.4 km/h
1605 09-05-2020 13:40:00 20.8 C 9.78 g/m*3 20.8 C 8.1 km/h
1606 09-05-2020 13:45:00 20.9 C 9.65 g/m*3 20.9 C 8.1 km/h
1607 09-05-2020 13:50:00 21.1 C 9.95 g/m*3 21.1 C 6.4 km/h
1608 09-05-2020 13:55:00 21.2 C 9.82 g/m*3 21.2 C 4.8 km/h
1609 09-05-2020 14:00:00 21.2 C 10.01 g/m*3 21.2 C 8.1 km/h
1610 09-05-2020 14:05:00 21.2 C 9.64 g/m*3 21.2 C 4.8 km/h
1611 09-05-2020 14:10:00 21.2 C 9.82 g/m*3 21.2 C 4.8 km/h
1612 09-05-2020 14:15:00 21.2 C 9.64 g/m*3 21.2 C 4.8 km/h
1613 09-05-2020 14:20:00 21.2 C 9.82 g/m*3 21.2 C 1.6 km/h
1614 09-05-2020 14:25:00 21.3 C 10.25 g/m*3 21.3 C 3.2 km/h
1615 09-05-2020 14:30:00 21.3 C 10.62 g/m*3 21.3 C 3.2 km/h
1616 09-05-2020 14:35:00 21.2 C 10.56 g/m*3 21.2 C 6.4 km/h
1617 09-05-2020 14:40:00 20.9 C 10.38 g/m*3 20.9 C 11.3 km/h
1618 09-05-2020 14:45:00 20.8 C 10.5 g/m*3 20.8 C 6.4 km/h
1619 09-05-2020 14:50:00 20.7 C 10.62 g/m*3 20.7 C 6.4 km/h
1620 09-05-2020 14:55:00 20.6 C 10.56 g/m*3 20.6 C 6.4 km/h
1621 09-05-2020 15:00:00 20.4 C 10.44 g/m*3 20.4 C 9.7 km/h
1622 09-05-2020 15:05:00 20.3 C 10.55 g/m*3 20.3 C 9.7 km/h
1623 09-05-2020 15:10:00 20.2 C 10.67 g/m*3 20.2 C 9.7 km/h
1624 09-05-2020 15:15:00 20.2 C 10.84 g/m*3 20.2 C 6.4 km/h
1625 09-05-2020 15:20:00 20.2 C 11.02 g/m*3 20.2 C 6.4 km/h
Sensor: Nr:Datum:Temp:Abs-Feuchte:Windchill:Wind:
Aussen-T/F 1626 09-05-2020 15:25:00 20.1 C 11.3 g/m*3 20.1 C 8.1 km/h
1627 09-05-2020 15:30:00 19.9 C 11.34 g/m*3 19.9 C 11.3 km/h
1628 09-05-2020 15:35:00 19.9 C 11.51 g/m*3 19.9 C 9.7 km/h
1629 09-05-2020 15:40:00 20 C 11.75 g/m*3 20 C 8.1 km/h
1630 09-05-2020 15:45:00 20.2 C 11.71 g/m*3 20.2 C 4.8 km/h
1631 09-05-2020 15:50:00 20.6 C 11.99 g/m*3 20.6 C 0 km/h
1632 09-05-2020 15:55:00 20.8 C 11.77 g/m*3 20.8 C 1.6 km/h
1633 09-05-2020 16:00:00 21.1 C 11.61 g/m*3 21.1 C 6.4 km/h
1634 09-05-2020 16:05:00 21.2 C 11.68 g/m*3 21.2 C 6.4 km/h
1635 09-05-2020 16:10:00 21.2 C 11.68 g/m*3 21.2 C 6.4 km/h
1636 09-05-2020 16:15:00 21.2 C 11.86 g/m*3 21.2 C 8.1 km/h
1637 09-05-2020 16:20:00 21.3 C 11.93 g/m*3 21.3 C 4.8 km/h
1638 09-05-2020 16:25:00 21.3 C 11.74 g/m*3 21.3 C 6.4 km/h
1639 09-05-2020 16:30:00 21.3 C 11.56 g/m*3 21.3 C 6.4 km/h
1640 09-05-2020 16:35:00 21.4 C 11.62 g/m*3 21.4 C 1.6 km/h
1641 09-05-2020 16:40:00 21.3 C 11.74 g/m*3 21.3 C 3.2 km/h
1642 09-05-2020 16:45:00 21.3 C 11.37 g/m*3 21.3 C 4.8 km/h
1643 09-05-2020 16:50:00 21.2 C 11.49 g/m*3 21.2 C 1.6 km/h
1644 09-05-2020 16:55:00 21.2 C 11.49 g/m*3 21.2 C 0 km/h
1645 09-05-2020 17:00:00 21.2 C 11.12 g/m*3 21.2 C 1.6 km/h
1646 09-05-2020 17:05:00 21.2 C 11.49 g/m*3 21.2 C 3.2 km/h
1647 09-05-2020 17:10:00 21.2 C 11.3 g/m*3 21.2 C 1.6 km/h
1648 09-05-2020 17:15:00 21.2 C 10.93 g/m*3 21.2 C 3.2 km/h
1649 09-05-2020 17:20:00 21.1 C 11.06 g/m*3 21.1 C 3.2 km/h
1650 09-05-2020 17:25:00 21.1 C 11.06 g/m*3 21.1 C 4.8 km/h
Sensor: Nr:Datum:Temp:Abs-Feuchte:Windchill:Wind:
Aussen-T/F 1651 09-05-2020 17:30:00 21.3 C 11.56 g/m*3 21.3 C 6.4 km/h
1652 09-05-2020 17:35:00 21.4 C 11.62 g/m*3 21.4 C 8.1 km/h
1653 09-05-2020 17:40:00 21.4 C 12 g/m*3 21.4 C 8.1 km/h
1654 09-05-2020 17:45:00 21.5 C 11.88 g/m*3 21.5 C 9.7 km/h
1655 09-05-2020 17:50:00 21.4 C 11.81 g/m*3 21.4 C 6.4 km/h
1656 09-05-2020 17:55:00 21.4 C 11.81 g/m*3 21.4 C 3.2 km/h
1657 09-05-2020 18:00:00 21.6 C 11.95 g/m*3 21.6 C 8.1 km/h
1658 09-05-2020 18:05:00 21.8 C 12.09 g/m*3 21.8 C 8.1 km/h
1659 09-05-2020 18:10:00 22 C 12.03 g/m*3 22 C 4.8 km/h
1660 09-05-2020 18:15:00 22.2 C 11.78 g/m*3 22.2 C 4.8 km/h
1661 09-05-2020 18:20:00 22.4 C 11.92 g/m*3 22.4 C 8.1 km/h
1662 09-05-2020 18:25:00 22.3 C 11.85 g/m*3 22.3 C 8.1 km/h
1663 09-05-2020 18:30:00 22.4 C 11.92 g/m*3 22.4 C 6.4 km/h
1664 09-05-2020 18:35:00 22.5 C 11.78 g/m*3 22.5 C 9.7 km/h
1665 09-05-2020 18:40:00 22.4 C 11.52 g/m*3 22.4 C 11.3 km/h
1666 09-05-2020 18:45:00 22.2 C 11.39 g/m*3 22.2 C 6.4 km/h
1667 09-05-2020 18:50:00 22.2 C 11.39 g/m*3 22.2 C 6.4 km/h
1668 09-05-2020 18:55:00 22.4 C 11.92 g/m*3 22.4 C 3.2 km/h
1669 09-05-2020 19:00:00 22.7 C 11.92 g/m*3 22.7 C 4.8 km/h
1670 09-05-2020 19:05:00 22.9 C 11.44 g/m*3 22.9 C 6.4 km/h
1671 09-05-2020 19:10:00 22.7 C 11.31 g/m*3 22.7 C 9.7 km/h
1672 09-05-2020 19:15:00 22.2 C 11.39 g/m*3 22.2 C 9.7 km/h
1673 09-05-2020 19:20:00 22 C 11.26 g/m*3 22 C 4.8 km/h
1674 09-05-2020 19:25:00 21.8 C 11.32 g/m*3 21.8 C 1.6 km/h
1675 09-05-2020 19:30:00 21.7 C 11.25 g/m*3 21.7 C 1.6 km/h
Sensor: Nr:Datum:Temp:Abs-Feuchte:Windchill:Wind:
Aussen-T/F 1676 09-05-2020 19:35:00 21.7 C 11.45 g/m*3 21.7 C 1.6 km/h
1677 09-05-2020 19:40:00 21.7 C 11.25 g/m*3 21.7 C 3.2 km/h
1678 09-05-2020 19:45:00 21.5 C 11.13 g/m*3 21.5 C 4.8 km/h
1679 09-05-2020 19:50:00 21.3 C 11.56 g/m*3 21.3 C 3.2 km/h
1680 09-05-2020 19:55:00 21.3 C 11.56 g/m*3 21.3 C 1.6 km/h
1681 09-05-2020 20:00:00 21.3 C 11.74 g/m*3 21.3 C 3.2 km/h
1682 09-05-2020 20:05:00 21.2 C 11.86 g/m*3 21.2 C 1.6 km/h
1683 09-05-2020 20:10:00 21.1 C 12.16 g/m*3 21.1 C 0 km/h
1684 09-05-2020 20:15:00 20.9 C 12.2 g/m*3 20.9 C 0 km/h
1685 09-05-2020 20:20:00 20.7 C 12.06 g/m*3 20.7 C 0 km/h
1686 09-05-2020 20:25:00 20.5 C 12.1 g/m*3 20.5 C 3.2 km/h
1687 09-05-2020 20:30:00 20.2 C 12.06 g/m*3 20.2 C 4.8 km/h
1688 09-05-2020 20:35:00 19.9 C 12.03 g/m*3 19.9 C 6.4 km/h
1689 09-05-2020 20:40:00 19.6 C 11.99 g/m*3 19.6 C 3.2 km/h
1690 09-05-2020 20:45:00 19.3 C 11.94 g/m*3 19.3 C 3.2 km/h
1691 09-05-2020 20:50:00 19.1 C 11.8 g/m*3 19.1 C 3.2 km/h
1692 09-05-2020 20:55:00 18.8 C 11.76 g/m*3 18.8 C 3.2 km/h
1693 09-05-2020 21:00:00 18.5 C 11.71 g/m*3 18.5 C 3.2 km/h
1694 09-05-2020 21:05:00 18.1 C 11.59 g/m*3 18.1 C 3.2 km/h
1695 09-05-2020 21:10:00 17.8 C 11.54 g/m*3 17.8 C 1.6 km/h
1696 09-05-2020 21:15:00 17.4 C 11.41 g/m*3 17.4 C 3.2 km/h
1697 09-05-2020 21:20:00 17 C 11.29 g/m*3 17 C 0 km/h
1698 09-05-2020 21:25:00 16.6 C 11.3 g/m*3 16.6 C 0 km/h
1699 09-05-2020 21:30:00 16.3 C 11.24 g/m*3 16.3 C 4.8 km/h
1700 09-05-2020 21:35:00 16 C 11.17 g/m*3 16 C 6.4 km/h
Sensor: Nr:Datum:Temp:Abs-Feuchte:Windchill:Wind:
Aussen-T/F 1701 09-05-2020 21:40:00 15.8 C 11.17 g/m*3 15.8 C 6.4 km/h
1702 09-05-2020 21:45:00 15.6 C 11.04 g/m*3 15.6 C 6.4 km/h
1703 09-05-2020 21:50:00 15.4 C 11.04 g/m*3 15.4 C 4.8 km/h
1704 09-05-2020 21:55:00 15.3 C 10.97 g/m*3 15.3 C 4.8 km/h
1705 09-05-2020 22:00:00 15.2 C 11.03 g/m*3 15.2 C 0 km/h
1706 09-05-2020 22:05:00 15.1 C 10.97 g/m*3 15.1 C 4.8 km/h
1707 09-05-2020 22:10:00 14.9 C 10.96 g/m*3 14.9 C 4.8 km/h
1708 09-05-2020 22:15:00 14.8 C 10.89 g/m*3 14.8 C 4.8 km/h
1709 09-05-2020 22:20:00 14.7 C 10.83 g/m*3 14.7 C 3.2 km/h
1710 09-05-2020 22:25:00 14.7 C 10.83 g/m*3 14.7 C 0 km/h
1711 09-05-2020 22:30:00 14.5 C 10.7 g/m*3 14.5 C 0 km/h
1712 09-05-2020 22:35:00 14.3 C 10.57 g/m*3 14.3 C 1.6 km/h
1713 09-05-2020 22:40:00 14.2 C 10.62 g/m*3 14.2 C 4.8 km/h
1714 09-05-2020 22:45:00 14.1 C 10.56 g/m*3 14.1 C 4.8 km/h
1715 09-05-2020 22:50:00 14 C 10.49 g/m*3 14 C 3.2 km/h
1716 09-05-2020 22:55:00 13.9 C 10.43 g/m*3 13.9 C 3.2 km/h
1717 09-05-2020 23:00:00 13.8 C 10.37 g/m*3 13.8 C 3.2 km/h
1718 09-05-2020 23:05:00 13.7 C 10.42 g/m*3 13.7 C 4.8 km/h
1719 09-05-2020 23:10:00 13.7 C 10.42 g/m*3 13.7 C 3.2 km/h
1720 09-05-2020 23:15:00 13.6 C 10.36 g/m*3 13.6 C 0 km/h
1721 09-05-2020 23:20:00 13.5 C 10.41 g/m*3 13.5 C 3.2 km/h
1722 09-05-2020 23:25:00 13.4 C 10.35 g/m*3 13.4 C 0 km/h
1723 09-05-2020 23:30:00 13.4 C 10.35 g/m*3 13.4 C 3.2 km/h
1724 09-05-2020 23:35:00 13.3 C 10.28 g/m*3 13.3 C 3.2 km/h
1725 09-05-2020 23:40:00 13.2 C 10.33 g/m*3 13.2 C 0 km/h
Sensor: Nr:Datum:Temp:Abs-Feuchte:Windchill:Wind:
Aussen-T/F 1726 09-05-2020 23:45:00 13.2 C 10.33 g/m*3 13.2 C 0 km/h
1727 09-05-2020 23:50:00 13.2 C 10.33 g/m*3 13.2 C 0 km/h
1728 09-05-2020 23:55:00 13 C 10.09 g/m*3 13 C 0 km/h
1729 10-05-2020 00:00:00 12.9 C 10.14 g/m*3 12.9 C 0 km/h
1730 10-05-2020 00:05:00 12.8 C 10.08 g/m*3 12.8 C 0 km/h
1731 10-05-2020 00:10:00 12.7 C 10.02 g/m*3 12.7 C 0 km/h
1732 10-05-2020 00:15:00 12.6 C 9.96 g/m*3 12.6 C 0 km/h
1733 10-05-2020 00:20:00 12.6 C 10.07 g/m*3 12.6 C 0 km/h
1734 10-05-2020 00:25:00 12.5 C 10 g/m*3 12.5 C 0 km/h
1735 10-05-2020 00:30:00 12.4 C 9.94 g/m*3 12.4 C 1.6 km/h
1736 10-05-2020 00:35:00 12.4 C 9.94 g/m*3 12.4 C 1.6 km/h
1737 10-05-2020 00:40:00 12.3 C 9.88 g/m*3 12.3 C 0 km/h
1738 10-05-2020 00:45:00 12.2 C 9.82 g/m*3 12.2 C 0 km/h
1739 10-05-2020 00:50:00 12.1 C 9.76 g/m*3 12.1 C 0 km/h
1740 10-05-2020 00:55:00 11.9 C 9.64 g/m*3 11.9 C 0 km/h
1741 10-05-2020 01:00:00 11.9 C 9.64 g/m*3 11.9 C 0 km/h
1742 10-05-2020 01:05:00 11.9 C 9.64 g/m*3 11.9 C 0 km/h
1743 10-05-2020 01:10:00 11.9 C 9.64 g/m*3 11.9 C 0 km/h
1744 10-05-2020 01:15:00 11.8 C 9.58 g/m*3 11.8 C 0 km/h
1745 10-05-2020 01:20:00 11.7 C 9.52 g/m*3 11.7 C 0 km/h
1746 10-05-2020 01:25:00 11.7 C 9.52 g/m*3 11.7 C 0 km/h
1747 10-05-2020 01:30:00 11.7 C 9.52 g/m*3 11.7 C 0 km/h
1748 10-05-2020 01:35:00 11.6 C 9.46 g/m*3 11.6 C 0 km/h
1749 10-05-2020 01:40:00 11.6 C 9.46 g/m*3 11.6 C 0 km/h
1750 10-05-2020 01:45:00 11.6 C 9.56 g/m*3 11.6 C 0 km/h
Sensor: Nr:Datum:Temp:Abs-Feuchte:Windchill:Wind:
Aussen-T/F 1751 10-05-2020 01:50:00 11.7 C 9.73 g/m*3 11.7 C 0 km/h
1752 10-05-2020 01:55:00 11.8 C 9.68 g/m*3 11.8 C 0 km/h
1753 10-05-2020 02:00:00 11.8 C 9.68 g/m*3 11.8 C 0 km/h
1754 10-05-2020 02:05:00 11.7 C 9.62 g/m*3 11.7 C 0 km/h
1755 10-05-2020 02:10:00 11.6 C 9.56 g/m*3 11.6 C 0 km/h
1756 10-05-2020 02:15:00 11.5 C 9.5 g/m*3 11.5 C 0 km/h
1757 10-05-2020 02:20:00 11.4 C 9.44 g/m*3 11.4 C 0 km/h
1758 10-05-2020 02:25:00 11.3 C 9.38 g/m*3 11.3 C 0 km/h
1759 10-05-2020 02:30:00 11.3 C 9.38 g/m*3 11.3 C 0 km/h
1760 10-05-2020 02:35:00 11.2 C 9.33 g/m*3 11.2 C 0 km/h
1761 10-05-2020 02:40:00 11.1 C 9.27 g/m*3 11.1 C 0 km/h
1762 10-05-2020 02:45:00 11.1 C 9.27 g/m*3 11.1 C 0 km/h
1763 10-05-2020 02:50:00 11.1 C 9.27 g/m*3 11.1 C 0 km/h
1764 10-05-2020 02:55:00 11 C 9.21 g/m*3 11 C 0 km/h
1765 10-05-2020 03:00:00 10.9 C 9.15 g/m*3 10.9 C 0 km/h
1766 10-05-2020 03:05:00 10.9 C 9.25 g/m*3 10.9 C 0 km/h
1767 10-05-2020 03:10:00 10.9 C 9.25 g/m*3 10.9 C 0 km/h
1768 10-05-2020 03:15:00 10.9 C 9.25 g/m*3 10.9 C 0 km/h
1769 10-05-2020 03:20:00 10.9 C 9.25 g/m*3 10.9 C 0 km/h
1770 10-05-2020 03:25:00 10.9 C 9.25 g/m*3 10.9 C 0 km/h
1771 10-05-2020 03:30:00 10.9 C 9.25 g/m*3 10.9 C 0 km/h
1772 10-05-2020 03:35:00 10.9 C 9.35 g/m*3 10.9 C 0 km/h
1773 10-05-2020 03:40:00 11 C 9.41 g/m*3 11 C 0 km/h
1774 10-05-2020 03:45:00 10.9 C 9.35 g/m*3 10.9 C 0 km/h
1775 10-05-2020 03:50:00 10.9 C 9.35 g/m*3 10.9 C 0 km/h
Sensor: Nr:Datum:Temp:Abs-Feuchte:Windchill:Wind:
Aussen-T/F 1776 10-05-2020 03:55:00 10.9 C 9.35 g/m*3 10.9 C 0 km/h
1777 10-05-2020 04:00:00 10.9 C 9.35 g/m*3 10.9 C 0 km/h
1778 10-05-2020 04:05:00 10.9 C 9.35 g/m*3 10.9 C 0 km/h
1779 10-05-2020 04:10:00 10.9 C 9.35 g/m*3 10.9 C 0 km/h
1780 10-05-2020 04:15:00 10.8 C 9.29 g/m*3 10.8 C 0 km/h
1781 10-05-2020 04:20:00 10.8 C 9.29 g/m*3 10.8 C 0 km/h
1782 10-05-2020 04:25:00 10.8 C 9.29 g/m*3 10.8 C 0 km/h
1783 10-05-2020 04:30:00 10.8 C 9.29 g/m*3 10.8 C 0 km/h
1784 10-05-2020 04:35:00 10.8 C 9.29 g/m*3 10.8 C 0 km/h
1785 10-05-2020 04:40:00 10.8 C 9.29 g/m*3 10.8 C 0 km/h
1786 10-05-2020 04:45:00 10.7 C 9.23 g/m*3 10.7 C 0 km/h
1787 10-05-2020 04:50:00 10.7 C 9.23 g/m*3 10.7 C 0 km/h
1788 10-05-2020 04:55:00 10.7 C 9.23 g/m*3 10.7 C 1.6 km/h
1789 10-05-2020 05:00:00 10.7 C 9.23 g/m*3 10.7 C 1.6 km/h
1790 10-05-2020 05:05:00 10.8 C 9.39 g/m*3 10.8 C 1.6 km/h
1791 10-05-2020 05:10:00 10.8 C 9.39 g/m*3 10.8 C 1.6 km/h
1792 10-05-2020 05:15:00 10.9 C 9.45 g/m*3 10.9 C 1.6 km/h
1793 10-05-2020 05:20:00 10.9 C 9.45 g/m*3 10.9 C 0 km/h
1794 10-05-2020 05:25:00 10.9 C 9.45 g/m*3 10.9 C 0 km/h
1795 10-05-2020 05:30:00 10.9 C 9.45 g/m*3 10.9 C 0 km/h
1796 10-05-2020 05:35:00 10.9 C 9.45 g/m*3 10.9 C 0 km/h
1797 10-05-2020 05:40:00 11 C 9.51 g/m*3 11 C 0 km/h
1798 10-05-2020 05:45:00 11 C 9.51 g/m*3 11 C 0 km/h
1799 10-05-2020 05:50:00 11 C 9.51 g/m*3 11 C 0 km/h
1800 10-05-2020 05:55:00 11 C 9.51 g/m*3 11 C 0 km/h
Sensor: Nr:Datum:Temp:Abs-Feuchte:Windchill:Wind:
Aussen-T/F 1801 10-05-2020 06:00:00 10.9 C 9.45 g/m*3 10.9 C 0 km/h
1802 10-05-2020 06:05:00 10.9 C 9.45 g/m*3 10.9 C 0 km/h
1803 10-05-2020 06:10:00 11 C 9.51 g/m*3 11 C 0 km/h
1804 10-05-2020 06:15:00 11 C 9.51 g/m*3 11 C 0 km/h
1805 10-05-2020 06:20:00 11.1 C 9.57 g/m*3 11.1 C 0 km/h
1806 10-05-2020 06:25:00 11.1 C 9.57 g/m*3 11.1 C 0 km/h
1807 10-05-2020 06:30:00 11.1 C 9.57 g/m*3 11.1 C 0 km/h
1808 10-05-2020 06:35:00 11.2 C 9.63 g/m*3 11.2 C 0 km/h
1809 10-05-2020 06:40:00 11.2 C 9.63 g/m*3 11.2 C 0 km/h
1810 10-05-2020 06:45:00 11.2 C 9.63 g/m*3 11.2 C 0 km/h
1811 10-05-2020 06:50:00 11.3 C 9.69 g/m*3 11.3 C 0 km/h
1812 10-05-2020 06:55:00 11.3 C 9.69 g/m*3 11.3 C 0 km/h
1813 10-05-2020 07:00:00 11.3 C 9.69 g/m*3 11.3 C 0 km/h
1814 10-05-2020 07:05:00 11.4 C 9.75 g/m*3 11.4 C 0 km/h
1815 10-05-2020 07:10:00 11.4 C 9.75 g/m*3 11.4 C 0 km/h
1816 10-05-2020 07:15:00 11.4 C 9.75 g/m*3 11.4 C 0 km/h
1817 10-05-2020 07:20:00 11.6 C 9.98 g/m*3 11.6 C 0 km/h
1818 10-05-2020 07:25:00 11.6 C 9.98 g/m*3 11.6 C 0 km/h
1819 10-05-2020 07:30:00 11.7 C 10.04 g/m*3 11.7 C 0 km/h
1820 10-05-2020 07:35:00 11.7 C 9.94 g/m*3 11.7 C 0 km/h
1821 10-05-2020 07:40:00 11.7 C 9.94 g/m*3 11.7 C 0 km/h
1822 10-05-2020 07:45:00 11.8 C 10 g/m*3 11.8 C 0 km/h
1823 10-05-2020 07:50:00 11.8 C 10 g/m*3 11.8 C 0 km/h
1824 10-05-2020 07:55:00 11.8 C 10 g/m*3 11.8 C 0 km/h
1825 10-05-2020 08:00:00 11.9 C 10.17 g/m*3 11.9 C 0 km/h
Sensor: Nr:Datum:Temp:Abs-Feuchte:Windchill:Wind:
Aussen-T/F 1826 10-05-2020 08:05:00 11.9 C 10.17 g/m*3 11.9 C 0 km/h
1827 10-05-2020 08:10:00 11.9 C 10.06 g/m*3 11.9 C 0 km/h
1828 10-05-2020 08:15:00 11.9 C 10.06 g/m*3 11.9 C 0 km/h
1829 10-05-2020 08:20:00 12 C 10.12 g/m*3 12 C 0 km/h
1830 10-05-2020 08:25:00 12.1 C 10.19 g/m*3 12.1 C 0 km/h
1831 10-05-2020 08:30:00 12.1 C 10.19 g/m*3 12.1 C 0 km/h
1832 10-05-2020 08:35:00 12.1 C 10.19 g/m*3 12.1 C 0 km/h
1833 10-05-2020 08:40:00 12.2 C 10.25 g/m*3 12.2 C 0 km/h
1834 10-05-2020 08:45:00 12.2 C 10.25 g/m*3 12.2 C 0 km/h
1835 10-05-2020 08:50:00 12.3 C 10.32 g/m*3 12.3 C 0 km/h
1836 10-05-2020 08:55:00 12.3 C 10.32 g/m*3 12.3 C 1.6 km/h
1837 10-05-2020 09:00:00 12.4 C 10.38 g/m*3 12.4 C 1.6 km/h
1838 10-05-2020 09:05:00 12.4 C 10.27 g/m*3 12.4 C 0 km/h
1839 10-05-2020 09:10:00 12.4 C 10.38 g/m*3 12.4 C 0 km/h
1840 10-05-2020 09:15:00 12.6 C 10.51 g/m*3 12.6 C 0 km/h
1841 10-05-2020 09:20:00 12.7 C 10.58 g/m*3 12.7 C 0 km/h
1842 10-05-2020 09:25:00 12.8 C 10.64 g/m*3 12.8 C 0 km/h
1843 10-05-2020 09:30:00 13 C 10.77 g/m*3 13 C 0 km/h
1844 10-05-2020 09:35:00 13.1 C 10.73 g/m*3 13.1 C 1.6 km/h
1845 10-05-2020 09:40:00 13.2 C 10.79 g/m*3 13.2 C 0 km/h
1846 10-05-2020 09:45:00 13.3 C 10.86 g/m*3 13.3 C 1.6 km/h
1847 10-05-2020 09:50:00 13.4 C 10.81 g/m*3 13.4 C 0 km/h
1848 10-05-2020 09:55:00 13.5 C 10.88 g/m*3 13.5 C 1.6 km/h
1849 10-05-2020 10:00:00 13.7 C 11.01 g/m*3 13.7 C 0 km/h
1850 10-05-2020 10:05:00 13.8 C 11.08 g/m*3 13.8 C 0 km/h
Sensor: Nr:Datum:Temp:Abs-Feuchte:Windchill:Wind:
Aussen-T/F 1851 10-05-2020 10:10:00 13.9 C 11.03 g/m*3 13.9 C 0 km/h
1852 10-05-2020 10:15:00 14.1 C 11.29 g/m*3 14.1 C 0 km/h
1853 10-05-2020 10:20:00 14.3 C 11.3 g/m*3 14.3 C 1.6 km/h
1854 10-05-2020 10:25:00 14.6 C 11.51 g/m*3 14.6 C 0 km/h
1855 10-05-2020 10:30:00 14.8 C 11.65 g/m*3 14.8 C 0 km/h
1856 10-05-2020 10:35:00 15 C 11.67 g/m*3 15 C 3.2 km/h
1857 10-05-2020 10:40:00 15.2 C 11.68 g/m*3 15.2 C 1.6 km/h
1858 10-05-2020 10:45:00 15.4 C 11.82 g/m*3 15.4 C 0 km/h
1859 10-05-2020 10:50:00 15.6 C 11.7 g/m*3 15.6 C 0 km/h
1860 10-05-2020 10:55:00 15.8 C 11.85 g/m*3 15.8 C 0 km/h
1861 10-05-2020 11:00:00 16.2 C 12.14 g/m*3 16.2 C 1.6 km/h
1862 10-05-2020 11:05:00 16.6 C 12.29 g/m*3 16.6 C 0 km/h
1863 10-05-2020 11:10:00 16.9 C 12.23 g/m*3 16.9 C 0 km/h
1864 10-05-2020 11:15:00 17.2 C 12.45 g/m*3 17.2 C 0 km/h
1865 10-05-2020 11:20:00 17.4 C 12.45 g/m*3 17.4 C 4.8 km/h
1866 10-05-2020 11:25:00 17.8 C 12.45 g/m*3 17.8 C 4.8 km/h
1867 10-05-2020 11:30:00 18.1 C 12.52 g/m*3 18.1 C 3.2 km/h
1868 10-05-2020 11:35:00 18.3 C 12.51 g/m*3 18.3 C 1.6 km/h
1869 10-05-2020 11:40:00 18.5 C 12.5 g/m*3 18.5 C 1.6 km/h
1870 10-05-2020 11:45:00 18.7 C 12.49 g/m*3 18.7 C 1.6 km/h
1871 10-05-2020 11:50:00 18.9 C 12.64 g/m*3 18.9 C 3.2 km/h
1872 10-05-2020 11:55:00 19.1 C 12.62 g/m*3 19.1 C 1.6 km/h
1873 10-05-2020 12:00:00 19.2 C 12.7 g/m*3 19.2 C 4.8 km/h
1874 10-05-2020 12:05:00 19.3 C 12.61 g/m*3 19.3 C 8.1 km/h
1875 10-05-2020 12:10:00 19.4 C 12.68 g/m*3 19.4 C 8.1 km/h
Sensor: Nr:Datum:Temp:Abs-Feuchte:Windchill:Wind:
Aussen-T/F 1876 10-05-2020 12:15:00 19.5 C 12.75 g/m*3 19.5 C 3.2 km/h
1877 10-05-2020 12:20:00 19.6 C 12.83 g/m*3 19.6 C 4.8 km/h
1878 10-05-2020 12:25:00 19.7 C 12.91 g/m*3 19.7 C 4.8 km/h
1879 10-05-2020 12:30:00 19.8 C 12.81 g/m*3 19.8 C 0 km/h
1880 10-05-2020 12:35:00 19.9 C 12.89 g/m*3 19.9 C 6.4 km/h
1881 10-05-2020 12:40:00 20.2 C 13.11 g/m*3 20.2 C 8.1 km/h
1882 10-05-2020 12:45:00 20.3 C 13.01 g/m*3 20.3 C 6.4 km/h
1883 10-05-2020 12:50:00 20.5 C 13.17 g/m*3 20.5 C 4.8 km/h
1884 10-05-2020 12:55:00 20.7 C 13.14 g/m*3 20.7 C 6.4 km/h
1885 10-05-2020 13:00:00 20.7 C 13.14 g/m*3 20.7 C 3.2 km/h
1886 10-05-2020 13:05:00 20.7 C 13.5 g/m*3 20.7 C 4.8 km/h
1887 10-05-2020 13:10:00 20.8 C 13.22 g/m*3 20.8 C 8.1 km/h
1888 10-05-2020 13:15:00 20.8 C 13.22 g/m*3 20.8 C 6.4 km/h
1889 10-05-2020 13:20:00 20.8 C 13.22 g/m*3 20.8 C 4.8 km/h
1890 10-05-2020 13:25:00 21 C 13.74 g/m*3 21 C 3.2 km/h
1891 10-05-2020 13:30:00 21.2 C 13.34 g/m*3 21.2 C 9.7 km/h
1892 10-05-2020 13:35:00 21.3 C 13.42 g/m*3 21.3 C 6.4 km/h
1893 10-05-2020 13:40:00 21.3 C 13.42 g/m*3 21.3 C 4.8 km/h
1894 10-05-2020 13:45:00 21.5 C 14.14 g/m*3 21.5 C 1.6 km/h
1895 10-05-2020 13:50:00 21.6 C 14.22 g/m*3 21.6 C 3.2 km/h
1896 10-05-2020 13:55:00 21.7 C 13.35 g/m*3 21.7 C 6.4 km/h
1897 10-05-2020 14:00:00 21.8 C 13.43 g/m*3 21.8 C 4.8 km/h
1898 10-05-2020 14:05:00 22 C 13.59 g/m*3 22 C 1.6 km/h
1899 10-05-2020 14:10:00 22.2 C 13.74 g/m*3 22.2 C 1.6 km/h
1900 10-05-2020 14:15:00 22.3 C 13.62 g/m*3 22.3 C 6.4 km/h
Sensor: Nr:Datum:Temp:Abs-Feuchte:Windchill:Wind:
Aussen-T/F 1901 10-05-2020 14:20:00 22.4 C 14.1 g/m*3 22.4 C 8.1 km/h
1902 10-05-2020 14:25:00 22.5 C 13.58 g/m*3 22.5 C 4.8 km/h
1903 10-05-2020 14:30:00 22.6 C 13.86 g/m*3 22.6 C 4.8 km/h
1904 10-05-2020 14:35:00 22.6 C 13.66 g/m*3 22.6 C 4.8 km/h
1905 10-05-2020 14:40:00 22.6 C 13.86 g/m*3 22.6 C 1.6 km/h
1906 10-05-2020 14:45:00 22.6 C 13.66 g/m*3 22.6 C 16.1 km/h
1907 10-05-2020 14:50:00 21.8 C 13.43 g/m*3 21.8 C 17.7 km/h
1908 10-05-2020 14:55:00 21.3 C 13.61 g/m*3 21.3 C 6.4 km/h
1909 10-05-2020 15:00:00 20.9 C 13.48 g/m*3 20.9 C 9.7 km/h
1910 10-05-2020 15:05:00 20.7 C 13.32 g/m*3 20.7 C 6.4 km/h
1911 10-05-2020 15:10:00 20.4 C 13.09 g/m*3 20.4 C 6.4 km/h
1912 10-05-2020 15:15:00 20.3 C 13.01 g/m*3 20.3 C 4.8 km/h
1913 10-05-2020 15:20:00 20.4 C 13.09 g/m*3 20.4 C 9.7 km/h
1914 10-05-2020 15:25:00 20.6 C 13.07 g/m*3 20.6 C 9.7 km/h
1915 10-05-2020 15:30:00 20.6 C 13.07 g/m*3 20.6 C 8.1 km/h
1916 10-05-2020 15:35:00 20.6 C 12.89 g/m*3 20.6 C 4.8 km/h
1917 10-05-2020 15:40:00 20.6 C 12.89 g/m*3 20.6 C 6.4 km/h
1918 10-05-2020 15:45:00 20.6 C 12.53 g/m*3 20.6 C 9.7 km/h
1919 10-05-2020 15:50:00 20.6 C 12.35 g/m*3 20.6 C 4.8 km/h
1920 10-05-2020 15:55:00 20.7 C 12.42 g/m*3 20.7 C 4.8 km/h
1921 10-05-2020 16:00:00 20.7 C 12.42 g/m*3 20.7 C 4.8 km/h
1922 10-05-2020 16:05:00 20.7 C 12.96 g/m*3 20.7 C 3.2 km/h
1923 10-05-2020 16:10:00 20.7 C 13.68 g/m*3 20.7 C 1.6 km/h
1924 10-05-2020 16:15:00 20.6 C 13.96 g/m*3 20.6 C 4.8 km/h
1925 10-05-2020 16:20:00 20.3 C 14.07 g/m*3 20.3 C 3.2 km/h
Sensor: Nr:Datum:Temp:Abs-Feuchte:Windchill:Wind:
Aussen-T/F 1926 10-05-2020 16:25:00 20.1 C 13.56 g/m*3 20.1 C 6.4 km/h
1927 10-05-2020 16:30:00 19.9 C 13.57 g/m*3 19.9 C 12.9 km/h
1928 10-05-2020 16:35:00 19.9 C 13.23 g/m*3 19.9 C 11.3 km/h
1929 10-05-2020 16:40:00 19.5 C 13.09 g/m*3 19.5 C 19.3 km/h
1930 10-05-2020 16:45:00 18.7 C 12.81 g/m*3 18.7 C 16.1 km/h
1931 10-05-2020 16:50:00 17.9 C 12.21 g/m*3 17.9 C 11.3 km/h
1932 10-05-2020 16:55:00 17.3 C 12.23 g/m*3 17.3 C 11.3 km/h
1933 10-05-2020 17:00:00 17 C 12.3 g/m*3 17 C 4.8 km/h
1934 10-05-2020 17:05:00 17.1 C 12.81 g/m*3 17.1 C 3.2 km/h
1935 10-05-2020 17:10:00 17.4 C 13.04 g/m*3 17.4 C 4.8 km/h
1936 10-05-2020 17:15:00 17.8 C 13.05 g/m*3 17.8 C 6.4 km/h
1937 10-05-2020 17:20:00 18.3 C 13.29 g/m*3 18.3 C 1.6 km/h
1938 10-05-2020 17:25:00 18.5 C 12.82 g/m*3 18.5 C 3.2 km/h
1939 10-05-2020 17:30:00 18.6 C 12.89 g/m*3 18.6 C 0 km/h
1940 10-05-2020 17:35:00 18.7 C 13.13 g/m*3 18.7 C 6.4 km/h
1941 10-05-2020 17:40:00 18.9 C 13.12 g/m*3 18.9 C 4.8 km/h
1942 10-05-2020 17:45:00 18.9 C 13.12 g/m*3 18.9 C 3.2 km/h
1943 10-05-2020 17:50:00 18.9 C 12.8 g/m*3 18.9 C 0 km/h
1944 10-05-2020 17:55:00 19.1 C 12.95 g/m*3 19.1 C 1.6 km/h
1945 10-05-2020 18:00:00 18.9 C 12.64 g/m*3 18.9 C 3.2 km/h
1946 10-05-2020 18:05:00 18.8 C 12.72 g/m*3 18.8 C 0 km/h
1947 10-05-2020 18:10:00 18.7 C 12.81 g/m*3 18.7 C 4.8 km/h
1948 10-05-2020 18:15:00 18.5 C 12.66 g/m*3 18.5 C 3.2 km/h
1949 10-05-2020 18:20:00 18.4 C 13.05 g/m*3 18.4 C 6.4 km/h
1950 10-05-2020 18:25:00 18.4 C 13.21 g/m*3 18.4 C 3.2 km/h
Sensor: Nr:Datum:Temp:Abs-Feuchte:Windchill:Wind:
Aussen-T/F 1951 10-05-2020 18:30:00 18.4 C 13.37 g/m*3 18.4 C 1.6 km/h
1952 10-05-2020 18:35:00 18.5 C 13.61 g/m*3 18.5 C 0 km/h
1953 10-05-2020 18:40:00 18.6 C 13.53 g/m*3 18.6 C 0 km/h
1954 10-05-2020 18:45:00 18.8 C 13.53 g/m*3 18.8 C 3.2 km/h
1955 10-05-2020 18:50:00 18.8 C 13.53 g/m*3 18.8 C 3.2 km/h
1956 10-05-2020 18:55:00 18.8 C 13.37 g/m*3 18.8 C 1.6 km/h
1957 10-05-2020 19:00:00 18.7 C 13.45 g/m*3 18.7 C 3.2 km/h
1958 10-05-2020 19:05:00 18.7 C 13.45 g/m*3 18.7 C 1.6 km/h
1959 10-05-2020 19:10:00 18.6 C 13.53 g/m*3 18.6 C 1.6 km/h
1960 10-05-2020 19:15:00 18.6 C 13.53 g/m*3 18.6 C 4.8 km/h
1961 10-05-2020 19:20:00 18.6 C 13.53 g/m*3 18.6 C 3.2 km/h
1962 10-05-2020 19:25:00 18.5 C 13.45 g/m*3 18.5 C 4.8 km/h
1963 10-05-2020 19:30:00 18.3 C 13.29 g/m*3 18.3 C 1.6 km/h
1964 10-05-2020 19:35:00 18.3 C 13.29 g/m*3 18.3 C 3.2 km/h
1965 10-05-2020 19:40:00 18.3 C 13.45 g/m*3 18.3 C 0 km/h
1966 10-05-2020 19:45:00 18.3 C 13.45 g/m*3 18.3 C 0 km/h
1967 10-05-2020 19:50:00 18.2 C 13.37 g/m*3 18.2 C 1.6 km/h
1968 10-05-2020 19:55:00 18.2 C 13.37 g/m*3 18.2 C 1.6 km/h
1969 10-05-2020 20:00:00 18.1 C 13.29 g/m*3 18.1 C 1.6 km/h
1970 10-05-2020 20:05:00 18.1 C 13.29 g/m*3 18.1 C 0 km/h
1971 10-05-2020 20:10:00 17.9 C 13.28 g/m*3 17.9 C 0 km/h
1972 10-05-2020 20:15:00 17.9 C 13.28 g/m*3 17.9 C 0 km/h
1973 10-05-2020 20:20:00 17.8 C 13.2 g/m*3 17.8 C 1.6 km/h
1974 10-05-2020 20:25:00 17.7 C 13.13 g/m*3 17.7 C 0 km/h
1975 10-05-2020 20:30:00 17.7 C 13.28 g/m*3 17.7 C 0 km/h
Sensor: Nr:Datum:Temp:Abs-Feuchte:Windchill:Wind:
Aussen-T/F 1976 10-05-2020 20:35:00 17.6 C 13.2 g/m*3 17.6 C 0 km/h
1977 10-05-2020 20:40:00 17.5 C 13.12 g/m*3 17.5 C 1.6 km/h
1978 10-05-2020 20:45:00 17.4 C 13.04 g/m*3 17.4 C 3.2 km/h
1979 10-05-2020 20:50:00 17.4 C 13.19 g/m*3 17.4 C 0 km/h
1980 10-05-2020 20:55:00 17.3 C 13.11 g/m*3 17.3 C 0 km/h
1981 10-05-2020 21:00:00 17.3 C 13.11 g/m*3 17.3 C 0 km/h
1982 10-05-2020 21:05:00 17.2 C 13.03 g/m*3 17.2 C 0 km/h
1983 10-05-2020 21:10:00 17.1 C 12.96 g/m*3 17.1 C 0 km/h
1984 10-05-2020 21:15:00 17 C 12.88 g/m*3 17 C 0 km/h
1985 10-05-2020 21:20:00 16.9 C 12.8 g/m*3 16.9 C 0 km/h
1986 10-05-2020 21:25:00 16.8 C 12.87 g/m*3 16.8 C 0 km/h
1987 10-05-2020 21:30:00 16.7 C 12.79 g/m*3 16.7 C 3.2 km/h
1988 10-05-2020 21:35:00 16.6 C 12.71 g/m*3 16.6 C 1.6 km/h
1989 10-05-2020 21:40:00 16.6 C 12.71 g/m*3 16.6 C 0 km/h
1990 10-05-2020 21:45:00 16.5 C 12.78 g/m*3 16.5 C 3.2 km/h
1991 10-05-2020 21:50:00 16.4 C 12.7 g/m*3 16.4 C 1.6 km/h
1992 10-05-2020 21:55:00 16.3 C 12.62 g/m*3 16.3 C 3.2 km/h
1993 10-05-2020 22:00:00 16.2 C 12.55 g/m*3 16.2 C 0 km/h
1994 10-05-2020 22:05:00 16.1 C 12.47 g/m*3 16.1 C 4.8 km/h
1995 10-05-2020 22:10:00 16.1 C 12.47 g/m*3 16.1 C 3.2 km/h
1996 10-05-2020 22:15:00 16 C 12.4 g/m*3 16 C 1.6 km/h
1997 10-05-2020 22:20:00 15.9 C 12.32 g/m*3 15.9 C 1.6 km/h
1998 10-05-2020 22:25:00 15.8 C 12.38 g/m*3 15.8 C 4.8 km/h
1999 10-05-2020 22:30:00 15.8 C 12.38 g/m*3 15.8 C 3.2 km/h
2000 10-05-2020 22:35:00 15.7 C 12.31 g/m*3 15.7 C 3.2 km/h
Sensor: Nr:Datum:Temp:Abs-Feuchte:Windchill:Wind:
Aussen-T/F 2001 10-05-2020 22:40:00 15.7 C 12.31 g/m*3 15.7 C 0 km/h
2002 10-05-2020 22:45:00 15.6 C 12.23 g/m*3 15.6 C 1.6 km/h
2003 10-05-2020 22:50:00 15.6 C 12.23 g/m*3 15.6 C 0 km/h
2004 10-05-2020 22:55:00 15.6 C 12.37 g/m*3 15.6 C 1.6 km/h
2005 10-05-2020 23:00:00 15.6 C 12.37 g/m*3 15.6 C 1.6 km/h
2006 10-05-2020 23:05:00 15.6 C 12.37 g/m*3 15.6 C 0 km/h
2007 10-05-2020 23:10:00 15.6 C 12.37 g/m*3 15.6 C 0 km/h
2008 10-05-2020 23:15:00 15.6 C 12.37 g/m*3 15.6 C 0 km/h
2009 10-05-2020 23:20:00 15.6 C 12.37 g/m*3 15.6 C 0 km/h
2010 10-05-2020 23:25:00 15.6 C 12.37 g/m*3 15.6 C 0 km/h
2011 10-05-2020 23:30:00 15.6 C 12.37 g/m*3 15.6 C 0 km/h
2012 10-05-2020 23:35:00 15.6 C 12.37 g/m*3 15.6 C 0 km/h
2013 10-05-2020 23:40:00 15.6 C 12.37 g/m*3 15.6 C 0 km/h
2014 10-05-2020 23:45:00 15.6 C 12.37 g/m*3 15.6 C 1.6 km/h
2015 10-05-2020 23:50:00 15.7 C 12.44 g/m*3 15.7 C 0 km/h
2016 10-05-2020 23:55:00 15.7 C 12.44 g/m*3 15.7 C 3.2 km/h

Legende:
   Min
   Max


Maximal/Minimal-Werte vom 04.05.2020 - 10.05.2020

Sensor Min Max Avg
Temp
(Aussen-T/F)
2 °C
06-05-2020  06:30:00
25.5 °C
08-05-2020  16:30:00
13.07 °C
Abs-Feuchte
(Aussen-T/F)
4.31 g/m*3
06-05-2020  14:35:00
14.22 g/m*3
10-05-2020  13:50:00
8.04 g/m*3
Windchill
(Aussen-T/F)
2 C
06-05-2020  06:30:00
25.5 C
08-05-2020  16:30:00
13.05 C

Die Daten stammen von einer Davis Vantage Pro 2 Wetter-Station und werden unter Linux mit der Software wview2wettercgi und aufbereitet. Alle Angaben erfolgen ohne Gewähr für ihre Vollständigkeit oder Richtigkeit.
Kontakt: Rainer Krienke krienke@uni-koblenz.de . Meine Webseiten an der Uni Koblenz oder privat.
Version: $Revision: 0.78 $